<?xml version="1.0" encoding="UTF-8"?>
<gpx version="1.1" creator="https://www.youtrack.es" xsi:schemaLocation="http://www.topografix.com/GPX/1/1 http://www.topografix.com/GPX/1/1/gpx.xsd http://www.garmin.com/xmlschemas/GpxExtensions/v3 http://www.garmin.com/xmlschemas/GpxExtensionsv3.xsd http://www.garmin.com/xmlschemas/TrackPointExtension/v1 http://www.garmin.com/xmlschemas/TrackPointExtensionv1.xsd" xmlns:gpxtpx="http://www.garmin.com/xmlschemas/TrackPointExtension/v1" xmlns:gpxx="http://www.garmin.com/xmlschemas/GpxExtensions/v3" xmlns:xsi="http://www.w3.org/2001/XMLSchema-instance">
  <metadata>
    <link href="https://www.youtrack.es">
      <text>YouTrack.es</text>
    </link>
    <time>2026-05-10T11:46:12Z</time>
  </metadata>
  <trk>
    <src>https://www.youtrack.es</src>
    <link href="https://www.youtrack.es/ruta/10539-mut">
      <text>YouTrack.es</text>
    </link>
    <trkseg>
      <trkpt lat="42.031177" lon="0.687295">
        <ele>683.00</ele>
        <time>2020-01-19T08:24:17.57Z</time>
      </trkpt>
      <trkpt lat="42.031216" lon="0.687313">
        <ele>675.00</ele>
        <time>2020-01-19T08:24:21.57Z</time>
      </trkpt>
      <trkpt lat="42.031265" lon="0.687342">
        <ele>675.00</ele>
        <time>2020-01-19T08:24:26.57Z</time>
      </trkpt>
      <trkpt lat="42.031302" lon="0.687367">
        <ele>675.00</ele>
        <time>2020-01-19T08:24:30.57Z</time>
      </trkpt>
      <trkpt lat="42.031341" lon="0.687391">
        <ele>675.00</ele>
        <time>2020-01-19T08:24:34.57Z</time>
      </trkpt>
      <trkpt lat="42.031384" lon="0.687385">
        <ele>675.00</ele>
        <time>2020-01-19T08:24:38.57Z</time>
      </trkpt>
      <trkpt lat="42.031423" lon="0.687392">
        <ele>674.00</ele>
        <time>2020-01-19T08:24:42.57Z</time>
      </trkpt>
      <trkpt lat="42.031461" lon="0.687403">
        <ele>674.00</ele>
        <time>2020-01-19T08:24:46.57Z</time>
      </trkpt>
      <trkpt lat="42.031500" lon="0.687425">
        <ele>673.00</ele>
        <time>2020-01-19T08:24:50.57Z</time>
      </trkpt>
      <trkpt lat="42.031536" lon="0.687443">
        <ele>673.00</ele>
        <time>2020-01-19T08:24:54.57Z</time>
      </trkpt>
      <trkpt lat="42.031573" lon="0.687457">
        <ele>673.00</ele>
        <time>2020-01-19T08:24:58.57Z</time>
      </trkpt>
      <trkpt lat="42.031615" lon="0.687470">
        <ele>672.00</ele>
        <time>2020-01-19T08:25:02.57Z</time>
      </trkpt>
      <trkpt lat="42.031657" lon="0.687495">
        <ele>672.00</ele>
        <time>2020-01-19T08:25:06.57Z</time>
      </trkpt>
      <trkpt lat="42.031697" lon="0.687516">
        <ele>672.00</ele>
        <time>2020-01-19T08:25:09.57Z</time>
      </trkpt>
      <trkpt lat="42.031741" lon="0.687544">
        <ele>671.78</ele>
        <time>2020-01-19T08:25:12.57Z</time>
      </trkpt>
      <trkpt lat="42.031784" lon="0.687575">
        <ele>670.00</ele>
        <time>2020-01-19T08:25:15.57Z</time>
      </trkpt>
      <trkpt lat="42.031822" lon="0.687598">
        <ele>670.00</ele>
        <time>2020-01-19T08:25:18.57Z</time>
      </trkpt>
      <trkpt lat="42.031874" lon="0.687617">
        <ele>670.00</ele>
        <time>2020-01-19T08:25:22.57Z</time>
      </trkpt>
      <trkpt lat="42.031921" lon="0.687607">
        <ele>670.00</ele>
        <time>2020-01-19T08:25:29.57Z</time>
      </trkpt>
      <trkpt lat="42.031961" lon="0.687586">
        <ele>670.00</ele>
        <time>2020-01-19T08:25:32.57Z</time>
      </trkpt>
      <trkpt lat="42.031998" lon="0.687560">
        <ele>668.00</ele>
        <time>2020-01-19T08:25:35.57Z</time>
      </trkpt>
      <trkpt lat="42.032032" lon="0.687533">
        <ele>668.00</ele>
        <time>2020-01-19T08:25:38.57Z</time>
      </trkpt>
      <trkpt lat="42.032074" lon="0.687510">
        <ele>668.00</ele>
        <time>2020-01-19T08:25:41.57Z</time>
      </trkpt>
      <trkpt lat="42.032118" lon="0.687462">
        <ele>667.00</ele>
        <time>2020-01-19T08:25:45.57Z</time>
      </trkpt>
      <trkpt lat="42.032150" lon="0.687418">
        <ele>667.00</ele>
        <time>2020-01-19T08:25:48.57Z</time>
      </trkpt>
      <trkpt lat="42.032144" lon="0.687480">
        <ele>668.00</ele>
        <time>2020-01-19T08:25:57.57Z</time>
      </trkpt>
      <trkpt lat="42.032071" lon="0.687549">
        <ele>668.39</ele>
        <time>2020-01-19T08:26:01.57Z</time>
      </trkpt>
      <trkpt lat="42.031981" lon="0.687597">
        <ele>670.00</ele>
        <time>2020-01-19T08:26:06.57Z</time>
      </trkpt>
      <trkpt lat="42.031874" lon="0.687577">
        <ele>672.00</ele>
        <time>2020-01-19T08:26:10.57Z</time>
      </trkpt>
      <trkpt lat="42.031765" lon="0.687527">
        <ele>673.00</ele>
        <time>2020-01-19T08:26:15.57Z</time>
      </trkpt>
      <trkpt lat="42.031665" lon="0.687460">
        <ele>673.00</ele>
        <time>2020-01-19T08:26:19.55Z</time>
      </trkpt>
      <trkpt lat="42.031576" lon="0.687428">
        <ele>674.00</ele>
        <time>2020-01-19T08:26:23.54Z</time>
      </trkpt>
      <trkpt lat="42.031456" lon="0.687355">
        <ele>674.00</ele>
        <time>2020-01-19T08:26:28.59Z</time>
      </trkpt>
      <trkpt lat="42.031351" lon="0.687294">
        <ele>674.00</ele>
        <time>2020-01-19T08:26:32.54Z</time>
      </trkpt>
      <trkpt lat="42.031251" lon="0.687256">
        <ele>676.00</ele>
        <time>2020-01-19T08:26:37.57Z</time>
      </trkpt>
      <trkpt lat="42.031138" lon="0.687205">
        <ele>677.00</ele>
        <time>2020-01-19T08:26:44.60Z</time>
      </trkpt>
      <trkpt lat="42.031046" lon="0.687138">
        <ele>677.00</ele>
        <time>2020-01-19T08:26:51.60Z</time>
      </trkpt>
      <trkpt lat="42.030966" lon="0.687072">
        <ele>677.00</ele>
        <time>2020-01-19T08:27:06.60Z</time>
      </trkpt>
      <trkpt lat="42.031033" lon="0.687160">
        <ele>676.00</ele>
        <time>2020-01-19T08:27:31.54Z</time>
      </trkpt>
      <trkpt lat="42.031136" lon="0.687218">
        <ele>677.00</ele>
        <time>2020-01-19T08:27:39.57Z</time>
      </trkpt>
      <trkpt lat="42.031244" lon="0.687268">
        <ele>676.00</ele>
        <time>2020-01-19T08:27:45.60Z</time>
      </trkpt>
      <trkpt lat="42.031344" lon="0.687317">
        <ele>676.00</ele>
        <time>2020-01-19T08:27:49.57Z</time>
      </trkpt>
      <trkpt lat="42.031442" lon="0.687383">
        <ele>676.00</ele>
        <time>2020-01-19T08:27:53.60Z</time>
      </trkpt>
      <trkpt lat="42.031524" lon="0.687444">
        <ele>674.00</ele>
        <time>2020-01-19T08:27:57.60Z</time>
      </trkpt>
      <trkpt lat="42.031603" lon="0.687512">
        <ele>674.00</ele>
        <time>2020-01-19T08:28:01.57Z</time>
      </trkpt>
      <trkpt lat="42.031711" lon="0.687573">
        <ele>674.00</ele>
        <time>2020-01-19T08:28:07.57Z</time>
      </trkpt>
      <trkpt lat="42.031807" lon="0.687568">
        <ele>673.00</ele>
        <time>2020-01-19T08:28:11.57Z</time>
      </trkpt>
      <trkpt lat="42.031915" lon="0.687515">
        <ele>673.00</ele>
        <time>2020-01-19T08:28:15.55Z</time>
      </trkpt>
      <trkpt lat="42.032017" lon="0.687470">
        <ele>673.00</ele>
        <time>2020-01-19T08:28:19.57Z</time>
      </trkpt>
      <trkpt lat="42.032117" lon="0.687386">
        <ele>671.00</ele>
        <time>2020-01-19T08:28:23.57Z</time>
      </trkpt>
      <trkpt lat="42.032306" lon="0.687202">
        <ele>671.00</ele>
        <time>2020-01-19T08:28:29.57Z</time>
      </trkpt>
      <trkpt lat="42.032408" lon="0.687116">
        <ele>670.65</ele>
        <time>2020-01-19T08:28:32.57Z</time>
      </trkpt>
      <trkpt lat="42.032494" lon="0.687050">
        <ele>669.00</ele>
        <time>2020-01-19T08:28:35.57Z</time>
      </trkpt>
      <trkpt lat="42.032577" lon="0.686996">
        <ele>669.00</ele>
        <time>2020-01-19T08:28:38.57Z</time>
      </trkpt>
      <trkpt lat="42.032659" lon="0.686916">
        <ele>668.00</ele>
        <time>2020-01-19T08:28:41.57Z</time>
      </trkpt>
      <trkpt lat="42.032735" lon="0.686843">
        <ele>668.00</ele>
        <time>2020-01-19T08:28:44.57Z</time>
      </trkpt>
      <trkpt lat="42.032812" lon="0.686772">
        <ele>668.00</ele>
        <time>2020-01-19T08:28:47.57Z</time>
      </trkpt>
      <trkpt lat="42.032960" lon="0.686650">
        <ele>666.00</ele>
        <time>2020-01-19T08:28:52.57Z</time>
      </trkpt>
      <trkpt lat="42.033038" lon="0.686579">
        <ele>665.84</ele>
        <time>2020-01-19T08:28:55.57Z</time>
      </trkpt>
      <trkpt lat="42.033117" lon="0.686450">
        <ele>664.90</ele>
        <time>2020-01-19T08:28:59.57Z</time>
      </trkpt>
      <trkpt lat="42.033188" lon="0.686338">
        <ele>664.00</ele>
        <time>2020-01-19T08:29:03.57Z</time>
      </trkpt>
      <trkpt lat="42.033226" lon="0.686221">
        <ele>664.00</ele>
        <time>2020-01-19T08:29:07.60Z</time>
      </trkpt>
      <trkpt lat="42.033254" lon="0.686085">
        <ele>663.00</ele>
        <time>2020-01-19T08:29:14.60Z</time>
      </trkpt>
      <trkpt lat="42.033270" lon="0.685959">
        <ele>664.00</ele>
        <time>2020-01-19T08:29:22.57Z</time>
      </trkpt>
      <trkpt lat="42.033288" lon="0.685829">
        <ele>664.94</ele>
        <time>2020-01-19T08:29:29.55Z</time>
      </trkpt>
      <trkpt lat="42.033316" lon="0.685703">
        <ele>665.00</ele>
        <time>2020-01-19T08:29:36.57Z</time>
      </trkpt>
      <trkpt lat="42.033370" lon="0.685589">
        <ele>665.00</ele>
        <time>2020-01-19T08:29:45.57Z</time>
      </trkpt>
      <trkpt lat="42.033428" lon="0.685459">
        <ele>667.00</ele>
        <time>2020-01-19T08:29:56.60Z</time>
      </trkpt>
      <trkpt lat="42.033471" lon="0.685338">
        <ele>669.00</ele>
        <time>2020-01-19T08:30:06.57Z</time>
      </trkpt>
      <trkpt lat="42.033507" lon="0.685212">
        <ele>671.00</ele>
        <time>2020-01-19T08:30:15.57Z</time>
      </trkpt>
      <trkpt lat="42.033550" lon="0.685104">
        <ele>671.00</ele>
        <time>2020-01-19T08:30:23.57Z</time>
      </trkpt>
      <trkpt lat="42.033602" lon="0.684973">
        <ele>675.00</ele>
        <time>2020-01-19T08:30:30.57Z</time>
      </trkpt>
      <trkpt lat="42.033658" lon="0.684869">
        <ele>675.00</ele>
        <time>2020-01-19T08:30:34.54Z</time>
      </trkpt>
      <trkpt lat="42.033729" lon="0.684783">
        <ele>675.00</ele>
        <time>2020-01-19T08:30:39.54Z</time>
      </trkpt>
      <trkpt lat="42.033788" lon="0.684669">
        <ele>675.50</ele>
        <time>2020-01-19T08:30:47.60Z</time>
      </trkpt>
      <trkpt lat="42.033861" lon="0.684585">
        <ele>681.00</ele>
        <time>2020-01-19T08:30:58.57Z</time>
      </trkpt>
      <trkpt lat="42.033955" lon="0.684516">
        <ele>683.00</ele>
        <time>2020-01-19T08:31:03.57Z</time>
      </trkpt>
      <trkpt lat="42.034039" lon="0.684460">
        <ele>683.00</ele>
        <time>2020-01-19T08:31:07.57Z</time>
      </trkpt>
      <trkpt lat="42.034136" lon="0.684366">
        <ele>685.00</ele>
        <time>2020-01-19T08:31:12.60Z</time>
      </trkpt>
      <trkpt lat="42.034216" lon="0.684257">
        <ele>685.00</ele>
        <time>2020-01-19T08:31:17.60Z</time>
      </trkpt>
      <trkpt lat="42.034288" lon="0.684135">
        <ele>685.00</ele>
        <time>2020-01-19T08:31:22.60Z</time>
      </trkpt>
      <trkpt lat="42.034342" lon="0.684031">
        <ele>685.00</ele>
        <time>2020-01-19T08:31:28.57Z</time>
      </trkpt>
      <trkpt lat="42.034414" lon="0.683928">
        <ele>686.00</ele>
        <time>2020-01-19T08:31:35.60Z</time>
      </trkpt>
      <trkpt lat="42.034477" lon="0.683824">
        <ele>686.00</ele>
        <time>2020-01-19T08:31:42.54Z</time>
      </trkpt>
      <trkpt lat="42.034551" lon="0.683737">
        <ele>688.00</ele>
        <time>2020-01-19T08:31:48.57Z</time>
      </trkpt>
      <trkpt lat="42.034647" lon="0.683668">
        <ele>688.00</ele>
        <time>2020-01-19T08:31:53.54Z</time>
      </trkpt>
      <trkpt lat="42.034731" lon="0.683610">
        <ele>688.01</ele>
        <time>2020-01-19T08:31:57.60Z</time>
      </trkpt>
      <trkpt lat="42.034823" lon="0.683534">
        <ele>689.00</ele>
        <time>2020-01-19T08:32:01.57Z</time>
      </trkpt>
      <trkpt lat="42.034907" lon="0.683464">
        <ele>688.00</ele>
        <time>2020-01-19T08:32:05.57Z</time>
      </trkpt>
      <trkpt lat="42.034987" lon="0.683403">
        <ele>688.00</ele>
        <time>2020-01-19T08:32:09.57Z</time>
      </trkpt>
      <trkpt lat="42.035083" lon="0.683319">
        <ele>688.00</ele>
        <time>2020-01-19T08:32:13.57Z</time>
      </trkpt>
      <trkpt lat="42.035179" lon="0.683253">
        <ele>688.00</ele>
        <time>2020-01-19T08:32:17.57Z</time>
      </trkpt>
      <trkpt lat="42.035332" lon="0.683229">
        <ele>683.12</ele>
        <time>2020-01-19T08:32:23.57Z</time>
      </trkpt>
      <trkpt lat="42.035441" lon="0.683223">
        <ele>682.00</ele>
        <time>2020-01-19T08:32:28.57Z</time>
      </trkpt>
      <trkpt lat="42.035549" lon="0.683185">
        <ele>682.00</ele>
        <time>2020-01-19T08:32:34.57Z</time>
      </trkpt>
      <trkpt lat="42.035658" lon="0.683151">
        <ele>680.00</ele>
        <time>2020-01-19T08:32:39.60Z</time>
      </trkpt>
      <trkpt lat="42.035779" lon="0.683129">
        <ele>678.00</ele>
        <time>2020-01-19T08:32:45.60Z</time>
      </trkpt>
      <trkpt lat="42.035884" lon="0.683131">
        <ele>677.00</ele>
        <time>2020-01-19T08:32:50.54Z</time>
      </trkpt>
      <trkpt lat="42.035997" lon="0.683140">
        <ele>677.00</ele>
        <time>2020-01-19T08:32:54.60Z</time>
      </trkpt>
      <trkpt lat="42.036106" lon="0.683134">
        <ele>675.00</ele>
        <time>2020-01-19T08:32:58.60Z</time>
      </trkpt>
      <trkpt lat="42.036246" lon="0.683094">
        <ele>672.13</ele>
        <time>2020-01-19T08:33:03.60Z</time>
      </trkpt>
      <trkpt lat="42.036332" lon="0.683043">
        <ele>672.00</ele>
        <time>2020-01-19T08:33:06.57Z</time>
      </trkpt>
      <trkpt lat="42.036415" lon="0.682956">
        <ele>672.00</ele>
        <time>2020-01-19T08:33:10.60Z</time>
      </trkpt>
      <trkpt lat="42.036501" lon="0.682797">
        <ele>672.00</ele>
        <time>2020-01-19T08:33:16.60Z</time>
      </trkpt>
      <trkpt lat="42.036540" lon="0.682659">
        <ele>672.00</ele>
        <time>2020-01-19T08:33:20.54Z</time>
      </trkpt>
      <trkpt lat="42.036606" lon="0.682538">
        <ele>672.00</ele>
        <time>2020-01-19T08:33:24.54Z</time>
      </trkpt>
      <trkpt lat="42.036648" lon="0.682420">
        <ele>671.00</ele>
        <time>2020-01-19T08:33:28.57Z</time>
      </trkpt>
      <trkpt lat="42.036679" lon="0.682300">
        <ele>671.00</ele>
        <time>2020-01-19T08:33:32.57Z</time>
      </trkpt>
      <trkpt lat="42.036735" lon="0.682187">
        <ele>671.00</ele>
        <time>2020-01-19T08:33:36.60Z</time>
      </trkpt>
      <trkpt lat="42.036782" lon="0.682080">
        <ele>670.00</ele>
        <time>2020-01-19T08:33:40.54Z</time>
      </trkpt>
      <trkpt lat="42.036834" lon="0.681973">
        <ele>670.00</ele>
        <time>2020-01-19T08:33:44.60Z</time>
      </trkpt>
      <trkpt lat="42.036889" lon="0.681851">
        <ele>669.02</ele>
        <time>2020-01-19T08:33:48.57Z</time>
      </trkpt>
      <trkpt lat="42.036934" lon="0.681742">
        <ele>669.00</ele>
        <time>2020-01-19T08:33:52.57Z</time>
      </trkpt>
      <trkpt lat="42.036971" lon="0.681613">
        <ele>669.00</ele>
        <time>2020-01-19T08:33:56.57Z</time>
      </trkpt>
      <trkpt lat="42.036986" lon="0.681449">
        <ele>669.00</ele>
        <time>2020-01-19T08:34:01.57Z</time>
      </trkpt>
      <trkpt lat="42.037040" lon="0.681320">
        <ele>668.00</ele>
        <time>2020-01-19T08:34:05.57Z</time>
      </trkpt>
      <trkpt lat="42.037088" lon="0.681203">
        <ele>668.00</ele>
        <time>2020-01-19T08:34:09.55Z</time>
      </trkpt>
      <trkpt lat="42.037142" lon="0.681079">
        <ele>668.00</ele>
        <time>2020-01-19T08:34:13.57Z</time>
      </trkpt>
      <trkpt lat="42.037210" lon="0.680979">
        <ele>668.00</ele>
        <time>2020-01-19T08:34:17.60Z</time>
      </trkpt>
      <trkpt lat="42.037234" lon="0.680823">
        <ele>668.00</ele>
        <time>2020-01-19T08:34:22.60Z</time>
      </trkpt>
      <trkpt lat="42.037224" lon="0.680701">
        <ele>668.00</ele>
        <time>2020-01-19T08:34:26.57Z</time>
      </trkpt>
      <trkpt lat="42.037246" lon="0.680575">
        <ele>668.00</ele>
        <time>2020-01-19T08:34:31.57Z</time>
      </trkpt>
      <trkpt lat="42.037268" lon="0.680423">
        <ele>668.00</ele>
        <time>2020-01-19T08:34:37.60Z</time>
      </trkpt>
      <trkpt lat="42.037319" lon="0.680289">
        <ele>668.00</ele>
        <time>2020-01-19T08:34:45.57Z</time>
      </trkpt>
      <trkpt lat="42.037380" lon="0.680178">
        <ele>668.00</ele>
        <time>2020-01-19T08:34:51.57Z</time>
      </trkpt>
      <trkpt lat="42.037440" lon="0.680072">
        <ele>667.10</ele>
        <time>2020-01-19T08:34:58.57Z</time>
      </trkpt>
      <trkpt lat="42.037485" lon="0.679963">
        <ele>667.00</ele>
        <time>2020-01-19T08:35:07.60Z</time>
      </trkpt>
      <trkpt lat="42.037523" lon="0.679847">
        <ele>668.00</ele>
        <time>2020-01-19T08:35:16.54Z</time>
      </trkpt>
      <trkpt lat="42.037574" lon="0.679734">
        <ele>668.00</ele>
        <time>2020-01-19T08:35:22.57Z</time>
      </trkpt>
      <trkpt lat="42.037652" lon="0.679637">
        <ele>669.00</ele>
        <time>2020-01-19T08:35:30.57Z</time>
      </trkpt>
      <trkpt lat="42.037764" lon="0.679565">
        <ele>669.00</ele>
        <time>2020-01-19T08:35:34.60Z</time>
      </trkpt>
      <trkpt lat="42.037850" lon="0.679494">
        <ele>669.00</ele>
        <time>2020-01-19T08:35:38.57Z</time>
      </trkpt>
      <trkpt lat="42.037936" lon="0.679437">
        <ele>669.00</ele>
        <time>2020-01-19T08:35:42.54Z</time>
      </trkpt>
      <trkpt lat="42.038056" lon="0.679352">
        <ele>670.00</ele>
        <time>2020-01-19T08:35:47.60Z</time>
      </trkpt>
      <trkpt lat="42.038174" lon="0.679255">
        <ele>670.00</ele>
        <time>2020-01-19T08:35:53.57Z</time>
      </trkpt>
      <trkpt lat="42.038274" lon="0.679202">
        <ele>670.00</ele>
        <time>2020-01-19T08:35:57.57Z</time>
      </trkpt>
      <trkpt lat="42.038367" lon="0.679122">
        <ele>670.00</ele>
        <time>2020-01-19T08:36:01.57Z</time>
      </trkpt>
      <trkpt lat="42.038443" lon="0.679023">
        <ele>669.00</ele>
        <time>2020-01-19T08:36:05.57Z</time>
      </trkpt>
      <trkpt lat="42.038512" lon="0.678919">
        <ele>669.00</ele>
        <time>2020-01-19T08:36:10.57Z</time>
      </trkpt>
      <trkpt lat="42.038565" lon="0.678812">
        <ele>669.00</ele>
        <time>2020-01-19T08:36:14.60Z</time>
      </trkpt>
      <trkpt lat="42.038633" lon="0.678693">
        <ele>670.00</ele>
        <time>2020-01-19T08:36:19.57Z</time>
      </trkpt>
      <trkpt lat="42.038693" lon="0.678559">
        <ele>670.00</ele>
        <time>2020-01-19T08:36:23.57Z</time>
      </trkpt>
      <trkpt lat="42.038773" lon="0.678481">
        <ele>669.10</ele>
        <time>2020-01-19T08:36:27.57Z</time>
      </trkpt>
      <trkpt lat="42.038878" lon="0.678408">
        <ele>669.00</ele>
        <time>2020-01-19T08:36:32.60Z</time>
      </trkpt>
      <trkpt lat="42.038967" lon="0.678369">
        <ele>669.00</ele>
        <time>2020-01-19T08:36:36.60Z</time>
      </trkpt>
      <trkpt lat="42.039067" lon="0.678330">
        <ele>666.85</ele>
        <time>2020-01-19T08:36:40.57Z</time>
      </trkpt>
      <trkpt lat="42.039163" lon="0.678288">
        <ele>664.00</ele>
        <time>2020-01-19T08:36:44.57Z</time>
      </trkpt>
      <trkpt lat="42.039260" lon="0.678288">
        <ele>662.00</ele>
        <time>2020-01-19T08:36:50.57Z</time>
      </trkpt>
      <trkpt lat="42.039359" lon="0.678287">
        <ele>660.00</ele>
        <time>2020-01-19T08:36:55.54Z</time>
      </trkpt>
      <trkpt lat="42.039479" lon="0.678199">
        <ele>660.00</ele>
        <time>2020-01-19T08:37:00.60Z</time>
      </trkpt>
      <trkpt lat="42.039562" lon="0.678088">
        <ele>658.00</ele>
        <time>2020-01-19T08:37:04.57Z</time>
      </trkpt>
      <trkpt lat="42.039646" lon="0.678001">
        <ele>658.00</ele>
        <time>2020-01-19T08:37:08.54Z</time>
      </trkpt>
      <trkpt lat="42.039736" lon="0.677938">
        <ele>658.00</ele>
        <time>2020-01-19T08:37:12.57Z</time>
      </trkpt>
      <trkpt lat="42.039858" lon="0.677913">
        <ele>658.00</ele>
        <time>2020-01-19T08:37:16.57Z</time>
      </trkpt>
      <trkpt lat="42.039964" lon="0.677879">
        <ele>658.00</ele>
        <time>2020-01-19T08:37:20.54Z</time>
      </trkpt>
      <trkpt lat="42.040072" lon="0.677830">
        <ele>658.00</ele>
        <time>2020-01-19T08:37:24.57Z</time>
      </trkpt>
      <trkpt lat="42.040174" lon="0.677735">
        <ele>657.00</ele>
        <time>2020-01-19T08:37:29.57Z</time>
      </trkpt>
      <trkpt lat="42.040252" lon="0.677663">
        <ele>657.00</ele>
        <time>2020-01-19T08:37:33.57Z</time>
      </trkpt>
      <trkpt lat="42.040320" lon="0.677583">
        <ele>657.00</ele>
        <time>2020-01-19T08:37:37.57Z</time>
      </trkpt>
      <trkpt lat="42.040396" lon="0.677496">
        <ele>657.00</ele>
        <time>2020-01-19T08:37:41.60Z</time>
      </trkpt>
      <trkpt lat="42.040487" lon="0.677431">
        <ele>657.00</ele>
        <time>2020-01-19T08:37:45.57Z</time>
      </trkpt>
      <trkpt lat="42.040602" lon="0.677316">
        <ele>657.00</ele>
        <time>2020-01-19T08:37:51.60Z</time>
      </trkpt>
      <trkpt lat="42.040688" lon="0.677208">
        <ele>657.00</ele>
        <time>2020-01-19T08:37:56.60Z</time>
      </trkpt>
      <trkpt lat="42.040762" lon="0.677112">
        <ele>658.00</ele>
        <time>2020-01-19T08:38:07.57Z</time>
      </trkpt>
      <trkpt lat="42.040846" lon="0.677030">
        <ele>658.30</ele>
        <time>2020-01-19T08:38:14.60Z</time>
      </trkpt>
      <trkpt lat="42.040965" lon="0.676958">
        <ele>660.00</ele>
        <time>2020-01-19T08:38:21.57Z</time>
      </trkpt>
      <trkpt lat="42.041048" lon="0.676876">
        <ele>661.00</ele>
        <time>2020-01-19T08:38:32.57Z</time>
      </trkpt>
      <trkpt lat="42.041130" lon="0.676824">
        <ele>661.00</ele>
        <time>2020-01-19T08:38:38.57Z</time>
      </trkpt>
      <trkpt lat="42.041234" lon="0.676794">
        <ele>661.00</ele>
        <time>2020-01-19T08:38:43.54Z</time>
      </trkpt>
      <trkpt lat="42.041365" lon="0.676686">
        <ele>661.00</ele>
        <time>2020-01-19T08:38:50.57Z</time>
      </trkpt>
      <trkpt lat="42.041469" lon="0.676611">
        <ele>661.00</ele>
        <time>2020-01-19T08:38:56.60Z</time>
      </trkpt>
      <trkpt lat="42.041553" lon="0.676555">
        <ele>660.00</ele>
        <time>2020-01-19T08:39:02.60Z</time>
      </trkpt>
      <trkpt lat="42.041651" lon="0.676507">
        <ele>660.00</ele>
        <time>2020-01-19T08:39:10.60Z</time>
      </trkpt>
      <trkpt lat="42.041741" lon="0.676481">
        <ele>660.00</ele>
        <time>2020-01-19T08:39:20.57Z</time>
      </trkpt>
      <trkpt lat="42.041803" lon="0.676387">
        <ele>660.00</ele>
        <time>2020-01-19T08:39:30.57Z</time>
      </trkpt>
      <trkpt lat="42.041912" lon="0.676333">
        <ele>661.00</ele>
        <time>2020-01-19T08:39:43.60Z</time>
      </trkpt>
      <trkpt lat="42.042012" lon="0.676331">
        <ele>662.00</ele>
        <time>2020-01-19T08:39:48.57Z</time>
      </trkpt>
      <trkpt lat="42.042103" lon="0.676321">
        <ele>664.00</ele>
        <time>2020-01-19T08:39:54.57Z</time>
      </trkpt>
      <trkpt lat="42.042199" lon="0.676295">
        <ele>664.00</ele>
        <time>2020-01-19T08:40:05.57Z</time>
      </trkpt>
      <trkpt lat="42.042293" lon="0.676264">
        <ele>664.00</ele>
        <time>2020-01-19T08:40:11.57Z</time>
      </trkpt>
      <trkpt lat="42.042382" lon="0.676217">
        <ele>666.00</ele>
        <time>2020-01-19T08:40:16.57Z</time>
      </trkpt>
      <trkpt lat="42.042462" lon="0.676148">
        <ele>666.00</ele>
        <time>2020-01-19T08:40:20.60Z</time>
      </trkpt>
      <trkpt lat="42.042533" lon="0.676072">
        <ele>664.00</ele>
        <time>2020-01-19T08:40:25.57Z</time>
      </trkpt>
      <trkpt lat="42.042617" lon="0.675985">
        <ele>664.00</ele>
        <time>2020-01-19T08:40:33.57Z</time>
      </trkpt>
      <trkpt lat="42.042729" lon="0.675949">
        <ele>662.00</ele>
        <time>2020-01-19T08:40:40.57Z</time>
      </trkpt>
      <trkpt lat="42.042847" lon="0.675893">
        <ele>662.00</ele>
        <time>2020-01-19T08:40:44.57Z</time>
      </trkpt>
      <trkpt lat="42.042928" lon="0.675827">
        <ele>658.00</ele>
        <time>2020-01-19T08:40:47.55Z</time>
      </trkpt>
      <trkpt lat="42.043050" lon="0.675724">
        <ele>656.00</ele>
        <time>2020-01-19T08:40:52.60Z</time>
      </trkpt>
      <trkpt lat="42.043132" lon="0.675628">
        <ele>656.00</ele>
        <time>2020-01-19T08:40:56.57Z</time>
      </trkpt>
      <trkpt lat="42.043219" lon="0.675500">
        <ele>656.00</ele>
        <time>2020-01-19T08:40:59.57Z</time>
      </trkpt>
      <trkpt lat="42.043296" lon="0.675391">
        <ele>654.00</ele>
        <time>2020-01-19T08:41:02.57Z</time>
      </trkpt>
      <trkpt lat="42.043374" lon="0.675315">
        <ele>654.00</ele>
        <time>2020-01-19T08:41:05.57Z</time>
      </trkpt>
      <trkpt lat="42.043475" lon="0.675239">
        <ele>654.00</ele>
        <time>2020-01-19T08:41:09.57Z</time>
      </trkpt>
      <trkpt lat="42.043556" lon="0.675153">
        <ele>652.00</ele>
        <time>2020-01-19T08:41:16.60Z</time>
      </trkpt>
      <trkpt lat="42.043643" lon="0.675209">
        <ele>652.00</ele>
        <time>2020-01-19T08:41:24.54Z</time>
      </trkpt>
      <trkpt lat="42.043745" lon="0.675294">
        <ele>654.00</ele>
        <time>2020-01-19T08:41:31.57Z</time>
      </trkpt>
      <trkpt lat="42.043836" lon="0.675324">
        <ele>656.00</ele>
        <time>2020-01-19T08:41:39.57Z</time>
      </trkpt>
      <trkpt lat="42.043889" lon="0.675430">
        <ele>656.00</ele>
        <time>2020-01-19T08:42:16.57Z</time>
      </trkpt>
      <trkpt lat="42.043963" lon="0.675506">
        <ele>655.00</ele>
        <time>2020-01-19T08:43:39.57Z</time>
      </trkpt>
      <trkpt lat="42.044063" lon="0.675511">
        <ele>656.00</ele>
        <time>2020-01-19T08:44:21.57Z</time>
      </trkpt>
      <trkpt lat="42.044153" lon="0.675506">
        <ele>654.00</ele>
        <time>2020-01-19T08:44:26.57Z</time>
      </trkpt>
      <trkpt lat="42.044255" lon="0.675506">
        <ele>654.00</ele>
        <time>2020-01-19T08:44:32.57Z</time>
      </trkpt>
      <trkpt lat="42.044343" lon="0.675536">
        <ele>652.00</ele>
        <time>2020-01-19T08:44:38.57Z</time>
      </trkpt>
      <trkpt lat="42.044444" lon="0.675553">
        <ele>648.71</ele>
        <time>2020-01-19T08:44:53.60Z</time>
      </trkpt>
      <trkpt lat="42.044542" lon="0.675556">
        <ele>647.00</ele>
        <time>2020-01-19T08:45:00.54Z</time>
      </trkpt>
      <trkpt lat="42.044629" lon="0.675620">
        <ele>645.12</ele>
        <time>2020-01-19T08:45:10.54Z</time>
      </trkpt>
      <trkpt lat="42.044702" lon="0.675709">
        <ele>646.00</ele>
        <time>2020-01-19T08:46:22.60Z</time>
      </trkpt>
      <trkpt lat="42.044764" lon="0.675798">
        <ele>646.00</ele>
        <time>2020-01-19T08:46:43.57Z</time>
      </trkpt>
      <trkpt lat="42.044870" lon="0.675790">
        <ele>645.00</ele>
        <time>2020-01-19T08:46:51.60Z</time>
      </trkpt>
      <trkpt lat="42.044960" lon="0.675787">
        <ele>645.00</ele>
        <time>2020-01-19T08:47:09.57Z</time>
      </trkpt>
      <trkpt lat="42.045053" lon="0.675831">
        <ele>644.00</ele>
        <time>2020-01-19T08:47:24.57Z</time>
      </trkpt>
      <trkpt lat="42.045140" lon="0.675890">
        <ele>641.60</ele>
        <time>2020-01-19T08:47:35.57Z</time>
      </trkpt>
      <trkpt lat="42.045225" lon="0.675931">
        <ele>640.00</ele>
        <time>2020-01-19T08:47:43.57Z</time>
      </trkpt>
      <trkpt lat="42.045330" lon="0.675940">
        <ele>640.00</ele>
        <time>2020-01-19T08:47:48.57Z</time>
      </trkpt>
      <trkpt lat="42.045438" lon="0.675893">
        <ele>640.00</ele>
        <time>2020-01-19T08:47:53.60Z</time>
      </trkpt>
      <trkpt lat="42.045524" lon="0.675848">
        <ele>637.00</ele>
        <time>2020-01-19T08:47:57.60Z</time>
      </trkpt>
      <trkpt lat="42.045598" lon="0.675755">
        <ele>636.92</ele>
        <time>2020-01-19T08:48:01.57Z</time>
      </trkpt>
      <trkpt lat="42.045694" lon="0.675699">
        <ele>635.00</ele>
        <time>2020-01-19T08:48:06.54Z</time>
      </trkpt>
      <trkpt lat="42.045817" lon="0.675683">
        <ele>637.00</ele>
        <time>2020-01-19T08:48:13.60Z</time>
      </trkpt>
      <trkpt lat="42.045926" lon="0.675682">
        <ele>637.00</ele>
        <time>2020-01-19T08:48:18.60Z</time>
      </trkpt>
      <trkpt lat="42.046019" lon="0.675673">
        <ele>637.00</ele>
        <time>2020-01-19T08:48:22.57Z</time>
      </trkpt>
      <trkpt lat="42.046122" lon="0.675657">
        <ele>637.00</ele>
        <time>2020-01-19T08:48:28.60Z</time>
      </trkpt>
      <trkpt lat="42.046240" lon="0.675596">
        <ele>638.00</ele>
        <time>2020-01-19T08:48:34.60Z</time>
      </trkpt>
      <trkpt lat="42.046357" lon="0.675554">
        <ele>638.00</ele>
        <time>2020-01-19T08:48:38.60Z</time>
      </trkpt>
      <trkpt lat="42.046463" lon="0.675523">
        <ele>638.00</ele>
        <time>2020-01-19T08:48:42.57Z</time>
      </trkpt>
      <trkpt lat="42.046571" lon="0.675522">
        <ele>638.00</ele>
        <time>2020-01-19T08:48:46.57Z</time>
      </trkpt>
      <trkpt lat="42.046674" lon="0.675498">
        <ele>638.00</ele>
        <time>2020-01-19T08:48:50.55Z</time>
      </trkpt>
      <trkpt lat="42.046776" lon="0.675439">
        <ele>638.00</ele>
        <time>2020-01-19T08:48:55.60Z</time>
      </trkpt>
      <trkpt lat="42.046846" lon="0.675347">
        <ele>638.00</ele>
        <time>2020-01-19T08:49:01.55Z</time>
      </trkpt>
      <trkpt lat="42.046968" lon="0.675299">
        <ele>638.00</ele>
        <time>2020-01-19T08:49:10.60Z</time>
      </trkpt>
      <trkpt lat="42.047073" lon="0.675340">
        <ele>636.00</ele>
        <time>2020-01-19T08:49:18.60Z</time>
      </trkpt>
      <trkpt lat="42.047162" lon="0.675375">
        <ele>635.93</ele>
        <time>2020-01-19T08:49:23.60Z</time>
      </trkpt>
      <trkpt lat="42.047257" lon="0.675390">
        <ele>635.00</ele>
        <time>2020-01-19T08:49:27.57Z</time>
      </trkpt>
      <trkpt lat="42.047370" lon="0.675394">
        <ele>635.00</ele>
        <time>2020-01-19T08:49:32.60Z</time>
      </trkpt>
      <trkpt lat="42.047478" lon="0.675375">
        <ele>633.00</ele>
        <time>2020-01-19T08:49:36.60Z</time>
      </trkpt>
      <trkpt lat="42.047579" lon="0.675343">
        <ele>630.48</ele>
        <time>2020-01-19T08:49:40.54Z</time>
      </trkpt>
      <trkpt lat="42.047668" lon="0.675295">
        <ele>630.00</ele>
        <time>2020-01-19T08:49:43.57Z</time>
      </trkpt>
      <trkpt lat="42.047750" lon="0.675242">
        <ele>627.00</ele>
        <time>2020-01-19T08:49:46.57Z</time>
      </trkpt>
      <trkpt lat="42.047844" lon="0.675196">
        <ele>626.00</ele>
        <time>2020-01-19T08:49:50.57Z</time>
      </trkpt>
      <trkpt lat="42.047961" lon="0.675099">
        <ele>625.75</ele>
        <time>2020-01-19T08:49:55.60Z</time>
      </trkpt>
      <trkpt lat="42.048072" lon="0.675049">
        <ele>625.00</ele>
        <time>2020-01-19T08:50:00.60Z</time>
      </trkpt>
      <trkpt lat="42.048170" lon="0.675044">
        <ele>625.00</ele>
        <time>2020-01-19T08:50:05.54Z</time>
      </trkpt>
      <trkpt lat="42.048258" lon="0.675107">
        <ele>623.00</ele>
        <time>2020-01-19T08:50:11.57Z</time>
      </trkpt>
      <trkpt lat="42.048326" lon="0.675207">
        <ele>620.00</ele>
        <time>2020-01-19T08:50:33.60Z</time>
      </trkpt>
      <trkpt lat="42.048326" lon="0.675330">
        <ele>618.00</ele>
        <time>2020-01-19T08:50:48.54Z</time>
      </trkpt>
      <trkpt lat="42.048282" lon="0.675451">
        <ele>616.00</ele>
        <time>2020-01-19T08:50:53.60Z</time>
      </trkpt>
      <trkpt lat="42.048240" lon="0.675564">
        <ele>614.10</ele>
        <time>2020-01-19T08:51:00.57Z</time>
      </trkpt>
      <trkpt lat="42.048187" lon="0.675687">
        <ele>613.00</ele>
        <time>2020-01-19T08:51:10.60Z</time>
      </trkpt>
      <trkpt lat="42.048167" lon="0.675811">
        <ele>613.00</ele>
        <time>2020-01-19T08:51:15.57Z</time>
      </trkpt>
      <trkpt lat="42.048153" lon="0.675948">
        <ele>610.00</ele>
        <time>2020-01-19T08:51:19.57Z</time>
      </trkpt>
      <trkpt lat="42.048135" lon="0.676162">
        <ele>605.00</ele>
        <time>2020-01-19T08:51:25.60Z</time>
      </trkpt>
      <trkpt lat="42.048152" lon="0.676282">
        <ele>602.00</ele>
        <time>2020-01-19T08:51:30.57Z</time>
      </trkpt>
      <trkpt lat="42.048234" lon="0.676201">
        <ele>599.00</ele>
        <time>2020-01-19T08:51:38.57Z</time>
      </trkpt>
      <trkpt lat="42.048277" lon="0.676400">
        <ele>598.00</ele>
        <time>2020-01-19T08:51:48.70Z</time>
      </trkpt>
      <trkpt lat="42.048277" lon="0.676558">
        <ele>594.00</ele>
        <time>2020-01-19T08:51:53.57Z</time>
      </trkpt>
      <trkpt lat="42.048257" lon="0.676686">
        <ele>594.00</ele>
        <time>2020-01-19T08:51:57.57Z</time>
      </trkpt>
      <trkpt lat="42.048246" lon="0.676810">
        <ele>590.00</ele>
        <time>2020-01-19T08:52:01.57Z</time>
      </trkpt>
      <trkpt lat="42.048233" lon="0.676952">
        <ele>586.00</ele>
        <time>2020-01-19T08:52:05.57Z</time>
      </trkpt>
      <trkpt lat="42.048225" lon="0.677074">
        <ele>585.95</ele>
        <time>2020-01-19T08:52:08.57Z</time>
      </trkpt>
      <trkpt lat="42.048210" lon="0.677194">
        <ele>583.00</ele>
        <time>2020-01-19T08:52:11.57Z</time>
      </trkpt>
      <trkpt lat="42.048178" lon="0.677322">
        <ele>583.00</ele>
        <time>2020-01-19T08:52:15.57Z</time>
      </trkpt>
      <trkpt lat="42.048181" lon="0.677454">
        <ele>583.00</ele>
        <time>2020-01-19T08:52:24.57Z</time>
      </trkpt>
      <trkpt lat="42.048226" lon="0.677570">
        <ele>580.00</ele>
        <time>2020-01-19T08:52:29.54Z</time>
      </trkpt>
      <trkpt lat="42.048259" lon="0.677715">
        <ele>577.00</ele>
        <time>2020-01-19T08:52:34.60Z</time>
      </trkpt>
      <trkpt lat="42.048306" lon="0.677592">
        <ele>571.00</ele>
        <time>2020-01-19T08:52:42.57Z</time>
      </trkpt>
      <trkpt lat="42.048310" lon="0.677458">
        <ele>569.00</ele>
        <time>2020-01-19T08:52:46.54Z</time>
      </trkpt>
      <trkpt lat="42.048345" lon="0.677345">
        <ele>568.00</ele>
        <time>2020-01-19T08:52:50.57Z</time>
      </trkpt>
      <trkpt lat="42.048420" lon="0.677229">
        <ele>566.00</ele>
        <time>2020-01-19T08:52:54.60Z</time>
      </trkpt>
      <trkpt lat="42.048486" lon="0.677138">
        <ele>566.00</ele>
        <time>2020-01-19T08:52:57.60Z</time>
      </trkpt>
      <trkpt lat="42.048577" lon="0.677038">
        <ele>564.00</ele>
        <time>2020-01-19T08:53:00.54Z</time>
      </trkpt>
      <trkpt lat="42.048493" lon="0.677122">
        <ele>560.00</ele>
        <time>2020-01-19T08:53:04.54Z</time>
      </trkpt>
      <trkpt lat="42.048516" lon="0.676994">
        <ele>552.00</ele>
        <time>2020-01-19T08:53:20.57Z</time>
      </trkpt>
      <trkpt lat="42.048589" lon="0.676899">
        <ele>552.00</ele>
        <time>2020-01-19T08:53:25.60Z</time>
      </trkpt>
      <trkpt lat="42.048688" lon="0.677008">
        <ele>550.00</ele>
        <time>2020-01-19T08:53:32.60Z</time>
      </trkpt>
      <trkpt lat="42.048700" lon="0.677254">
        <ele>550.00</ele>
        <time>2020-01-19T08:53:34.57Z</time>
      </trkpt>
      <trkpt lat="42.048699" lon="0.677414">
        <ele>549.90</ele>
        <time>2020-01-19T08:53:37.57Z</time>
      </trkpt>
      <trkpt lat="42.048761" lon="0.677513">
        <ele>547.00</ele>
        <time>2020-01-19T08:53:42.60Z</time>
      </trkpt>
      <trkpt lat="42.048784" lon="0.677643">
        <ele>541.40</ele>
        <time>2020-01-19T08:53:48.57Z</time>
      </trkpt>
      <trkpt lat="42.048779" lon="0.677789">
        <ele>539.00</ele>
        <time>2020-01-19T08:53:52.60Z</time>
      </trkpt>
      <trkpt lat="42.048762" lon="0.677930">
        <ele>538.06</ele>
        <time>2020-01-19T08:53:56.60Z</time>
      </trkpt>
      <trkpt lat="42.048871" lon="0.677876">
        <ele>537.00</ele>
        <time>2020-01-19T08:54:05.60Z</time>
      </trkpt>
      <trkpt lat="42.048938" lon="0.677791">
        <ele>539.00</ele>
        <time>2020-01-19T08:54:13.57Z</time>
      </trkpt>
      <trkpt lat="42.049042" lon="0.677692">
        <ele>539.09</ele>
        <time>2020-01-19T08:54:23.57Z</time>
      </trkpt>
      <trkpt lat="42.049130" lon="0.677644">
        <ele>541.00</ele>
        <time>2020-01-19T08:54:31.57Z</time>
      </trkpt>
      <trkpt lat="42.049219" lon="0.677565">
        <ele>542.00</ele>
        <time>2020-01-19T08:54:45.54Z</time>
      </trkpt>
      <trkpt lat="42.049254" lon="0.677438">
        <ele>542.00</ele>
        <time>2020-01-19T08:54:51.57Z</time>
      </trkpt>
      <trkpt lat="42.049262" lon="0.677317">
        <ele>544.00</ele>
        <time>2020-01-19T08:55:01.57Z</time>
      </trkpt>
      <trkpt lat="42.049327" lon="0.677221">
        <ele>545.00</ele>
        <time>2020-01-19T08:55:07.57Z</time>
      </trkpt>
      <trkpt lat="42.049418" lon="0.677186">
        <ele>545.00</ele>
        <time>2020-01-19T08:55:16.60Z</time>
      </trkpt>
      <trkpt lat="42.049563" lon="0.677194">
        <ele>545.00</ele>
        <time>2020-01-19T08:55:23.60Z</time>
      </trkpt>
      <trkpt lat="42.049655" lon="0.677182">
        <ele>544.00</ele>
        <time>2020-01-19T08:55:31.54Z</time>
      </trkpt>
      <trkpt lat="42.049739" lon="0.677136">
        <ele>544.04</ele>
        <time>2020-01-19T08:55:39.54Z</time>
      </trkpt>
      <trkpt lat="42.049825" lon="0.677094">
        <ele>545.00</ele>
        <time>2020-01-19T08:55:46.60Z</time>
      </trkpt>
      <trkpt lat="42.049915" lon="0.677189">
        <ele>548.00</ele>
        <time>2020-01-19T08:56:09.57Z</time>
      </trkpt>
      <trkpt lat="42.049970" lon="0.677309">
        <ele>551.00</ele>
        <time>2020-01-19T08:56:17.60Z</time>
      </trkpt>
      <trkpt lat="42.050047" lon="0.677372">
        <ele>552.00</ele>
        <time>2020-01-19T08:56:32.60Z</time>
      </trkpt>
      <trkpt lat="42.050123" lon="0.677444">
        <ele>554.00</ele>
        <time>2020-01-19T08:56:43.57Z</time>
      </trkpt>
      <trkpt lat="42.050216" lon="0.677437">
        <ele>557.00</ele>
        <time>2020-01-19T08:56:55.57Z</time>
      </trkpt>
      <trkpt lat="42.050305" lon="0.677402">
        <ele>559.00</ele>
        <time>2020-01-19T08:57:06.60Z</time>
      </trkpt>
      <trkpt lat="42.050410" lon="0.677409">
        <ele>562.00</ele>
        <time>2020-01-19T08:57:18.57Z</time>
      </trkpt>
      <trkpt lat="42.050506" lon="0.677399">
        <ele>563.00</ele>
        <time>2020-01-19T08:57:27.57Z</time>
      </trkpt>
      <trkpt lat="42.050608" lon="0.677413">
        <ele>564.00</ele>
        <time>2020-01-19T08:57:36.60Z</time>
      </trkpt>
      <trkpt lat="42.050698" lon="0.677451">
        <ele>565.00</ele>
        <time>2020-01-19T08:57:46.57Z</time>
      </trkpt>
      <trkpt lat="42.050664" lon="0.677583">
        <ele>567.00</ele>
        <time>2020-01-19T08:57:58.60Z</time>
      </trkpt>
      <trkpt lat="42.050723" lon="0.677683">
        <ele>572.00</ele>
        <time>2020-01-19T08:58:16.54Z</time>
      </trkpt>
      <trkpt lat="42.050735" lon="0.677810">
        <ele>574.00</ele>
        <time>2020-01-19T08:58:32.57Z</time>
      </trkpt>
      <trkpt lat="42.050793" lon="0.677908">
        <ele>576.00</ele>
        <time>2020-01-19T08:58:45.54Z</time>
      </trkpt>
      <trkpt lat="42.050833" lon="0.678021">
        <ele>581.00</ele>
        <time>2020-01-19T08:58:57.57Z</time>
      </trkpt>
      <trkpt lat="42.050917" lon="0.678093">
        <ele>583.00</ele>
        <time>2020-01-19T08:59:08.60Z</time>
      </trkpt>
      <trkpt lat="42.050889" lon="0.678212">
        <ele>586.00</ele>
        <time>2020-01-19T08:59:20.57Z</time>
      </trkpt>
      <trkpt lat="42.050944" lon="0.678333">
        <ele>587.15</ele>
        <time>2020-01-19T08:59:30.60Z</time>
      </trkpt>
      <trkpt lat="42.050959" lon="0.678459">
        <ele>590.00</ele>
        <time>2020-01-19T08:59:39.57Z</time>
      </trkpt>
      <trkpt lat="42.050997" lon="0.678599">
        <ele>591.00</ele>
        <time>2020-01-19T08:59:51.60Z</time>
      </trkpt>
      <trkpt lat="42.051093" lon="0.678637">
        <ele>592.00</ele>
        <time>2020-01-19T09:00:02.60Z</time>
      </trkpt>
      <trkpt lat="42.051174" lon="0.678706">
        <ele>594.00</ele>
        <time>2020-01-19T09:00:10.60Z</time>
      </trkpt>
      <trkpt lat="42.051256" lon="0.678762">
        <ele>595.12</ele>
        <time>2020-01-19T09:00:22.60Z</time>
      </trkpt>
      <trkpt lat="42.051349" lon="0.678779">
        <ele>597.00</ele>
        <time>2020-01-19T09:00:30.60Z</time>
      </trkpt>
      <trkpt lat="42.051432" lon="0.678731">
        <ele>600.00</ele>
        <time>2020-01-19T09:00:38.60Z</time>
      </trkpt>
      <trkpt lat="42.051506" lon="0.678655">
        <ele>599.00</ele>
        <time>2020-01-19T09:00:48.57Z</time>
      </trkpt>
      <trkpt lat="42.051579" lon="0.678583">
        <ele>601.00</ele>
        <time>2020-01-19T09:00:59.57Z</time>
      </trkpt>
      <trkpt lat="42.051654" lon="0.678511">
        <ele>605.00</ele>
        <time>2020-01-19T09:01:09.60Z</time>
      </trkpt>
      <trkpt lat="42.051721" lon="0.678593">
        <ele>606.00</ele>
        <time>2020-01-19T09:01:19.57Z</time>
      </trkpt>
      <trkpt lat="42.051795" lon="0.678674">
        <ele>607.00</ele>
        <time>2020-01-19T09:01:28.57Z</time>
      </trkpt>
      <trkpt lat="42.051886" lon="0.678729">
        <ele>609.00</ele>
        <time>2020-01-19T09:01:39.60Z</time>
      </trkpt>
      <trkpt lat="42.051961" lon="0.678798">
        <ele>609.00</ele>
        <time>2020-01-19T09:01:47.60Z</time>
      </trkpt>
      <trkpt lat="42.052028" lon="0.678885">
        <ele>612.00</ele>
        <time>2020-01-19T09:01:56.60Z</time>
      </trkpt>
      <trkpt lat="42.052100" lon="0.679004">
        <ele>614.00</ele>
        <time>2020-01-19T09:02:08.60Z</time>
      </trkpt>
      <trkpt lat="42.052186" lon="0.679074">
        <ele>617.00</ele>
        <time>2020-01-19T09:02:33.60Z</time>
      </trkpt>
      <trkpt lat="42.052263" lon="0.679162">
        <ele>618.28</ele>
        <time>2020-01-19T09:02:44.60Z</time>
      </trkpt>
      <trkpt lat="42.052347" lon="0.679226">
        <ele>620.00</ele>
        <time>2020-01-19T09:02:52.57Z</time>
      </trkpt>
      <trkpt lat="42.052442" lon="0.679314">
        <ele>621.00</ele>
        <time>2020-01-19T09:02:59.60Z</time>
      </trkpt>
      <trkpt lat="42.052529" lon="0.679256">
        <ele>623.00</ele>
        <time>2020-01-19T09:03:08.57Z</time>
      </trkpt>
      <trkpt lat="42.052556" lon="0.679140">
        <ele>624.00</ele>
        <time>2020-01-19T09:03:19.57Z</time>
      </trkpt>
      <trkpt lat="42.052622" lon="0.679046">
        <ele>626.00</ele>
        <time>2020-01-19T09:03:38.57Z</time>
      </trkpt>
      <trkpt lat="42.052706" lon="0.678999">
        <ele>627.00</ele>
        <time>2020-01-19T09:03:45.57Z</time>
      </trkpt>
      <trkpt lat="42.052797" lon="0.679013">
        <ele>627.00</ele>
        <time>2020-01-19T09:03:54.57Z</time>
      </trkpt>
      <trkpt lat="42.052811" lon="0.679134">
        <ele>631.00</ele>
        <time>2020-01-19T09:04:06.54Z</time>
      </trkpt>
      <trkpt lat="42.052818" lon="0.679267">
        <ele>634.00</ele>
        <time>2020-01-19T09:04:16.60Z</time>
      </trkpt>
      <trkpt lat="42.052904" lon="0.679225">
        <ele>636.00</ele>
        <time>2020-01-19T09:04:28.60Z</time>
      </trkpt>
      <trkpt lat="42.053014" lon="0.679244">
        <ele>635.00</ele>
        <time>2020-01-19T09:04:38.60Z</time>
      </trkpt>
      <trkpt lat="42.053106" lon="0.679245">
        <ele>640.00</ele>
        <time>2020-01-19T09:04:48.60Z</time>
      </trkpt>
      <trkpt lat="42.053200" lon="0.679229">
        <ele>642.00</ele>
        <time>2020-01-19T09:05:02.57Z</time>
      </trkpt>
      <trkpt lat="42.053294" lon="0.679254">
        <ele>643.00</ele>
        <time>2020-01-19T09:05:11.57Z</time>
      </trkpt>
      <trkpt lat="42.053381" lon="0.679314">
        <ele>645.00</ele>
        <time>2020-01-19T09:05:18.57Z</time>
      </trkpt>
      <trkpt lat="42.053364" lon="0.679443">
        <ele>648.00</ele>
        <time>2020-01-19T09:05:33.57Z</time>
      </trkpt>
      <trkpt lat="42.053285" lon="0.679504">
        <ele>651.00</ele>
        <time>2020-01-19T09:05:45.57Z</time>
      </trkpt>
      <trkpt lat="42.053204" lon="0.679568">
        <ele>651.00</ele>
        <time>2020-01-19T09:05:56.54Z</time>
      </trkpt>
      <trkpt lat="42.053290" lon="0.679620">
        <ele>653.00</ele>
        <time>2020-01-19T09:06:15.54Z</time>
      </trkpt>
      <trkpt lat="42.053400" lon="0.679608">
        <ele>657.17</ele>
        <time>2020-01-19T09:06:25.60Z</time>
      </trkpt>
      <trkpt lat="42.053493" lon="0.679610">
        <ele>659.00</ele>
        <time>2020-01-19T09:06:34.54Z</time>
      </trkpt>
      <trkpt lat="42.053504" lon="0.679733">
        <ele>664.00</ele>
        <time>2020-01-19T09:07:07.57Z</time>
      </trkpt>
      <trkpt lat="42.053562" lon="0.679854">
        <ele>664.02</ele>
        <time>2020-01-19T09:07:12.57Z</time>
      </trkpt>
      <trkpt lat="42.053495" lon="0.679956">
        <ele>665.00</ele>
        <time>2020-01-19T09:07:18.60Z</time>
      </trkpt>
      <trkpt lat="42.053417" lon="0.680032">
        <ele>665.13</ele>
        <time>2020-01-19T09:07:25.57Z</time>
      </trkpt>
      <trkpt lat="42.053532" lon="0.680070">
        <ele>669.00</ele>
        <time>2020-01-19T09:07:43.57Z</time>
      </trkpt>
      <trkpt lat="42.053620" lon="0.680023">
        <ele>670.00</ele>
        <time>2020-01-19T09:07:53.60Z</time>
      </trkpt>
      <trkpt lat="42.053713" lon="0.679978">
        <ele>672.52</ele>
        <time>2020-01-19T09:08:02.57Z</time>
      </trkpt>
      <trkpt lat="42.053762" lon="0.679869">
        <ele>676.00</ele>
        <time>2020-01-19T09:08:15.54Z</time>
      </trkpt>
      <trkpt lat="42.053837" lon="0.679790">
        <ele>678.00</ele>
        <time>2020-01-19T09:08:24.57Z</time>
      </trkpt>
      <trkpt lat="42.053918" lon="0.679716">
        <ele>679.00</ele>
        <time>2020-01-19T09:08:34.57Z</time>
      </trkpt>
      <trkpt lat="42.053943" lon="0.679582">
        <ele>680.00</ele>
        <time>2020-01-19T09:08:43.60Z</time>
      </trkpt>
      <trkpt lat="42.054018" lon="0.679511">
        <ele>682.00</ele>
        <time>2020-01-19T09:08:52.57Z</time>
      </trkpt>
      <trkpt lat="42.054086" lon="0.679421">
        <ele>682.00</ele>
        <time>2020-01-19T09:09:01.57Z</time>
      </trkpt>
      <trkpt lat="42.054146" lon="0.679316">
        <ele>685.02</ele>
        <time>2020-01-19T09:09:10.60Z</time>
      </trkpt>
      <trkpt lat="42.054187" lon="0.679193">
        <ele>688.00</ele>
        <time>2020-01-19T09:09:19.57Z</time>
      </trkpt>
      <trkpt lat="42.054198" lon="0.679071">
        <ele>688.00</ele>
        <time>2020-01-19T09:09:28.57Z</time>
      </trkpt>
      <trkpt lat="42.054222" lon="0.678913">
        <ele>688.00</ele>
        <time>2020-01-19T09:09:37.57Z</time>
      </trkpt>
      <trkpt lat="42.054285" lon="0.678805">
        <ele>690.00</ele>
        <time>2020-01-19T09:09:44.60Z</time>
      </trkpt>
      <trkpt lat="42.054351" lon="0.678713">
        <ele>692.00</ele>
        <time>2020-01-19T09:09:53.54Z</time>
      </trkpt>
      <trkpt lat="42.054415" lon="0.678610">
        <ele>693.00</ele>
        <time>2020-01-19T09:10:01.54Z</time>
      </trkpt>
      <trkpt lat="42.054498" lon="0.678550">
        <ele>694.00</ele>
        <time>2020-01-19T09:10:08.57Z</time>
      </trkpt>
      <trkpt lat="42.054556" lon="0.678446">
        <ele>696.00</ele>
        <time>2020-01-19T09:10:21.57Z</time>
      </trkpt>
      <trkpt lat="42.054591" lon="0.678334">
        <ele>697.00</ele>
        <time>2020-01-19T09:10:28.57Z</time>
      </trkpt>
      <trkpt lat="42.054639" lon="0.678217">
        <ele>697.00</ele>
        <time>2020-01-19T09:10:33.57Z</time>
      </trkpt>
      <trkpt lat="42.054637" lon="0.678081">
        <ele>698.00</ele>
        <time>2020-01-19T09:10:43.60Z</time>
      </trkpt>
      <trkpt lat="42.054714" lon="0.677952">
        <ele>700.00</ele>
        <time>2020-01-19T09:10:54.60Z</time>
      </trkpt>
      <trkpt lat="42.054796" lon="0.677881">
        <ele>703.00</ele>
        <time>2020-01-19T09:11:05.57Z</time>
      </trkpt>
      <trkpt lat="42.054706" lon="0.677955">
        <ele>709.00</ele>
        <time>2020-01-19T09:11:35.57Z</time>
      </trkpt>
      <trkpt lat="42.054649" lon="0.678049">
        <ele>710.00</ele>
        <time>2020-01-19T09:11:52.57Z</time>
      </trkpt>
      <trkpt lat="42.054587" lon="0.678151">
        <ele>712.00</ele>
        <time>2020-01-19T09:12:00.60Z</time>
      </trkpt>
      <trkpt lat="42.054547" lon="0.678269">
        <ele>714.00</ele>
        <time>2020-01-19T09:12:09.54Z</time>
      </trkpt>
      <trkpt lat="42.054523" lon="0.678400">
        <ele>715.15</ele>
        <time>2020-01-19T09:12:19.57Z</time>
      </trkpt>
      <trkpt lat="42.054507" lon="0.678533">
        <ele>718.00</ele>
        <time>2020-01-19T09:12:29.57Z</time>
      </trkpt>
      <trkpt lat="42.054505" lon="0.678655">
        <ele>718.01</ele>
        <time>2020-01-19T09:12:39.57Z</time>
      </trkpt>
      <trkpt lat="42.054496" lon="0.678790">
        <ele>722.00</ele>
        <time>2020-01-19T09:12:53.60Z</time>
      </trkpt>
      <trkpt lat="42.054494" lon="0.678929">
        <ele>722.00</ele>
        <time>2020-01-19T09:13:02.60Z</time>
      </trkpt>
      <trkpt lat="42.054477" lon="0.679062">
        <ele>723.00</ele>
        <time>2020-01-19T09:13:12.60Z</time>
      </trkpt>
      <trkpt lat="42.054456" lon="0.679185">
        <ele>724.00</ele>
        <time>2020-01-19T09:13:22.57Z</time>
      </trkpt>
      <trkpt lat="42.054418" lon="0.679303">
        <ele>727.00</ele>
        <time>2020-01-19T09:13:30.60Z</time>
      </trkpt>
      <trkpt lat="42.054441" lon="0.679499">
        <ele>728.00</ele>
        <time>2020-01-19T09:13:47.60Z</time>
      </trkpt>
      <trkpt lat="42.054475" lon="0.679628">
        <ele>728.00</ele>
        <time>2020-01-19T09:13:51.57Z</time>
      </trkpt>
      <trkpt lat="42.054490" lon="0.679775">
        <ele>729.70</ele>
        <time>2020-01-19T09:13:57.57Z</time>
      </trkpt>
      <trkpt lat="42.054511" lon="0.679901">
        <ele>732.00</ele>
        <time>2020-01-19T09:14:06.57Z</time>
      </trkpt>
      <trkpt lat="42.054520" lon="0.680037">
        <ele>732.00</ele>
        <time>2020-01-19T09:14:15.60Z</time>
      </trkpt>
      <trkpt lat="42.054576" lon="0.680140">
        <ele>735.00</ele>
        <time>2020-01-19T09:14:24.60Z</time>
      </trkpt>
      <trkpt lat="42.054674" lon="0.680125">
        <ele>735.03</ele>
        <time>2020-01-19T09:14:34.60Z</time>
      </trkpt>
      <trkpt lat="42.054706" lon="0.680009">
        <ele>738.00</ele>
        <time>2020-01-19T09:14:41.57Z</time>
      </trkpt>
      <trkpt lat="42.054725" lon="0.679886">
        <ele>739.00</ele>
        <time>2020-01-19T09:14:52.57Z</time>
      </trkpt>
      <trkpt lat="42.054754" lon="0.679727">
        <ele>739.00</ele>
        <time>2020-01-19T09:15:04.57Z</time>
      </trkpt>
      <trkpt lat="42.054800" lon="0.679605">
        <ele>739.00</ele>
        <time>2020-01-19T09:15:13.57Z</time>
      </trkpt>
      <trkpt lat="42.054866" lon="0.679487">
        <ele>739.00</ele>
        <time>2020-01-19T09:15:23.57Z</time>
      </trkpt>
      <trkpt lat="42.054926" lon="0.679393">
        <ele>740.00</ele>
        <time>2020-01-19T09:15:30.57Z</time>
      </trkpt>
      <trkpt lat="42.054994" lon="0.679302">
        <ele>742.00</ele>
        <time>2020-01-19T09:15:39.60Z</time>
      </trkpt>
      <trkpt lat="42.055036" lon="0.679194">
        <ele>742.00</ele>
        <time>2020-01-19T09:15:48.60Z</time>
      </trkpt>
      <trkpt lat="42.055072" lon="0.679082">
        <ele>743.00</ele>
        <time>2020-01-19T09:15:56.60Z</time>
      </trkpt>
      <trkpt lat="42.055113" lon="0.678965">
        <ele>743.00</ele>
        <time>2020-01-19T09:16:03.57Z</time>
      </trkpt>
      <trkpt lat="42.055125" lon="0.678811">
        <ele>745.00</ele>
        <time>2020-01-19T09:16:11.60Z</time>
      </trkpt>
      <trkpt lat="42.055162" lon="0.678686">
        <ele>747.00</ele>
        <time>2020-01-19T09:16:18.57Z</time>
      </trkpt>
      <trkpt lat="42.055206" lon="0.678574">
        <ele>747.00</ele>
        <time>2020-01-19T09:16:25.57Z</time>
      </trkpt>
      <trkpt lat="42.055254" lon="0.678453">
        <ele>749.00</ele>
        <time>2020-01-19T09:16:33.60Z</time>
      </trkpt>
      <trkpt lat="42.055316" lon="0.678357">
        <ele>751.00</ele>
        <time>2020-01-19T09:16:48.57Z</time>
      </trkpt>
      <trkpt lat="42.055391" lon="0.678288">
        <ele>752.00</ele>
        <time>2020-01-19T09:16:54.57Z</time>
      </trkpt>
      <trkpt lat="42.055468" lon="0.678218">
        <ele>753.69</ele>
        <time>2020-01-19T09:17:02.54Z</time>
      </trkpt>
      <trkpt lat="42.055562" lon="0.678156">
        <ele>754.00</ele>
        <time>2020-01-19T09:17:10.60Z</time>
      </trkpt>
      <trkpt lat="42.055626" lon="0.678059">
        <ele>756.00</ele>
        <time>2020-01-19T09:17:16.57Z</time>
      </trkpt>
      <trkpt lat="42.055679" lon="0.677951">
        <ele>758.00</ele>
        <time>2020-01-19T09:17:25.57Z</time>
      </trkpt>
      <trkpt lat="42.055746" lon="0.677865">
        <ele>758.07</ele>
        <time>2020-01-19T09:17:35.57Z</time>
      </trkpt>
      <trkpt lat="42.055802" lon="0.677735">
        <ele>760.83</ele>
        <time>2020-01-19T09:17:44.59Z</time>
      </trkpt>
      <trkpt lat="42.055855" lon="0.677632">
        <ele>761.00</ele>
        <time>2020-01-19T09:17:53.57Z</time>
      </trkpt>
      <trkpt lat="42.055887" lon="0.677515">
        <ele>764.00</ele>
        <time>2020-01-19T09:18:01.57Z</time>
      </trkpt>
      <trkpt lat="42.055952" lon="0.677392">
        <ele>764.00</ele>
        <time>2020-01-19T09:18:10.60Z</time>
      </trkpt>
      <trkpt lat="42.056012" lon="0.677282">
        <ele>765.00</ele>
        <time>2020-01-19T09:18:19.60Z</time>
      </trkpt>
      <trkpt lat="42.056063" lon="0.677178">
        <ele>766.00</ele>
        <time>2020-01-19T09:18:27.54Z</time>
      </trkpt>
      <trkpt lat="42.056089" lon="0.677062">
        <ele>767.00</ele>
        <time>2020-01-19T09:18:38.57Z</time>
      </trkpt>
      <trkpt lat="42.056168" lon="0.676963">
        <ele>766.00</ele>
        <time>2020-01-19T09:18:47.60Z</time>
      </trkpt>
      <trkpt lat="42.056240" lon="0.676878">
        <ele>768.00</ele>
        <time>2020-01-19T09:18:53.57Z</time>
      </trkpt>
      <trkpt lat="42.056285" lon="0.676742">
        <ele>769.00</ele>
        <time>2020-01-19T09:19:02.60Z</time>
      </trkpt>
      <trkpt lat="42.056350" lon="0.676623">
        <ele>769.00</ele>
        <time>2020-01-19T09:19:11.57Z</time>
      </trkpt>
      <trkpt lat="42.056412" lon="0.676505">
        <ele>770.00</ele>
        <time>2020-01-19T09:19:20.60Z</time>
      </trkpt>
      <trkpt lat="42.056470" lon="0.676382">
        <ele>770.18</ele>
        <time>2020-01-19T09:19:29.60Z</time>
      </trkpt>
      <trkpt lat="42.056580" lon="0.676285">
        <ele>771.00</ele>
        <time>2020-01-19T09:19:44.57Z</time>
      </trkpt>
      <trkpt lat="42.056669" lon="0.676254">
        <ele>771.00</ele>
        <time>2020-01-19T09:19:55.57Z</time>
      </trkpt>
      <trkpt lat="42.056760" lon="0.676253">
        <ele>771.00</ele>
        <time>2020-01-19T09:20:01.57Z</time>
      </trkpt>
      <trkpt lat="42.056847" lon="0.676207">
        <ele>769.00</ele>
        <time>2020-01-19T09:20:11.54Z</time>
      </trkpt>
      <trkpt lat="42.056923" lon="0.676103">
        <ele>769.00</ele>
        <time>2020-01-19T09:20:18.59Z</time>
      </trkpt>
      <trkpt lat="42.056993" lon="0.675995">
        <ele>771.00</ele>
        <time>2020-01-19T09:20:23.60Z</time>
      </trkpt>
      <trkpt lat="42.057038" lon="0.675874">
        <ele>771.81</ele>
        <time>2020-01-19T09:20:32.54Z</time>
      </trkpt>
      <trkpt lat="42.057101" lon="0.675747">
        <ele>772.00</ele>
        <time>2020-01-19T09:20:40.57Z</time>
      </trkpt>
      <trkpt lat="42.057141" lon="0.675635">
        <ele>773.00</ele>
        <time>2020-01-19T09:20:55.57Z</time>
      </trkpt>
      <trkpt lat="42.057221" lon="0.675575">
        <ele>773.00</ele>
        <time>2020-01-19T09:21:08.57Z</time>
      </trkpt>
      <trkpt lat="42.057340" lon="0.675648">
        <ele>772.00</ele>
        <time>2020-01-19T09:21:23.57Z</time>
      </trkpt>
      <trkpt lat="42.057418" lon="0.675720">
        <ele>770.00</ele>
        <time>2020-01-19T09:21:29.57Z</time>
      </trkpt>
      <trkpt lat="42.057513" lon="0.675753">
        <ele>767.00</ele>
        <time>2020-01-19T09:21:34.60Z</time>
      </trkpt>
      <trkpt lat="42.057616" lon="0.675752">
        <ele>767.00</ele>
        <time>2020-01-19T09:21:39.60Z</time>
      </trkpt>
      <trkpt lat="42.057737" lon="0.675670">
        <ele>762.74</ele>
        <time>2020-01-19T09:21:45.59Z</time>
      </trkpt>
      <trkpt lat="42.057826" lon="0.675620">
        <ele>760.79</ele>
        <time>2020-01-19T09:21:49.57Z</time>
      </trkpt>
      <trkpt lat="42.057932" lon="0.675639">
        <ele>759.00</ele>
        <time>2020-01-19T09:21:53.54Z</time>
      </trkpt>
      <trkpt lat="42.058039" lon="0.675724">
        <ele>759.00</ele>
        <time>2020-01-19T09:21:59.57Z</time>
      </trkpt>
      <trkpt lat="42.058130" lon="0.675748">
        <ele>758.00</ele>
        <time>2020-01-19T09:22:04.54Z</time>
      </trkpt>
      <trkpt lat="42.058221" lon="0.675760">
        <ele>755.09</ele>
        <time>2020-01-19T09:22:11.57Z</time>
      </trkpt>
      <trkpt lat="42.058315" lon="0.675726">
        <ele>755.00</ele>
        <time>2020-01-19T09:22:21.60Z</time>
      </trkpt>
      <trkpt lat="42.058403" lon="0.675667">
        <ele>754.89</ele>
        <time>2020-01-19T09:22:25.57Z</time>
      </trkpt>
      <trkpt lat="42.058489" lon="0.675603">
        <ele>754.00</ele>
        <time>2020-01-19T09:22:30.57Z</time>
      </trkpt>
      <trkpt lat="42.058603" lon="0.675493">
        <ele>753.81</ele>
        <time>2020-01-19T09:22:36.57Z</time>
      </trkpt>
      <trkpt lat="42.058707" lon="0.675453">
        <ele>753.00</ele>
        <time>2020-01-19T09:22:42.54Z</time>
      </trkpt>
      <trkpt lat="42.058813" lon="0.675449">
        <ele>753.00</ele>
        <time>2020-01-19T09:22:48.54Z</time>
      </trkpt>
      <trkpt lat="42.058918" lon="0.675469">
        <ele>753.00</ele>
        <time>2020-01-19T09:22:52.57Z</time>
      </trkpt>
      <trkpt lat="42.059027" lon="0.675497">
        <ele>749.54</ele>
        <time>2020-01-19T09:22:56.54Z</time>
      </trkpt>
      <trkpt lat="42.059170" lon="0.675495">
        <ele>749.00</ele>
        <time>2020-01-19T09:23:02.57Z</time>
      </trkpt>
      <trkpt lat="42.059265" lon="0.675448">
        <ele>745.00</ele>
        <time>2020-01-19T09:23:05.57Z</time>
      </trkpt>
      <trkpt lat="42.059350" lon="0.675367">
        <ele>745.00</ele>
        <time>2020-01-19T09:23:09.57Z</time>
      </trkpt>
      <trkpt lat="42.059444" lon="0.675295">
        <ele>743.00</ele>
        <time>2020-01-19T09:23:13.60Z</time>
      </trkpt>
      <trkpt lat="42.059532" lon="0.675229">
        <ele>742.00</ele>
        <time>2020-01-19T09:23:17.57Z</time>
      </trkpt>
      <trkpt lat="42.059645" lon="0.675182">
        <ele>740.00</ele>
        <time>2020-01-19T09:23:21.55Z</time>
      </trkpt>
      <trkpt lat="42.059747" lon="0.675176">
        <ele>740.00</ele>
        <time>2020-01-19T09:23:25.57Z</time>
      </trkpt>
      <trkpt lat="42.059827" lon="0.675232">
        <ele>740.00</ele>
        <time>2020-01-19T09:23:30.57Z</time>
      </trkpt>
      <trkpt lat="42.059917" lon="0.675267">
        <ele>740.00</ele>
        <time>2020-01-19T09:23:34.57Z</time>
      </trkpt>
      <trkpt lat="42.060017" lon="0.675273">
        <ele>740.00</ele>
        <time>2020-01-19T09:23:38.60Z</time>
      </trkpt>
      <trkpt lat="42.060123" lon="0.675228">
        <ele>740.00</ele>
        <time>2020-01-19T09:23:42.60Z</time>
      </trkpt>
      <trkpt lat="42.060223" lon="0.675158">
        <ele>740.00</ele>
        <time>2020-01-19T09:23:46.54Z</time>
      </trkpt>
      <trkpt lat="42.060329" lon="0.675059">
        <ele>740.00</ele>
        <time>2020-01-19T09:23:51.60Z</time>
      </trkpt>
      <trkpt lat="42.060479" lon="0.674990">
        <ele>740.00</ele>
        <time>2020-01-19T09:23:58.57Z</time>
      </trkpt>
      <trkpt lat="42.060566" lon="0.674939">
        <ele>740.00</ele>
        <time>2020-01-19T09:24:02.57Z</time>
      </trkpt>
      <trkpt lat="42.060664" lon="0.674908">
        <ele>740.00</ele>
        <time>2020-01-19T09:24:07.57Z</time>
      </trkpt>
      <trkpt lat="42.060742" lon="0.674832">
        <ele>740.00</ele>
        <time>2020-01-19T09:24:38.57Z</time>
      </trkpt>
      <trkpt lat="42.060830" lon="0.674802">
        <ele>740.00</ele>
        <time>2020-01-19T09:25:12.57Z</time>
      </trkpt>
      <trkpt lat="42.060922" lon="0.674761">
        <ele>739.00</ele>
        <time>2020-01-19T09:25:35.55Z</time>
      </trkpt>
      <trkpt lat="42.061005" lon="0.674821">
        <ele>739.00</ele>
        <time>2020-01-19T09:25:49.54Z</time>
      </trkpt>
      <trkpt lat="42.061080" lon="0.674892">
        <ele>736.00</ele>
        <time>2020-01-19T09:26:05.57Z</time>
      </trkpt>
      <trkpt lat="42.061148" lon="0.674990">
        <ele>736.00</ele>
        <time>2020-01-19T09:26:18.57Z</time>
      </trkpt>
      <trkpt lat="42.061204" lon="0.675107">
        <ele>735.00</ele>
        <time>2020-01-19T09:26:23.54Z</time>
      </trkpt>
      <trkpt lat="42.061214" lon="0.675242">
        <ele>734.86</ele>
        <time>2020-01-19T09:26:29.60Z</time>
      </trkpt>
      <trkpt lat="42.061200" lon="0.675370">
        <ele>734.00</ele>
        <time>2020-01-19T09:26:34.57Z</time>
      </trkpt>
      <trkpt lat="42.061226" lon="0.675488">
        <ele>734.00</ele>
        <time>2020-01-19T09:26:39.57Z</time>
      </trkpt>
      <trkpt lat="42.061222" lon="0.675614">
        <ele>734.00</ele>
        <time>2020-01-19T09:26:44.57Z</time>
      </trkpt>
      <trkpt lat="42.061200" lon="0.675750">
        <ele>732.00</ele>
        <time>2020-01-19T09:26:49.57Z</time>
      </trkpt>
      <trkpt lat="42.061172" lon="0.675870">
        <ele>732.00</ele>
        <time>2020-01-19T09:26:54.60Z</time>
      </trkpt>
      <trkpt lat="42.061116" lon="0.676006">
        <ele>731.00</ele>
        <time>2020-01-19T09:27:02.57Z</time>
      </trkpt>
      <trkpt lat="42.061039" lon="0.676072">
        <ele>729.00</ele>
        <time>2020-01-19T09:27:06.54Z</time>
      </trkpt>
      <trkpt lat="42.061005" lon="0.676209">
        <ele>729.00</ele>
        <time>2020-01-19T09:27:10.57Z</time>
      </trkpt>
      <trkpt lat="42.060983" lon="0.676378">
        <ele>729.00</ele>
        <time>2020-01-19T09:27:15.60Z</time>
      </trkpt>
      <trkpt lat="42.061003" lon="0.676510">
        <ele>729.00</ele>
        <time>2020-01-19T09:27:21.57Z</time>
      </trkpt>
      <trkpt lat="42.061034" lon="0.676647">
        <ele>729.00</ele>
        <time>2020-01-19T09:27:27.57Z</time>
      </trkpt>
      <trkpt lat="42.061050" lon="0.676770">
        <ele>730.21</ele>
        <time>2020-01-19T09:27:36.57Z</time>
      </trkpt>
      <trkpt lat="42.061018" lon="0.676903">
        <ele>731.00</ele>
        <time>2020-01-19T09:27:41.54Z</time>
      </trkpt>
      <trkpt lat="42.060965" lon="0.677035">
        <ele>731.00</ele>
        <time>2020-01-19T09:27:45.57Z</time>
      </trkpt>
      <trkpt lat="42.060901" lon="0.677130">
        <ele>731.00</ele>
        <time>2020-01-19T09:27:50.54Z</time>
      </trkpt>
      <trkpt lat="42.060832" lon="0.677210">
        <ele>731.00</ele>
        <time>2020-01-19T09:27:54.57Z</time>
      </trkpt>
      <trkpt lat="42.060731" lon="0.677326">
        <ele>730.00</ele>
        <time>2020-01-19T09:28:01.60Z</time>
      </trkpt>
      <trkpt lat="42.060588" lon="0.677526">
        <ele>728.00</ele>
        <time>2020-01-19T09:28:08.63Z</time>
      </trkpt>
      <trkpt lat="42.060546" lon="0.677659">
        <ele>728.00</ele>
        <time>2020-01-19T09:28:12.57Z</time>
      </trkpt>
      <trkpt lat="42.060509" lon="0.677778">
        <ele>728.00</ele>
        <time>2020-01-19T09:28:15.57Z</time>
      </trkpt>
      <trkpt lat="42.060500" lon="0.677913">
        <ele>727.00</ele>
        <time>2020-01-19T09:28:20.57Z</time>
      </trkpt>
      <trkpt lat="42.060525" lon="0.678059">
        <ele>725.02</ele>
        <time>2020-01-19T09:28:27.60Z</time>
      </trkpt>
      <trkpt lat="42.060613" lon="0.678118">
        <ele>725.00</ele>
        <time>2020-01-19T09:28:38.54Z</time>
      </trkpt>
      <trkpt lat="42.060716" lon="0.678134">
        <ele>725.00</ele>
        <time>2020-01-19T09:28:42.60Z</time>
      </trkpt>
      <trkpt lat="42.060825" lon="0.678147">
        <ele>725.88</ele>
        <time>2020-01-19T09:28:47.59Z</time>
      </trkpt>
      <trkpt lat="42.060924" lon="0.678144">
        <ele>726.00</ele>
        <time>2020-01-19T09:28:52.57Z</time>
      </trkpt>
      <trkpt lat="42.061021" lon="0.678143">
        <ele>725.89</ele>
        <time>2020-01-19T09:28:58.54Z</time>
      </trkpt>
      <trkpt lat="42.061110" lon="0.678098">
        <ele>725.00</ele>
        <time>2020-01-19T09:29:03.60Z</time>
      </trkpt>
      <trkpt lat="42.061205" lon="0.678081">
        <ele>722.00</ele>
        <time>2020-01-19T09:29:08.57Z</time>
      </trkpt>
      <trkpt lat="42.061325" lon="0.678003">
        <ele>722.00</ele>
        <time>2020-01-19T09:29:14.57Z</time>
      </trkpt>
      <trkpt lat="42.061421" lon="0.677959">
        <ele>718.00</ele>
        <time>2020-01-19T09:29:19.57Z</time>
      </trkpt>
      <trkpt lat="42.061517" lon="0.677925">
        <ele>715.00</ele>
        <time>2020-01-19T09:29:24.54Z</time>
      </trkpt>
      <trkpt lat="42.061645" lon="0.677915">
        <ele>712.10</ele>
        <time>2020-01-19T09:29:30.60Z</time>
      </trkpt>
      <trkpt lat="42.061752" lon="0.677918">
        <ele>711.00</ele>
        <time>2020-01-19T09:29:34.57Z</time>
      </trkpt>
      <trkpt lat="42.061854" lon="0.678000">
        <ele>710.00</ele>
        <time>2020-01-19T09:29:40.60Z</time>
      </trkpt>
      <trkpt lat="42.061899" lon="0.678110">
        <ele>709.00</ele>
        <time>2020-01-19T09:29:45.67Z</time>
      </trkpt>
      <trkpt lat="42.062021" lon="0.678091">
        <ele>709.00</ele>
        <time>2020-01-19T09:29:49.57Z</time>
      </trkpt>
      <trkpt lat="42.062102" lon="0.677998">
        <ele>706.00</ele>
        <time>2020-01-19T09:29:53.60Z</time>
      </trkpt>
      <trkpt lat="42.062179" lon="0.677864">
        <ele>703.00</ele>
        <time>2020-01-19T09:29:59.57Z</time>
      </trkpt>
      <trkpt lat="42.062227" lon="0.677756">
        <ele>699.00</ele>
        <time>2020-01-19T09:30:04.54Z</time>
      </trkpt>
      <trkpt lat="42.062294" lon="0.677673">
        <ele>694.15</ele>
        <time>2020-01-19T09:30:11.54Z</time>
      </trkpt>
      <trkpt lat="42.062376" lon="0.677616">
        <ele>691.10</ele>
        <time>2020-01-19T09:30:21.57Z</time>
      </trkpt>
      <trkpt lat="42.062474" lon="0.677600">
        <ele>689.00</ele>
        <time>2020-01-19T09:30:29.57Z</time>
      </trkpt>
      <trkpt lat="42.062594" lon="0.677484">
        <ele>686.00</ele>
        <time>2020-01-19T09:30:37.60Z</time>
      </trkpt>
      <trkpt lat="42.062707" lon="0.677319">
        <ele>685.00</ele>
        <time>2020-01-19T09:30:43.57Z</time>
      </trkpt>
      <trkpt lat="42.062822" lon="0.677189">
        <ele>683.00</ele>
        <time>2020-01-19T09:30:47.60Z</time>
      </trkpt>
      <trkpt lat="42.062961" lon="0.677105">
        <ele>681.00</ele>
        <time>2020-01-19T09:30:52.57Z</time>
      </trkpt>
      <trkpt lat="42.063058" lon="0.677060">
        <ele>679.33</ele>
        <time>2020-01-19T09:30:58.60Z</time>
      </trkpt>
      <trkpt lat="42.063198" lon="0.677057">
        <ele>678.81</ele>
        <time>2020-01-19T09:31:02.57Z</time>
      </trkpt>
      <trkpt lat="42.063297" lon="0.677052">
        <ele>677.00</ele>
        <time>2020-01-19T09:31:05.57Z</time>
      </trkpt>
      <trkpt lat="42.063388" lon="0.677064">
        <ele>677.00</ele>
        <time>2020-01-19T09:31:09.54Z</time>
      </trkpt>
      <trkpt lat="42.063480" lon="0.677117">
        <ele>676.03</ele>
        <time>2020-01-19T09:31:20.57Z</time>
      </trkpt>
      <trkpt lat="42.063571" lon="0.677178">
        <ele>677.00</ele>
        <time>2020-01-19T09:31:25.57Z</time>
      </trkpt>
      <trkpt lat="42.063658" lon="0.677242">
        <ele>677.00</ele>
        <time>2020-01-19T09:31:30.57Z</time>
      </trkpt>
      <trkpt lat="42.063787" lon="0.677366">
        <ele>676.00</ele>
        <time>2020-01-19T09:31:36.57Z</time>
      </trkpt>
      <trkpt lat="42.063876" lon="0.677457">
        <ele>676.00</ele>
        <time>2020-01-19T09:31:41.54Z</time>
      </trkpt>
      <trkpt lat="42.064026" lon="0.677719">
        <ele>676.00</ele>
        <time>2020-01-19T09:31:50.57Z</time>
      </trkpt>
      <trkpt lat="42.064092" lon="0.677829">
        <ele>673.00</ele>
        <time>2020-01-19T09:31:53.57Z</time>
      </trkpt>
      <trkpt lat="42.064160" lon="0.677962">
        <ele>671.83</ele>
        <time>2020-01-19T09:31:56.57Z</time>
      </trkpt>
      <trkpt lat="42.064218" lon="0.678146">
        <ele>671.00</ele>
        <time>2020-01-19T09:32:00.57Z</time>
      </trkpt>
      <trkpt lat="42.064252" lon="0.678303">
        <ele>671.00</ele>
        <time>2020-01-19T09:32:03.57Z</time>
      </trkpt>
      <trkpt lat="42.064298" lon="0.678469">
        <ele>670.00</ele>
        <time>2020-01-19T09:32:06.57Z</time>
      </trkpt>
      <trkpt lat="42.064333" lon="0.678657">
        <ele>670.00</ele>
        <time>2020-01-19T09:32:10.57Z</time>
      </trkpt>
      <trkpt lat="42.064398" lon="0.678776">
        <ele>668.00</ele>
        <time>2020-01-19T09:32:16.60Z</time>
      </trkpt>
      <trkpt lat="42.064514" lon="0.678828">
        <ele>667.00</ele>
        <time>2020-01-19T09:32:24.57Z</time>
      </trkpt>
      <trkpt lat="42.064635" lon="0.678861">
        <ele>668.00</ele>
        <time>2020-01-19T09:32:36.60Z</time>
      </trkpt>
      <trkpt lat="42.064749" lon="0.678815">
        <ele>668.00</ele>
        <time>2020-01-19T09:32:41.60Z</time>
      </trkpt>
      <trkpt lat="42.064854" lon="0.678776">
        <ele>668.00</ele>
        <time>2020-01-19T09:32:46.57Z</time>
      </trkpt>
      <trkpt lat="42.064944" lon="0.678754">
        <ele>665.32</ele>
        <time>2020-01-19T09:32:51.57Z</time>
      </trkpt>
      <trkpt lat="42.065046" lon="0.678694">
        <ele>664.48</ele>
        <time>2020-01-19T09:32:57.60Z</time>
      </trkpt>
      <trkpt lat="42.065148" lon="0.678640">
        <ele>662.00</ele>
        <time>2020-01-19T09:33:02.60Z</time>
      </trkpt>
      <trkpt lat="42.065244" lon="0.678634">
        <ele>659.00</ele>
        <time>2020-01-19T09:33:07.60Z</time>
      </trkpt>
      <trkpt lat="42.065357" lon="0.678626">
        <ele>657.34</ele>
        <time>2020-01-19T09:33:12.57Z</time>
      </trkpt>
      <trkpt lat="42.065459" lon="0.678628">
        <ele>657.00</ele>
        <time>2020-01-19T09:33:16.60Z</time>
      </trkpt>
      <trkpt lat="42.065605" lon="0.678646">
        <ele>653.00</ele>
        <time>2020-01-19T09:33:22.57Z</time>
      </trkpt>
      <trkpt lat="42.065695" lon="0.678658">
        <ele>652.00</ele>
        <time>2020-01-19T09:33:30.57Z</time>
      </trkpt>
      <trkpt lat="42.065821" lon="0.678601">
        <ele>649.10</ele>
        <time>2020-01-19T09:33:37.60Z</time>
      </trkpt>
      <trkpt lat="42.065920" lon="0.678544">
        <ele>647.00</ele>
        <time>2020-01-19T09:33:42.60Z</time>
      </trkpt>
      <trkpt lat="42.066003" lon="0.678482">
        <ele>645.32</ele>
        <time>2020-01-19T09:33:46.57Z</time>
      </trkpt>
      <trkpt lat="42.066103" lon="0.678417">
        <ele>644.00</ele>
        <time>2020-01-19T09:33:50.54Z</time>
      </trkpt>
      <trkpt lat="42.066176" lon="0.678343">
        <ele>642.00</ele>
        <time>2020-01-19T09:33:55.54Z</time>
      </trkpt>
      <trkpt lat="42.066303" lon="0.678279">
        <ele>640.00</ele>
        <time>2020-01-19T09:34:00.60Z</time>
      </trkpt>
      <trkpt lat="42.066400" lon="0.678236">
        <ele>637.00</ele>
        <time>2020-01-19T09:34:05.57Z</time>
      </trkpt>
      <trkpt lat="42.066489" lon="0.678210">
        <ele>633.65</ele>
        <time>2020-01-19T09:34:10.57Z</time>
      </trkpt>
      <trkpt lat="42.066616" lon="0.678208">
        <ele>631.00</ele>
        <time>2020-01-19T09:34:16.60Z</time>
      </trkpt>
      <trkpt lat="42.066719" lon="0.678221">
        <ele>631.00</ele>
        <time>2020-01-19T09:34:21.57Z</time>
      </trkpt>
      <trkpt lat="42.066818" lon="0.678206">
        <ele>627.00</ele>
        <time>2020-01-19T09:34:27.54Z</time>
      </trkpt>
      <trkpt lat="42.066944" lon="0.678233">
        <ele>624.00</ele>
        <time>2020-01-19T09:34:33.57Z</time>
      </trkpt>
      <trkpt lat="42.067044" lon="0.678228">
        <ele>622.00</ele>
        <time>2020-01-19T09:34:37.57Z</time>
      </trkpt>
      <trkpt lat="42.067152" lon="0.678241">
        <ele>619.00</ele>
        <time>2020-01-19T09:34:42.57Z</time>
      </trkpt>
      <trkpt lat="42.067241" lon="0.678229">
        <ele>617.00</ele>
        <time>2020-01-19T09:34:45.57Z</time>
      </trkpt>
      <trkpt lat="42.067345" lon="0.678188">
        <ele>614.00</ele>
        <time>2020-01-19T09:34:49.54Z</time>
      </trkpt>
      <trkpt lat="42.067439" lon="0.678150">
        <ele>613.00</ele>
        <time>2020-01-19T09:34:55.57Z</time>
      </trkpt>
      <trkpt lat="42.067528" lon="0.678109">
        <ele>613.00</ele>
        <time>2020-01-19T09:35:01.57Z</time>
      </trkpt>
      <trkpt lat="42.067652" lon="0.678038">
        <ele>613.00</ele>
        <time>2020-01-19T09:35:03.57Z</time>
      </trkpt>
      <trkpt lat="42.067724" lon="0.677965">
        <ele>612.00</ele>
        <time>2020-01-19T09:35:06.57Z</time>
      </trkpt>
      <trkpt lat="42.067783" lon="0.677852">
        <ele>611.83</ele>
        <time>2020-01-19T09:35:12.57Z</time>
      </trkpt>
      <trkpt lat="42.067867" lon="0.677794">
        <ele>606.00</ele>
        <time>2020-01-19T09:35:20.60Z</time>
      </trkpt>
      <trkpt lat="42.067964" lon="0.677693">
        <ele>604.03</ele>
        <time>2020-01-19T09:35:33.57Z</time>
      </trkpt>
      <trkpt lat="42.068113" lon="0.677774">
        <ele>604.00</ele>
        <time>2020-01-19T09:35:45.57Z</time>
      </trkpt>
      <trkpt lat="42.068194" lon="0.677706">
        <ele>603.00</ele>
        <time>2020-01-19T09:36:32.58Z</time>
      </trkpt>
      <trkpt lat="42.068166" lon="0.677844">
        <ele>602.00</ele>
        <time>2020-01-19T09:37:14.57Z</time>
      </trkpt>
      <trkpt lat="42.068232" lon="0.677939">
        <ele>603.00</ele>
        <time>2020-01-19T09:37:31.57Z</time>
      </trkpt>
      <trkpt lat="42.068330" lon="0.678033">
        <ele>602.00</ele>
        <time>2020-01-19T09:37:46.57Z</time>
      </trkpt>
      <trkpt lat="42.068382" lon="0.678135">
        <ele>598.00</ele>
        <time>2020-01-19T09:37:55.57Z</time>
      </trkpt>
      <trkpt lat="42.068453" lon="0.678274">
        <ele>598.00</ele>
        <time>2020-01-19T09:38:06.60Z</time>
      </trkpt>
      <trkpt lat="42.068484" lon="0.678409">
        <ele>598.00</ele>
        <time>2020-01-19T09:38:13.57Z</time>
      </trkpt>
      <trkpt lat="42.068539" lon="0.678506">
        <ele>599.00</ele>
        <time>2020-01-19T09:38:23.57Z</time>
      </trkpt>
      <trkpt lat="42.068609" lon="0.678599">
        <ele>599.00</ele>
        <time>2020-01-19T09:38:32.57Z</time>
      </trkpt>
      <trkpt lat="42.068682" lon="0.678687">
        <ele>599.00</ele>
        <time>2020-01-19T09:38:40.57Z</time>
      </trkpt>
      <trkpt lat="42.068767" lon="0.678766">
        <ele>599.00</ele>
        <time>2020-01-19T09:38:49.57Z</time>
      </trkpt>
      <trkpt lat="42.068883" lon="0.678849">
        <ele>599.00</ele>
        <time>2020-01-19T09:38:55.70Z</time>
      </trkpt>
      <trkpt lat="42.068952" lon="0.678956">
        <ele>599.00</ele>
        <time>2020-01-19T09:39:06.60Z</time>
      </trkpt>
      <trkpt lat="42.069045" lon="0.679031">
        <ele>599.00</ele>
        <time>2020-01-19T09:39:11.57Z</time>
      </trkpt>
      <trkpt lat="42.069134" lon="0.679075">
        <ele>599.00</ele>
        <time>2020-01-19T09:39:15.54Z</time>
      </trkpt>
      <trkpt lat="42.069223" lon="0.679113">
        <ele>599.00</ele>
        <time>2020-01-19T09:39:19.57Z</time>
      </trkpt>
      <trkpt lat="42.069316" lon="0.679180">
        <ele>599.00</ele>
        <time>2020-01-19T09:39:24.60Z</time>
      </trkpt>
      <trkpt lat="42.069407" lon="0.679266">
        <ele>599.00</ele>
        <time>2020-01-19T09:39:30.60Z</time>
      </trkpt>
      <trkpt lat="42.069503" lon="0.679270">
        <ele>595.00</ele>
        <time>2020-01-19T09:39:40.57Z</time>
      </trkpt>
      <trkpt lat="42.069599" lon="0.679249">
        <ele>595.00</ele>
        <time>2020-01-19T09:39:45.60Z</time>
      </trkpt>
      <trkpt lat="42.069689" lon="0.679259">
        <ele>594.94</ele>
        <time>2020-01-19T09:39:49.54Z</time>
      </trkpt>
      <trkpt lat="42.069818" lon="0.679241">
        <ele>593.57</ele>
        <time>2020-01-19T09:39:56.57Z</time>
      </trkpt>
      <trkpt lat="42.069966" lon="0.679246">
        <ele>588.00</ele>
        <time>2020-01-19T09:40:04.57Z</time>
      </trkpt>
      <trkpt lat="42.070066" lon="0.679318">
        <ele>584.00</ele>
        <time>2020-01-19T09:40:13.60Z</time>
      </trkpt>
      <trkpt lat="42.070180" lon="0.679336">
        <ele>584.00</ele>
        <time>2020-01-19T09:40:19.60Z</time>
      </trkpt>
      <trkpt lat="42.070268" lon="0.679305">
        <ele>581.00</ele>
        <time>2020-01-19T09:40:23.60Z</time>
      </trkpt>
      <trkpt lat="42.070361" lon="0.679276">
        <ele>577.00</ele>
        <time>2020-01-19T09:40:28.55Z</time>
      </trkpt>
      <trkpt lat="42.070449" lon="0.679249">
        <ele>575.00</ele>
        <time>2020-01-19T09:40:47.57Z</time>
      </trkpt>
      <trkpt lat="42.070543" lon="0.679214">
        <ele>573.00</ele>
        <time>2020-01-19T09:40:58.57Z</time>
      </trkpt>
      <trkpt lat="42.070640" lon="0.679206">
        <ele>570.00</ele>
        <time>2020-01-19T09:41:04.57Z</time>
      </trkpt>
      <trkpt lat="42.070677" lon="0.679091">
        <ele>567.00</ele>
        <time>2020-01-19T09:41:41.57Z</time>
      </trkpt>
      <trkpt lat="42.070608" lon="0.678966">
        <ele>567.00</ele>
        <time>2020-01-19T09:41:46.57Z</time>
      </trkpt>
      <trkpt lat="42.070530" lon="0.678875">
        <ele>561.00</ele>
        <time>2020-01-19T09:41:52.60Z</time>
      </trkpt>
      <trkpt lat="42.070502" lon="0.678747">
        <ele>557.00</ele>
        <time>2020-01-19T09:42:05.54Z</time>
      </trkpt>
      <trkpt lat="42.070414" lon="0.678666">
        <ele>553.00</ele>
        <time>2020-01-19T09:42:13.57Z</time>
      </trkpt>
      <trkpt lat="42.070326" lon="0.678625">
        <ele>553.00</ele>
        <time>2020-01-19T09:42:18.54Z</time>
      </trkpt>
      <trkpt lat="42.070238" lon="0.678560">
        <ele>550.00</ele>
        <time>2020-01-19T09:42:23.57Z</time>
      </trkpt>
      <trkpt lat="42.070152" lon="0.678507">
        <ele>547.00</ele>
        <time>2020-01-19T09:42:34.57Z</time>
      </trkpt>
      <trkpt lat="42.070059" lon="0.678492">
        <ele>549.00</ele>
        <time>2020-01-19T09:42:41.57Z</time>
      </trkpt>
      <trkpt lat="42.069966" lon="0.678522">
        <ele>549.08</ele>
        <time>2020-01-19T09:42:49.60Z</time>
      </trkpt>
      <trkpt lat="42.069877" lon="0.678485">
        <ele>554.00</ele>
        <time>2020-01-19T09:42:57.60Z</time>
      </trkpt>
      <trkpt lat="42.069793" lon="0.678441">
        <ele>554.00</ele>
        <time>2020-01-19T09:43:08.57Z</time>
      </trkpt>
      <trkpt lat="42.069704" lon="0.678366">
        <ele>556.91</ele>
        <time>2020-01-19T09:43:17.60Z</time>
      </trkpt>
      <trkpt lat="42.069645" lon="0.678266">
        <ele>557.00</ele>
        <time>2020-01-19T09:43:21.57Z</time>
      </trkpt>
      <trkpt lat="42.069461" lon="0.678164">
        <ele>556.00</ele>
        <time>2020-01-19T09:43:29.63Z</time>
      </trkpt>
      <trkpt lat="42.069366" lon="0.678141">
        <ele>556.00</ele>
        <time>2020-01-19T09:43:33.57Z</time>
      </trkpt>
      <trkpt lat="42.069303" lon="0.678041">
        <ele>553.00</ele>
        <time>2020-01-19T09:43:41.54Z</time>
      </trkpt>
      <trkpt lat="42.069209" lon="0.677960">
        <ele>552.00</ele>
        <time>2020-01-19T09:43:50.57Z</time>
      </trkpt>
      <trkpt lat="42.069106" lon="0.677934">
        <ele>554.00</ele>
        <time>2020-01-19T09:44:00.60Z</time>
      </trkpt>
      <trkpt lat="42.069002" lon="0.677949">
        <ele>557.00</ele>
        <time>2020-01-19T09:44:19.54Z</time>
      </trkpt>
      <trkpt lat="42.068928" lon="0.677881">
        <ele>556.00</ele>
        <time>2020-01-19T09:44:25.57Z</time>
      </trkpt>
      <trkpt lat="42.068866" lon="0.677764">
        <ele>556.00</ele>
        <time>2020-01-19T09:44:32.60Z</time>
      </trkpt>
      <trkpt lat="42.068850" lon="0.677630">
        <ele>556.00</ele>
        <time>2020-01-19T09:44:38.57Z</time>
      </trkpt>
      <trkpt lat="42.068836" lon="0.677612">
        <ele>584.25</ele>
        <time>2017-04-01T09:46:52Z</time>
      </trkpt>
      <trkpt lat="42.068785" lon="0.677413">
        <ele>580.89</ele>
        <time>2017-04-01T09:47:12Z</time>
      </trkpt>
      <trkpt lat="42.068733" lon="0.677215">
        <ele>576.14</ele>
        <time>2017-04-01T09:47:32Z</time>
      </trkpt>
      <trkpt lat="42.068649" lon="0.677027">
        <ele>572.70</ele>
        <time>2017-04-01T09:47:52Z</time>
      </trkpt>
      <trkpt lat="42.068594" lon="0.676866">
        <ele>567.75</ele>
        <time>2017-04-01T09:48:12Z</time>
      </trkpt>
      <trkpt lat="42.068506" lon="0.676732">
        <ele>564.75</ele>
        <time>2017-04-01T09:48:32Z</time>
      </trkpt>
      <trkpt lat="42.068458" lon="0.676705">
        <ele>565.51</ele>
        <time>2017-04-01T09:48:52Z</time>
      </trkpt>
      <trkpt lat="42.068434" lon="0.676550">
        <ele>559.31</ele>
        <time>2017-04-01T09:49:12Z</time>
      </trkpt>
      <trkpt lat="42.068339" lon="0.676147">
        <ele>550.55</ele>
        <time>2017-04-01T09:49:32Z</time>
      </trkpt>
      <trkpt lat="42.068382" lon="0.675729">
        <ele>536.15</ele>
        <time>2017-04-01T09:49:52Z</time>
      </trkpt>
      <trkpt lat="42.068147" lon="0.675445">
        <ele>535.48</ele>
        <time>2017-04-01T09:50:12Z</time>
      </trkpt>
      <trkpt lat="42.068096" lon="0.675235">
        <ele>529.67</ele>
        <time>2017-04-01T09:50:32Z</time>
      </trkpt>
      <trkpt lat="42.067996" lon="0.674962">
        <ele>525.28</ele>
        <time>2017-04-01T09:50:52Z</time>
      </trkpt>
      <trkpt lat="42.067928" lon="0.674801">
        <ele>523.70</ele>
        <time>2017-04-01T09:51:12Z</time>
      </trkpt>
      <trkpt lat="42.067901" lon="0.674586">
        <ele>522.49</ele>
        <time>2017-04-01T09:51:32Z</time>
      </trkpt>
      <trkpt lat="42.067944" lon="0.674189">
        <ele>514.63</ele>
        <time>2017-04-01T09:51:52Z</time>
      </trkpt>
      <trkpt lat="42.068016" lon="0.674055">
        <ele>506.32</ele>
        <time>2017-04-01T09:52:12Z</time>
      </trkpt>
      <trkpt lat="42.068124" lon="0.673959">
        <ele>497.10</ele>
        <time>2017-04-01T09:52:32Z</time>
      </trkpt>
      <trkpt lat="42.068140" lon="0.673749">
        <ele>496.51</ele>
        <time>2017-04-01T09:52:52Z</time>
      </trkpt>
      <trkpt lat="42.068175" lon="0.673602">
        <ele>501.01</ele>
        <time>2017-04-01T09:53:12Z</time>
      </trkpt>
      <trkpt lat="42.068185" lon="0.673481">
        <ele>507.15</ele>
        <time>2017-04-01T09:53:32Z</time>
      </trkpt>
      <trkpt lat="42.068134" lon="0.673318">
        <ele>517.33</ele>
        <time>2017-04-01T09:53:52Z</time>
      </trkpt>
      <trkpt lat="42.068068" lon="0.673149">
        <ele>524.31</ele>
        <time>2017-04-01T09:54:12Z</time>
      </trkpt>
      <trkpt lat="42.068032" lon="0.673033">
        <ele>525.58</ele>
        <time>2017-04-01T09:54:32Z</time>
      </trkpt>
      <trkpt lat="42.067942" lon="0.672905">
        <ele>524.24</ele>
        <time>2017-04-01T09:54:52Z</time>
      </trkpt>
      <trkpt lat="42.067861" lon="0.672703">
        <ele>534.16</ele>
        <time>2017-04-01T09:55:12Z</time>
      </trkpt>
      <trkpt lat="42.067694" lon="0.672414">
        <ele>546.93</ele>
        <time>2017-04-01T09:55:32Z</time>
      </trkpt>
      <trkpt lat="42.067674" lon="0.672339">
        <ele>550.97</ele>
        <time>2017-04-01T09:55:52Z</time>
      </trkpt>
      <trkpt lat="42.067638" lon="0.672323">
        <ele>551.89</ele>
        <time>2017-04-01T09:56:12Z</time>
      </trkpt>
      <trkpt lat="42.067530" lon="0.672194">
        <ele>565.15</ele>
        <time>2017-04-01T09:56:32Z</time>
      </trkpt>
      <trkpt lat="42.067459" lon="0.672038">
        <ele>568.62</ele>
        <time>2017-04-01T09:56:52Z</time>
      </trkpt>
      <trkpt lat="42.067275" lon="0.672119">
        <ele>562.51</ele>
        <time>2017-04-01T09:57:12Z</time>
      </trkpt>
      <trkpt lat="42.067216" lon="0.671942">
        <ele>583.24</ele>
        <time>2017-04-01T09:57:32Z</time>
      </trkpt>
      <trkpt lat="42.067228" lon="0.671754">
        <ele>587.14</ele>
        <time>2017-04-01T09:57:52Z</time>
      </trkpt>
      <trkpt lat="42.067236" lon="0.671631">
        <ele>588.69</ele>
        <time>2017-04-01T09:58:12Z</time>
      </trkpt>
      <trkpt lat="42.067184" lon="0.671534">
        <ele>589.77</ele>
        <time>2017-04-01T09:58:32Z</time>
      </trkpt>
      <trkpt lat="42.067040" lon="0.671287">
        <ele>600.03</ele>
        <time>2017-04-01T09:58:52Z</time>
      </trkpt>
      <trkpt lat="42.066905" lon="0.671110">
        <ele>607.88</ele>
        <time>2017-04-01T09:59:12Z</time>
      </trkpt>
      <trkpt lat="42.066746" lon="0.670998">
        <ele>603.83</ele>
        <time>2017-04-01T09:59:32Z</time>
      </trkpt>
      <trkpt lat="42.066586" lon="0.670670">
        <ele>622.54</ele>
        <time>2017-04-01T09:59:52Z</time>
      </trkpt>
      <trkpt lat="42.066555" lon="0.670289">
        <ele>634.23</ele>
        <time>2017-04-01T10:00:12Z</time>
      </trkpt>
      <trkpt lat="42.066495" lon="0.670145">
        <ele>637.62</ele>
        <time>2017-04-01T10:00:32Z</time>
      </trkpt>
      <trkpt lat="42.066431" lon="0.669909">
        <ele>642.41</ele>
        <time>2017-04-01T10:00:52Z</time>
      </trkpt>
      <trkpt lat="42.066431" lon="0.669780">
        <ele>644.41</ele>
        <time>2017-04-01T10:01:12Z</time>
      </trkpt>
      <trkpt lat="42.066343" lon="0.669630">
        <ele>648.92</ele>
        <time>2017-04-01T10:01:32Z</time>
      </trkpt>
      <trkpt lat="42.066351" lon="0.669404">
        <ele>652.23</ele>
        <time>2017-04-01T10:01:52Z</time>
      </trkpt>
      <trkpt lat="42.066248" lon="0.669335">
        <ele>657.01</ele>
        <time>2017-04-01T10:02:12Z</time>
      </trkpt>
      <trkpt lat="42.066228" lon="0.669179">
        <ele>660.43</ele>
        <time>2017-04-01T10:02:32Z</time>
      </trkpt>
      <trkpt lat="42.066228" lon="0.669045">
        <ele>663.02</ele>
        <time>2017-04-01T10:02:52Z</time>
      </trkpt>
      <trkpt lat="42.066184" lon="0.669013">
        <ele>664.86</ele>
        <time>2017-04-01T10:03:12Z</time>
      </trkpt>
      <trkpt lat="42.066180" lon="0.668911">
        <ele>666.89</ele>
        <time>2017-04-01T10:03:32Z</time>
      </trkpt>
      <trkpt lat="42.066140" lon="0.668766">
        <ele>670.59</ele>
        <time>2017-04-01T10:03:52Z</time>
      </trkpt>
      <trkpt lat="42.066045" lon="0.668664">
        <ele>675.23</ele>
        <time>2017-04-01T10:04:12Z</time>
      </trkpt>
      <trkpt lat="42.066053" lon="0.668482">
        <ele>678.19</ele>
        <time>2017-04-01T10:04:32Z</time>
      </trkpt>
      <trkpt lat="42.065937" lon="0.668353">
        <ele>683.71</ele>
        <time>2017-04-01T10:04:52Z</time>
      </trkpt>
      <trkpt lat="42.065917" lon="0.668197">
        <ele>686.21</ele>
        <time>2017-04-01T10:05:12Z</time>
      </trkpt>
      <trkpt lat="42.065870" lon="0.668101">
        <ele>688.63</ele>
        <time>2017-04-01T10:05:32Z</time>
      </trkpt>
      <trkpt lat="42.065870" lon="0.667961">
        <ele>690.16</ele>
        <time>2017-04-01T10:05:52Z</time>
      </trkpt>
      <trkpt lat="42.065818" lon="0.667795">
        <ele>693.31</ele>
        <time>2017-04-01T10:06:12Z</time>
      </trkpt>
      <trkpt lat="42.065726" lon="0.667489">
        <ele>700.63</ele>
        <time>2017-04-01T10:06:32Z</time>
      </trkpt>
      <trkpt lat="42.065714" lon="0.667312">
        <ele>702.68</ele>
        <time>2017-04-01T10:06:52Z</time>
      </trkpt>
      <trkpt lat="42.065682" lon="0.667135">
        <ele>705.33</ele>
        <time>2017-04-01T10:07:12Z</time>
      </trkpt>
      <trkpt lat="42.065663" lon="0.666904">
        <ele>708.47</ele>
        <time>2017-04-01T10:07:32Z</time>
      </trkpt>
      <trkpt lat="42.065571" lon="0.666706">
        <ele>713.22</ele>
        <time>2017-04-01T10:07:52Z</time>
      </trkpt>
      <trkpt lat="42.065515" lon="0.666572">
        <ele>716.00</ele>
        <time>2017-04-01T10:08:12Z</time>
      </trkpt>
      <trkpt lat="42.065459" lon="0.666384">
        <ele>719.51</ele>
        <time>2017-04-01T10:08:32Z</time>
      </trkpt>
      <trkpt lat="42.065408" lon="0.666202">
        <ele>723.33</ele>
        <time>2017-04-01T10:08:52Z</time>
      </trkpt>
      <trkpt lat="42.065416" lon="0.666025">
        <ele>725.01</ele>
        <time>2017-04-01T10:09:12Z</time>
      </trkpt>
      <trkpt lat="42.065336" lon="0.665917">
        <ele>728.47</ele>
        <time>2017-04-01T10:09:32Z</time>
      </trkpt>
      <trkpt lat="42.065260" lon="0.665714">
        <ele>732.35</ele>
        <time>2017-04-01T10:09:52Z</time>
      </trkpt>
      <trkpt lat="42.065220" lon="0.665520">
        <ele>735.17</ele>
        <time>2017-04-01T10:10:12Z</time>
      </trkpt>
      <trkpt lat="42.065300" lon="0.665209">
        <ele>737.08</ele>
        <time>2017-04-01T10:10:32Z</time>
      </trkpt>
      <trkpt lat="42.065288" lon="0.664909">
        <ele>741.04</ele>
        <time>2017-04-01T10:10:52Z</time>
      </trkpt>
      <trkpt lat="42.065256" lon="0.664646">
        <ele>745.67</ele>
        <time>2017-04-01T10:11:12Z</time>
      </trkpt>
      <trkpt lat="42.065205" lon="0.664453">
        <ele>749.79</ele>
        <time>2017-04-01T10:11:32Z</time>
      </trkpt>
      <trkpt lat="42.065197" lon="0.664292">
        <ele>752.89</ele>
        <time>2017-04-01T10:11:52Z</time>
      </trkpt>
      <trkpt lat="42.065308" lon="0.664072">
        <ele>752.74</ele>
        <time>2017-04-01T10:12:12Z</time>
      </trkpt>
      <trkpt lat="42.065348" lon="0.663820">
        <ele>753.65</ele>
        <time>2017-04-01T10:12:32Z</time>
      </trkpt>
      <trkpt lat="42.065364" lon="0.663589">
        <ele>755.31</ele>
        <time>2017-04-01T10:12:52Z</time>
      </trkpt>
      <trkpt lat="42.065340" lon="0.663359">
        <ele>760.11</ele>
        <time>2017-04-01T10:13:12Z</time>
      </trkpt>
      <trkpt lat="42.065268" lon="0.663117">
        <ele>767.39</ele>
        <time>2017-04-01T10:13:32Z</time>
      </trkpt>
      <trkpt lat="42.065284" lon="0.662887">
        <ele>770.87</ele>
        <time>2017-04-01T10:13:52Z</time>
      </trkpt>
      <trkpt lat="42.065212" lon="0.662393">
        <ele>785.69</ele>
        <time>2017-04-01T10:14:12Z</time>
      </trkpt>
      <trkpt lat="42.065256" lon="0.662178">
        <ele>788.04</ele>
        <time>2017-04-01T10:14:32Z</time>
      </trkpt>
      <trkpt lat="42.065252" lon="0.661899">
        <ele>793.94</ele>
        <time>2017-04-01T10:14:52Z</time>
      </trkpt>
      <trkpt lat="42.065288" lon="0.661647">
        <ele>796.84</ele>
        <time>2017-04-01T10:15:12Z</time>
      </trkpt>
      <trkpt lat="42.065296" lon="0.661384">
        <ele>800.38</ele>
        <time>2017-04-01T10:15:32Z</time>
      </trkpt>
      <trkpt lat="42.065376" lon="0.660987">
        <ele>803.55</ele>
        <time>2017-04-01T10:15:52Z</time>
      </trkpt>
      <trkpt lat="42.065436" lon="0.660789">
        <ele>805.41</ele>
        <time>2017-04-01T10:16:12Z</time>
      </trkpt>
      <trkpt lat="42.065547" lon="0.660617">
        <ele>805.72</ele>
        <time>2017-04-01T10:16:32Z</time>
      </trkpt>
      <trkpt lat="42.065543" lon="0.660451">
        <ele>809.60</ele>
        <time>2017-04-01T10:16:52Z</time>
      </trkpt>
      <trkpt lat="42.065539" lon="0.660135">
        <ele>817.01</ele>
        <time>2017-04-01T10:17:12Z</time>
      </trkpt>
      <trkpt lat="42.065559" lon="0.659856">
        <ele>824.12</ele>
        <time>2017-04-01T10:17:32Z</time>
      </trkpt>
      <trkpt lat="42.065507" lon="0.659700">
        <ele>829.63</ele>
        <time>2017-04-01T10:17:52Z</time>
      </trkpt>
      <trkpt lat="42.065551" lon="0.659491">
        <ele>833.97</ele>
        <time>2017-04-01T10:18:12Z</time>
      </trkpt>
      <trkpt lat="42.065519" lon="0.659298">
        <ele>840.59</ele>
        <time>2017-04-01T10:18:32Z</time>
      </trkpt>
      <trkpt lat="42.065547" lon="0.659142">
        <ele>844.99</ele>
        <time>2017-04-01T10:18:52Z</time>
      </trkpt>
      <trkpt lat="42.065627" lon="0.659019">
        <ele>847.12</ele>
        <time>2017-04-01T10:19:12Z</time>
      </trkpt>
      <trkpt lat="42.065535" lon="0.658354">
        <ele>866.68</ele>
        <time>2017-04-01T10:19:32Z</time>
      </trkpt>
      <trkpt lat="42.065595" lon="0.658085">
        <ele>870.36</ele>
        <time>2017-04-01T10:19:52Z</time>
      </trkpt>
      <trkpt lat="42.065651" lon="0.657785">
        <ele>874.19</ele>
        <time>2017-04-01T10:20:12Z</time>
      </trkpt>
      <trkpt lat="42.065651" lon="0.657495">
        <ele>879.48</ele>
        <time>2017-04-01T10:20:32Z</time>
      </trkpt>
      <trkpt lat="42.065714" lon="0.656953">
        <ele>888.32</ele>
        <time>2017-04-01T10:20:52Z</time>
      </trkpt>
      <trkpt lat="42.065762" lon="0.656835">
        <ele>889.51</ele>
        <time>2017-04-01T10:21:12Z</time>
      </trkpt>
      <trkpt lat="42.065842" lon="0.656481">
        <ele>896.46</ele>
        <time>2017-04-01T10:21:32Z</time>
      </trkpt>
      <trkpt lat="42.066005" lon="0.656272">
        <ele>897.07</ele>
        <time>2017-04-01T10:21:52Z</time>
      </trkpt>
      <trkpt lat="42.065965" lon="0.656031">
        <ele>902.98</ele>
        <time>2017-04-01T10:22:12Z</time>
      </trkpt>
      <trkpt lat="42.066017" lon="0.655800">
        <ele>906.87</ele>
        <time>2017-04-01T10:22:32Z</time>
      </trkpt>
      <trkpt lat="42.066041" lon="0.655709">
        <ele>908.27</ele>
        <time>2017-04-01T10:22:52Z</time>
      </trkpt>
      <trkpt lat="42.066164" lon="0.655258">
        <ele>915.96</ele>
        <time>2017-04-01T10:23:12Z</time>
      </trkpt>
      <trkpt lat="42.066244" lon="0.654845">
        <ele>924.42</ele>
        <time>2017-04-01T10:23:32Z</time>
      </trkpt>
      <trkpt lat="42.066244" lon="0.654379">
        <ele>933.52</ele>
        <time>2017-04-01T10:23:52Z</time>
      </trkpt>
      <trkpt lat="42.066363" lon="0.653746">
        <ele>941.62</ele>
        <time>2017-04-01T10:24:12Z</time>
      </trkpt>
      <trkpt lat="42.066475" lon="0.653263">
        <ele>945.59</ele>
        <time>2017-04-01T10:24:32Z</time>
      </trkpt>
      <trkpt lat="42.066610" lon="0.652431">
        <ele>952.82</ele>
        <time>2017-04-01T10:24:52Z</time>
      </trkpt>
      <trkpt lat="42.066734" lon="0.651769">
        <ele>959.94</ele>
        <time>2017-04-01T10:25:03.97Z</time>
      </trkpt>
      <trkpt lat="42.066735" lon="0.651764">
        <ele>959.99</ele>
        <time>2017-04-01T10:25:04.06Z</time>
      </trkpt>
      <trkpt lat="42.066735" lon="0.651761">
        <ele>963.20</ele>
        <time>2020-01-19T10:37:27Z</time>
      </trkpt>
      <trkpt lat="42.066741" lon="0.651720">
        <ele>969.00</ele>
        <time>2020-01-19T10:37:30Z</time>
      </trkpt>
      <trkpt lat="42.066771" lon="0.651562">
        <ele>969.39</ele>
        <time>2020-01-19T10:37:41.04Z</time>
      </trkpt>
      <trkpt lat="42.066798" lon="0.651397">
        <ele>972.00</ele>
        <time>2020-01-19T10:37:50.04Z</time>
      </trkpt>
      <trkpt lat="42.066840" lon="0.651231">
        <ele>973.00</ele>
        <time>2020-01-19T10:38:01.04Z</time>
      </trkpt>
      <trkpt lat="42.066867" lon="0.651092">
        <ele>975.00</ele>
        <time>2020-01-19T10:38:10.04Z</time>
      </trkpt>
      <trkpt lat="42.066888" lon="0.651048">
        <ele>975.00</ele>
        <time>2020-01-19T10:38:13.04Z</time>
      </trkpt>
      <trkpt lat="42.066918" lon="0.650987">
        <ele>977.00</ele>
        <time>2020-01-19T10:38:17.04Z</time>
      </trkpt>
      <trkpt lat="42.066946" lon="0.650939">
        <ele>977.00</ele>
        <time>2020-01-19T10:38:21.04Z</time>
      </trkpt>
      <trkpt lat="42.066971" lon="0.650901">
        <ele>977.00</ele>
        <time>2020-01-19T10:38:24.04Z</time>
      </trkpt>
      <trkpt lat="42.066995" lon="0.650864">
        <ele>978.00</ele>
        <time>2020-01-19T10:38:27.04Z</time>
      </trkpt>
      <trkpt lat="42.067017" lon="0.650824">
        <ele>978.00</ele>
        <time>2020-01-19T10:38:30.04Z</time>
      </trkpt>
      <trkpt lat="42.067038" lon="0.650780">
        <ele>978.00</ele>
        <time>2020-01-19T10:38:33.04Z</time>
      </trkpt>
      <trkpt lat="42.067064" lon="0.650728">
        <ele>978.00</ele>
        <time>2020-01-19T10:38:37.04Z</time>
      </trkpt>
      <trkpt lat="42.067090" lon="0.650664">
        <ele>978.00</ele>
        <time>2020-01-19T10:38:42.04Z</time>
      </trkpt>
      <trkpt lat="42.067110" lon="0.650608">
        <ele>978.00</ele>
        <time>2020-01-19T10:38:46.04Z</time>
      </trkpt>
      <trkpt lat="42.067124" lon="0.650556">
        <ele>978.00</ele>
        <time>2020-01-19T10:38:49.04Z</time>
      </trkpt>
      <trkpt lat="42.067144" lon="0.650508">
        <ele>978.00</ele>
        <time>2020-01-19T10:38:52.04Z</time>
      </trkpt>
      <trkpt lat="42.067165" lon="0.650467">
        <ele>978.00</ele>
        <time>2020-01-19T10:38:55.04Z</time>
      </trkpt>
      <trkpt lat="42.067186" lon="0.650426">
        <ele>978.00</ele>
        <time>2020-01-19T10:38:58.04Z</time>
      </trkpt>
      <trkpt lat="42.067203" lon="0.650382">
        <ele>978.00</ele>
        <time>2020-01-19T10:39:01.04Z</time>
      </trkpt>
      <trkpt lat="42.067220" lon="0.650332">
        <ele>978.00</ele>
        <time>2020-01-19T10:39:04.04Z</time>
      </trkpt>
      <trkpt lat="42.067227" lon="0.650275">
        <ele>978.00</ele>
        <time>2020-01-19T10:39:08.04Z</time>
      </trkpt>
      <trkpt lat="42.067206" lon="0.650234">
        <ele>977.00</ele>
        <time>2020-01-19T10:40:22.04Z</time>
      </trkpt>
      <trkpt lat="42.067169" lon="0.650115">
        <ele>976.92</ele>
        <time>2020-01-19T10:40:44.01Z</time>
      </trkpt>
      <trkpt lat="42.067127" lon="0.650007">
        <ele>976.00</ele>
        <time>2020-01-19T10:40:50.04Z</time>
      </trkpt>
      <trkpt lat="42.067039" lon="0.649886">
        <ele>975.00</ele>
        <time>2020-01-19T10:41:02.07Z</time>
      </trkpt>
      <trkpt lat="42.066977" lon="0.649759">
        <ele>970.00</ele>
        <time>2020-01-19T10:41:06.01Z</time>
      </trkpt>
      <trkpt lat="42.066922" lon="0.649654">
        <ele>970.00</ele>
        <time>2020-01-19T10:41:10.04Z</time>
      </trkpt>
      <trkpt lat="42.066894" lon="0.649531">
        <ele>969.32</ele>
        <time>2020-01-19T10:41:14.07Z</time>
      </trkpt>
      <trkpt lat="42.066842" lon="0.649431">
        <ele>966.51</ele>
        <time>2020-01-19T10:41:18.01Z</time>
      </trkpt>
      <trkpt lat="42.066767" lon="0.649333">
        <ele>962.67</ele>
        <time>2020-01-19T10:41:22.01Z</time>
      </trkpt>
      <trkpt lat="42.066681" lon="0.649241">
        <ele>962.00</ele>
        <time>2020-01-19T10:41:27.04Z</time>
      </trkpt>
      <trkpt lat="42.066629" lon="0.649136">
        <ele>963.00</ele>
        <time>2020-01-19T10:41:32.04Z</time>
      </trkpt>
      <trkpt lat="42.066593" lon="0.649014">
        <ele>963.00</ele>
        <time>2020-01-19T10:41:38.04Z</time>
      </trkpt>
      <trkpt lat="42.066546" lon="0.648901">
        <ele>963.00</ele>
        <time>2020-01-19T10:41:44.01Z</time>
      </trkpt>
      <trkpt lat="42.066591" lon="0.648792">
        <ele>962.00</ele>
        <time>2020-01-19T10:41:53.04Z</time>
      </trkpt>
      <trkpt lat="42.066651" lon="0.648699">
        <ele>960.14</ele>
        <time>2020-01-19T10:41:57.01Z</time>
      </trkpt>
      <trkpt lat="42.066726" lon="0.648614">
        <ele>960.00</ele>
        <time>2020-01-19T10:42:01.04Z</time>
      </trkpt>
      <trkpt lat="42.066788" lon="0.648513">
        <ele>958.00</ele>
        <time>2020-01-19T10:42:05.04Z</time>
      </trkpt>
      <trkpt lat="42.066822" lon="0.648395">
        <ele>958.00</ele>
        <time>2020-01-19T10:42:09.04Z</time>
      </trkpt>
      <trkpt lat="42.066794" lon="0.648279">
        <ele>957.77</ele>
        <time>2020-01-19T10:42:14.01Z</time>
      </trkpt>
      <trkpt lat="42.066738" lon="0.648175">
        <ele>956.00</ele>
        <time>2020-01-19T10:42:33.04Z</time>
      </trkpt>
      <trkpt lat="42.066734" lon="0.648053">
        <ele>958.00</ele>
        <time>2020-01-19T10:42:56.07Z</time>
      </trkpt>
      <trkpt lat="42.066776" lon="0.647939">
        <ele>958.00</ele>
        <time>2020-01-19T10:43:01.04Z</time>
      </trkpt>
      <trkpt lat="42.066815" lon="0.647823">
        <ele>958.00</ele>
        <time>2020-01-19T10:43:05.04Z</time>
      </trkpt>
      <trkpt lat="42.066862" lon="0.647701">
        <ele>958.00</ele>
        <time>2020-01-19T10:43:10.04Z</time>
      </trkpt>
      <trkpt lat="42.066905" lon="0.647572">
        <ele>958.00</ele>
        <time>2020-01-19T10:43:15.07Z</time>
      </trkpt>
      <trkpt lat="42.066919" lon="0.647430">
        <ele>958.00</ele>
        <time>2020-01-19T10:43:20.07Z</time>
      </trkpt>
      <trkpt lat="42.066897" lon="0.647261">
        <ele>959.00</ele>
        <time>2020-01-19T10:43:26.07Z</time>
      </trkpt>
      <trkpt lat="42.066862" lon="0.647130">
        <ele>959.00</ele>
        <time>2020-01-19T10:43:31.04Z</time>
      </trkpt>
      <trkpt lat="42.066813" lon="0.647024">
        <ele>959.33</ele>
        <time>2020-01-19T10:43:35.01Z</time>
      </trkpt>
      <trkpt lat="42.066760" lon="0.646918">
        <ele>960.00</ele>
        <time>2020-01-19T10:43:43.04Z</time>
      </trkpt>
      <trkpt lat="42.066687" lon="0.646831">
        <ele>959.00</ele>
        <time>2020-01-19T10:43:48.06Z</time>
      </trkpt>
      <trkpt lat="42.066554" lon="0.646724">
        <ele>959.00</ele>
        <time>2020-01-19T10:43:53.07Z</time>
      </trkpt>
      <trkpt lat="42.066468" lon="0.646677">
        <ele>958.00</ele>
        <time>2020-01-19T10:43:56.01Z</time>
      </trkpt>
      <trkpt lat="42.066393" lon="0.646610">
        <ele>958.00</ele>
        <time>2020-01-19T10:43:59.07Z</time>
      </trkpt>
      <trkpt lat="42.066314" lon="0.646515">
        <ele>956.00</ele>
        <time>2020-01-19T10:44:03.01Z</time>
      </trkpt>
      <trkpt lat="42.066223" lon="0.646419">
        <ele>956.00</ele>
        <time>2020-01-19T10:44:07.04Z</time>
      </trkpt>
      <trkpt lat="42.066083" lon="0.646296">
        <ele>953.00</ele>
        <time>2020-01-19T10:44:13.04Z</time>
      </trkpt>
      <trkpt lat="42.066005" lon="0.646186">
        <ele>951.00</ele>
        <time>2020-01-19T10:44:18.06Z</time>
      </trkpt>
      <trkpt lat="42.066013" lon="0.645982">
        <ele>948.00</ele>
        <time>2020-01-19T10:44:25.04Z</time>
      </trkpt>
      <trkpt lat="42.066101" lon="0.645860">
        <ele>947.00</ele>
        <time>2020-01-19T10:44:32.04Z</time>
      </trkpt>
      <trkpt lat="42.066230" lon="0.645734">
        <ele>945.00</ele>
        <time>2020-01-19T10:44:39.04Z</time>
      </trkpt>
      <trkpt lat="42.066303" lon="0.645653">
        <ele>942.00</ele>
        <time>2020-01-19T10:44:42.04Z</time>
      </trkpt>
      <trkpt lat="42.066386" lon="0.645581">
        <ele>941.74</ele>
        <time>2020-01-19T10:44:45.04Z</time>
      </trkpt>
      <trkpt lat="42.066491" lon="0.645486">
        <ele>941.00</ele>
        <time>2020-01-19T10:44:49.07Z</time>
      </trkpt>
      <trkpt lat="42.066599" lon="0.645383">
        <ele>938.00</ele>
        <time>2020-01-19T10:44:53.07Z</time>
      </trkpt>
      <trkpt lat="42.066677" lon="0.645299">
        <ele>935.00</ele>
        <time>2020-01-19T10:44:56.04Z</time>
      </trkpt>
      <trkpt lat="42.066756" lon="0.645216">
        <ele>935.00</ele>
        <time>2020-01-19T10:44:59.07Z</time>
      </trkpt>
      <trkpt lat="42.066849" lon="0.645161">
        <ele>934.00</ele>
        <time>2020-01-19T10:45:03.04Z</time>
      </trkpt>
      <trkpt lat="42.066951" lon="0.645107">
        <ele>933.00</ele>
        <time>2020-01-19T10:45:07.04Z</time>
      </trkpt>
      <trkpt lat="42.067027" lon="0.645038">
        <ele>932.00</ele>
        <time>2020-01-19T10:45:10.07Z</time>
      </trkpt>
      <trkpt lat="42.067108" lon="0.644957">
        <ele>930.00</ele>
        <time>2020-01-19T10:45:13.04Z</time>
      </trkpt>
      <trkpt lat="42.067204" lon="0.644864">
        <ele>929.35</ele>
        <time>2020-01-19T10:45:16.01Z</time>
      </trkpt>
      <trkpt lat="42.067295" lon="0.644773">
        <ele>928.00</ele>
        <time>2020-01-19T10:45:19.04Z</time>
      </trkpt>
      <trkpt lat="42.067378" lon="0.644687">
        <ele>928.00</ele>
        <time>2020-01-19T10:45:22.04Z</time>
      </trkpt>
      <trkpt lat="42.067466" lon="0.644601">
        <ele>924.00</ele>
        <time>2020-01-19T10:45:25.04Z</time>
      </trkpt>
      <trkpt lat="42.067568" lon="0.644482">
        <ele>923.58</ele>
        <time>2020-01-19T10:45:29.04Z</time>
      </trkpt>
      <trkpt lat="42.067632" lon="0.644340">
        <ele>921.88</ele>
        <time>2020-01-19T10:45:33.04Z</time>
      </trkpt>
      <trkpt lat="42.067668" lon="0.644227">
        <ele>919.00</ele>
        <time>2020-01-19T10:45:36.04Z</time>
      </trkpt>
      <trkpt lat="42.067719" lon="0.644090">
        <ele>917.00</ele>
        <time>2020-01-19T10:45:39.01Z</time>
      </trkpt>
      <trkpt lat="42.067766" lon="0.643953">
        <ele>915.00</ele>
        <time>2020-01-19T10:45:42.01Z</time>
      </trkpt>
      <trkpt lat="42.067821" lon="0.643773">
        <ele>914.00</ele>
        <time>2020-01-19T10:45:46.04Z</time>
      </trkpt>
      <trkpt lat="42.067863" lon="0.643645">
        <ele>911.00</ele>
        <time>2020-01-19T10:45:49.04Z</time>
      </trkpt>
      <trkpt lat="42.067914" lon="0.643542">
        <ele>910.55</ele>
        <time>2020-01-19T10:45:52.07Z</time>
      </trkpt>
      <trkpt lat="42.067971" lon="0.643379">
        <ele>908.16</ele>
        <time>2020-01-19T10:45:56.41Z</time>
      </trkpt>
      <trkpt lat="42.067948" lon="0.643190">
        <ele>907.05</ele>
        <time>2020-01-19T10:45:57.04Z</time>
      </trkpt>
      <trkpt lat="42.068004" lon="0.642965">
        <ele>907.00</ele>
        <time>2020-01-19T10:45:59.04Z</time>
      </trkpt>
      <trkpt lat="42.068113" lon="0.642957">
        <ele>905.00</ele>
        <time>2020-01-19T10:46:03.04Z</time>
      </trkpt>
      <trkpt lat="42.068139" lon="0.643088">
        <ele>904.00</ele>
        <time>2020-01-19T10:46:08.04Z</time>
      </trkpt>
      <trkpt lat="42.068159" lon="0.643222">
        <ele>903.00</ele>
        <time>2020-01-19T10:46:15.04Z</time>
      </trkpt>
      <trkpt lat="42.068188" lon="0.643340">
        <ele>903.00</ele>
        <time>2020-01-19T10:46:21.04Z</time>
      </trkpt>
      <trkpt lat="42.068201" lon="0.643464">
        <ele>903.00</ele>
        <time>2020-01-19T10:46:28.07Z</time>
      </trkpt>
      <trkpt lat="42.068292" lon="0.643442">
        <ele>901.00</ele>
        <time>2020-01-19T10:46:49.01Z</time>
      </trkpt>
      <trkpt lat="42.068395" lon="0.643290">
        <ele>898.79</ele>
        <time>2020-01-19T10:46:55.04Z</time>
      </trkpt>
      <trkpt lat="42.068438" lon="0.643172">
        <ele>897.00</ele>
        <time>2020-01-19T10:46:59.04Z</time>
      </trkpt>
      <trkpt lat="42.068477" lon="0.643062">
        <ele>895.09</ele>
        <time>2020-01-19T10:47:03.04Z</time>
      </trkpt>
      <trkpt lat="42.068517" lon="0.642940">
        <ele>895.00</ele>
        <time>2020-01-19T10:47:07.04Z</time>
      </trkpt>
      <trkpt lat="42.068595" lon="0.642834">
        <ele>894.00</ele>
        <time>2020-01-19T10:47:11.04Z</time>
      </trkpt>
      <trkpt lat="42.068634" lon="0.642723">
        <ele>893.00</ele>
        <time>2020-01-19T10:47:17.04Z</time>
      </trkpt>
      <trkpt lat="42.068661" lon="0.642580">
        <ele>893.00</ele>
        <time>2020-01-19T10:47:30.07Z</time>
      </trkpt>
      <trkpt lat="42.068669" lon="0.642451">
        <ele>893.00</ele>
        <time>2020-01-19T10:47:44.01Z</time>
      </trkpt>
      <trkpt lat="42.068718" lon="0.642323">
        <ele>892.00</ele>
        <time>2020-01-19T10:47:49.04Z</time>
      </trkpt>
      <trkpt lat="42.068760" lon="0.642185">
        <ele>892.00</ele>
        <time>2020-01-19T10:47:53.04Z</time>
      </trkpt>
      <trkpt lat="42.068791" lon="0.642034">
        <ele>891.00</ele>
        <time>2020-01-19T10:47:57.04Z</time>
      </trkpt>
      <trkpt lat="42.068764" lon="0.641875">
        <ele>891.00</ele>
        <time>2020-01-19T10:48:02.07Z</time>
      </trkpt>
      <trkpt lat="42.068719" lon="0.641756">
        <ele>889.00</ele>
        <time>2020-01-19T10:48:07.06Z</time>
      </trkpt>
      <trkpt lat="42.068644" lon="0.641685">
        <ele>886.93</ele>
        <time>2020-01-19T10:48:19.04Z</time>
      </trkpt>
      <trkpt lat="42.068570" lon="0.641610">
        <ele>886.00</ele>
        <time>2020-01-19T10:48:29.01Z</time>
      </trkpt>
      <trkpt lat="42.068529" lon="0.641494">
        <ele>886.00</ele>
        <time>2020-01-19T10:48:44.04Z</time>
      </trkpt>
      <trkpt lat="42.068483" lon="0.641369">
        <ele>886.00</ele>
        <time>2020-01-19T10:48:54.04Z</time>
      </trkpt>
      <trkpt lat="42.068416" lon="0.641243">
        <ele>887.00</ele>
        <time>2020-01-19T10:49:06.04Z</time>
      </trkpt>
      <trkpt lat="42.068371" lon="0.641137">
        <ele>887.00</ele>
        <time>2020-01-19T10:49:13.06Z</time>
      </trkpt>
      <trkpt lat="42.068311" lon="0.641032">
        <ele>888.00</ele>
        <time>2020-01-19T10:49:20.04Z</time>
      </trkpt>
      <trkpt lat="42.068261" lon="0.640918">
        <ele>888.00</ele>
        <time>2020-01-19T10:49:26.04Z</time>
      </trkpt>
      <trkpt lat="42.068214" lon="0.640804">
        <ele>888.00</ele>
        <time>2020-01-19T10:49:31.04Z</time>
      </trkpt>
      <trkpt lat="42.068161" lon="0.640690">
        <ele>889.00</ele>
        <time>2020-01-19T10:49:37.06Z</time>
      </trkpt>
      <trkpt lat="42.068106" lon="0.640574">
        <ele>889.00</ele>
        <time>2020-01-19T10:49:45.04Z</time>
      </trkpt>
      <trkpt lat="42.068050" lon="0.640475">
        <ele>889.09</ele>
        <time>2020-01-19T10:49:53.04Z</time>
      </trkpt>
      <trkpt lat="42.067987" lon="0.640364">
        <ele>890.00</ele>
        <time>2020-01-19T10:49:59.04Z</time>
      </trkpt>
      <trkpt lat="42.067914" lon="0.640292">
        <ele>890.00</ele>
        <time>2020-01-19T10:50:08.01Z</time>
      </trkpt>
      <trkpt lat="42.067831" lon="0.640227">
        <ele>890.00</ele>
        <time>2020-01-19T10:50:13.04Z</time>
      </trkpt>
      <trkpt lat="42.067742" lon="0.640173">
        <ele>890.00</ele>
        <time>2020-01-19T10:50:17.01Z</time>
      </trkpt>
      <trkpt lat="42.067619" lon="0.640110">
        <ele>890.00</ele>
        <time>2020-01-19T10:50:25.07Z</time>
      </trkpt>
      <trkpt lat="42.067527" lon="0.640047">
        <ele>890.00</ele>
        <time>2020-01-19T10:50:29.04Z</time>
      </trkpt>
      <trkpt lat="42.067384" lon="0.639981">
        <ele>890.00</ele>
        <time>2020-01-19T10:50:34.04Z</time>
      </trkpt>
      <trkpt lat="42.067258" lon="0.639947">
        <ele>890.00</ele>
        <time>2020-01-19T10:50:39.07Z</time>
      </trkpt>
      <trkpt lat="42.067171" lon="0.639896">
        <ele>890.00</ele>
        <time>2020-01-19T10:50:43.07Z</time>
      </trkpt>
      <trkpt lat="42.067078" lon="0.639857">
        <ele>889.00</ele>
        <time>2020-01-19T10:50:47.07Z</time>
      </trkpt>
      <trkpt lat="42.066983" lon="0.639798">
        <ele>889.00</ele>
        <time>2020-01-19T10:50:51.04Z</time>
      </trkpt>
      <trkpt lat="42.066893" lon="0.639734">
        <ele>888.74</ele>
        <time>2020-01-19T10:50:55.07Z</time>
      </trkpt>
      <trkpt lat="42.066796" lon="0.639655">
        <ele>888.00</ele>
        <time>2020-01-19T10:50:59.07Z</time>
      </trkpt>
      <trkpt lat="42.066696" lon="0.639584">
        <ele>888.00</ele>
        <time>2020-01-19T10:51:03.01Z</time>
      </trkpt>
      <trkpt lat="42.066558" lon="0.639489">
        <ele>888.00</ele>
        <time>2020-01-19T10:51:08.06Z</time>
      </trkpt>
      <trkpt lat="42.066451" lon="0.639422">
        <ele>888.00</ele>
        <time>2020-01-19T10:51:12.07Z</time>
      </trkpt>
      <trkpt lat="42.066340" lon="0.639373">
        <ele>888.00</ele>
        <time>2020-01-19T10:51:16.04Z</time>
      </trkpt>
      <trkpt lat="42.066244" lon="0.639360">
        <ele>888.00</ele>
        <time>2020-01-19T10:51:20.04Z</time>
      </trkpt>
      <trkpt lat="42.066147" lon="0.639398">
        <ele>888.00</ele>
        <time>2020-01-19T10:51:24.04Z</time>
      </trkpt>
      <trkpt lat="42.066049" lon="0.639432">
        <ele>886.00</ele>
        <time>2020-01-19T10:51:28.07Z</time>
      </trkpt>
      <trkpt lat="42.065950" lon="0.639481">
        <ele>886.00</ele>
        <time>2020-01-19T10:51:33.01Z</time>
      </trkpt>
      <trkpt lat="42.065858" lon="0.639543">
        <ele>885.00</ele>
        <time>2020-01-19T10:51:38.04Z</time>
      </trkpt>
      <trkpt lat="42.065770" lon="0.639592">
        <ele>885.00</ele>
        <time>2020-01-19T10:51:42.04Z</time>
      </trkpt>
      <trkpt lat="42.065679" lon="0.639634">
        <ele>883.00</ele>
        <time>2020-01-19T10:51:52.01Z</time>
      </trkpt>
      <trkpt lat="42.065594" lon="0.639692">
        <ele>882.00</ele>
        <time>2020-01-19T10:51:57.04Z</time>
      </trkpt>
      <trkpt lat="42.065512" lon="0.639768">
        <ele>882.00</ele>
        <time>2020-01-19T10:52:02.01Z</time>
      </trkpt>
      <trkpt lat="42.065408" lon="0.639867">
        <ele>879.00</ele>
        <time>2020-01-19T10:52:07.07Z</time>
      </trkpt>
      <trkpt lat="42.065341" lon="0.639959">
        <ele>878.89</ele>
        <time>2020-01-19T10:52:11.01Z</time>
      </trkpt>
      <trkpt lat="42.065285" lon="0.640067">
        <ele>877.93</ele>
        <time>2020-01-19T10:52:15.04Z</time>
      </trkpt>
      <trkpt lat="42.065234" lon="0.640208">
        <ele>877.00</ele>
        <time>2020-01-19T10:52:19.04Z</time>
      </trkpt>
      <trkpt lat="42.065193" lon="0.640330">
        <ele>876.00</ele>
        <time>2020-01-19T10:52:23.04Z</time>
      </trkpt>
      <trkpt lat="42.065150" lon="0.640461">
        <ele>876.00</ele>
        <time>2020-01-19T10:52:27.04Z</time>
      </trkpt>
      <trkpt lat="42.065134" lon="0.640589">
        <ele>873.00</ele>
        <time>2020-01-19T10:52:31.07Z</time>
      </trkpt>
      <trkpt lat="42.065062" lon="0.640693">
        <ele>868.00</ele>
        <time>2020-01-19T10:52:36.04Z</time>
      </trkpt>
      <trkpt lat="42.064941" lon="0.640709">
        <ele>867.77</ele>
        <time>2020-01-19T10:52:41.01Z</time>
      </trkpt>
      <trkpt lat="42.064802" lon="0.640668">
        <ele>865.00</ele>
        <time>2020-01-19T10:52:46.06Z</time>
      </trkpt>
      <trkpt lat="42.064709" lon="0.640610">
        <ele>864.00</ele>
        <time>2020-01-19T10:52:50.04Z</time>
      </trkpt>
      <trkpt lat="42.064604" lon="0.640546">
        <ele>863.00</ele>
        <time>2020-01-19T10:52:54.01Z</time>
      </trkpt>
      <trkpt lat="42.064500" lon="0.640501">
        <ele>863.00</ele>
        <time>2020-01-19T10:52:58.06Z</time>
      </trkpt>
      <trkpt lat="42.064401" lon="0.640456">
        <ele>861.00</ele>
        <time>2020-01-19T10:53:02.01Z</time>
      </trkpt>
      <trkpt lat="42.064282" lon="0.640398">
        <ele>861.00</ele>
        <time>2020-01-19T10:53:07.06Z</time>
      </trkpt>
      <trkpt lat="42.064173" lon="0.640344">
        <ele>860.00</ele>
        <time>2020-01-19T10:53:11.04Z</time>
      </trkpt>
      <trkpt lat="42.064059" lon="0.640288">
        <ele>859.15</ele>
        <time>2020-01-19T10:53:15.04Z</time>
      </trkpt>
      <trkpt lat="42.063965" lon="0.640248">
        <ele>856.05</ele>
        <time>2020-01-19T10:53:19.04Z</time>
      </trkpt>
      <trkpt lat="42.063853" lon="0.640201">
        <ele>855.87</ele>
        <time>2020-01-19T10:53:23.04Z</time>
      </trkpt>
      <trkpt lat="42.063742" lon="0.640168">
        <ele>855.00</ele>
        <time>2020-01-19T10:53:27.01Z</time>
      </trkpt>
      <trkpt lat="42.063655" lon="0.640126">
        <ele>852.00</ele>
        <time>2020-01-19T10:53:30.06Z</time>
      </trkpt>
      <trkpt lat="42.063569" lon="0.640064">
        <ele>852.00</ele>
        <time>2020-01-19T10:53:34.07Z</time>
      </trkpt>
      <trkpt lat="42.063474" lon="0.640025">
        <ele>851.91</ele>
        <time>2020-01-19T10:53:38.04Z</time>
      </trkpt>
      <trkpt lat="42.063335" lon="0.639952">
        <ele>851.00</ele>
        <time>2020-01-19T10:53:43.07Z</time>
      </trkpt>
      <trkpt lat="42.063246" lon="0.639906">
        <ele>849.00</ele>
        <time>2020-01-19T10:53:46.01Z</time>
      </trkpt>
      <trkpt lat="42.063149" lon="0.639848">
        <ele>848.85</ele>
        <time>2020-01-19T10:53:50.07Z</time>
      </trkpt>
      <trkpt lat="42.063048" lon="0.639830">
        <ele>847.00</ele>
        <time>2020-01-19T10:53:55.04Z</time>
      </trkpt>
      <trkpt lat="42.062942" lon="0.639828">
        <ele>846.00</ele>
        <time>2020-01-19T10:54:00.04Z</time>
      </trkpt>
      <trkpt lat="42.062846" lon="0.639859">
        <ele>846.00</ele>
        <time>2020-01-19T10:54:04.01Z</time>
      </trkpt>
      <trkpt lat="42.062742" lon="0.639950">
        <ele>847.00</ele>
        <time>2020-01-19T10:54:11.04Z</time>
      </trkpt>
      <trkpt lat="42.062667" lon="0.640029">
        <ele>845.00</ele>
        <time>2020-01-19T10:54:18.01Z</time>
      </trkpt>
      <trkpt lat="42.062578" lon="0.640056">
        <ele>844.00</ele>
        <time>2020-01-19T10:54:30.06Z</time>
      </trkpt>
      <trkpt lat="42.062515" lon="0.640186">
        <ele>844.00</ele>
        <time>2020-01-19T10:54:49.07Z</time>
      </trkpt>
      <trkpt lat="42.062437" lon="0.640302">
        <ele>844.00</ele>
        <time>2020-01-19T10:54:53.04Z</time>
      </trkpt>
      <trkpt lat="42.062390" lon="0.640416">
        <ele>844.00</ele>
        <time>2020-01-19T10:55:02.04Z</time>
      </trkpt>
      <trkpt lat="42.062346" lon="0.640533">
        <ele>842.00</ele>
        <time>2020-01-19T10:55:10.04Z</time>
      </trkpt>
      <trkpt lat="42.062321" lon="0.640651">
        <ele>841.00</ele>
        <time>2020-01-19T10:55:26.04Z</time>
      </trkpt>
      <trkpt lat="42.062257" lon="0.640747">
        <ele>840.00</ele>
        <time>2020-01-19T10:55:50.04Z</time>
      </trkpt>
      <trkpt lat="42.062207" lon="0.640879">
        <ele>838.00</ele>
        <time>2020-01-19T10:55:59.06Z</time>
      </trkpt>
      <trkpt lat="42.062161" lon="0.641007">
        <ele>835.00</ele>
        <time>2020-01-19T10:56:05.04Z</time>
      </trkpt>
      <trkpt lat="42.062153" lon="0.641129">
        <ele>835.00</ele>
        <time>2020-01-19T10:56:09.01Z</time>
      </trkpt>
      <trkpt lat="42.062143" lon="0.641312">
        <ele>834.00</ele>
        <time>2020-01-19T10:56:14.98Z</time>
      </trkpt>
      <trkpt lat="42.062177" lon="0.641502">
        <ele>831.00</ele>
        <time>2020-01-19T10:56:19.07Z</time>
      </trkpt>
      <trkpt lat="42.062152" lon="0.641640">
        <ele>828.00</ele>
        <time>2020-01-19T10:56:23.07Z</time>
      </trkpt>
      <trkpt lat="42.062114" lon="0.641784">
        <ele>827.00</ele>
        <time>2020-01-19T10:56:27.01Z</time>
      </trkpt>
      <trkpt lat="42.062085" lon="0.641900">
        <ele>825.00</ele>
        <time>2020-01-19T10:56:31.04Z</time>
      </trkpt>
      <trkpt lat="42.062030" lon="0.642031">
        <ele>823.00</ele>
        <time>2020-01-19T10:56:35.04Z</time>
      </trkpt>
      <trkpt lat="42.061963" lon="0.642178">
        <ele>822.33</ele>
        <time>2020-01-19T10:56:40.07Z</time>
      </trkpt>
      <trkpt lat="42.061931" lon="0.642298">
        <ele>819.23</ele>
        <time>2020-01-19T10:56:43.04Z</time>
      </trkpt>
      <trkpt lat="42.061895" lon="0.642441">
        <ele>816.80</ele>
        <time>2020-01-19T10:56:47.01Z</time>
      </trkpt>
      <trkpt lat="42.061877" lon="0.642562">
        <ele>816.00</ele>
        <time>2020-01-19T10:56:50.04Z</time>
      </trkpt>
      <trkpt lat="42.061872" lon="0.642709">
        <ele>814.00</ele>
        <time>2020-01-19T10:56:53.01Z</time>
      </trkpt>
      <trkpt lat="42.061859" lon="0.642854">
        <ele>812.00</ele>
        <time>2020-01-19T10:56:56.04Z</time>
      </trkpt>
      <trkpt lat="42.061854" lon="0.642990">
        <ele>811.89</ele>
        <time>2020-01-19T10:56:59.01Z</time>
      </trkpt>
      <trkpt lat="42.061838" lon="0.643130">
        <ele>810.71</ele>
        <time>2020-01-19T10:57:02.04Z</time>
      </trkpt>
      <trkpt lat="42.061797" lon="0.643254">
        <ele>810.00</ele>
        <time>2020-01-19T10:57:05.07Z</time>
      </trkpt>
      <trkpt lat="42.061754" lon="0.643371">
        <ele>809.00</ele>
        <time>2020-01-19T10:57:08.04Z</time>
      </trkpt>
      <trkpt lat="42.061714" lon="0.643486">
        <ele>809.00</ele>
        <time>2020-01-19T10:57:11.04Z</time>
      </trkpt>
      <trkpt lat="42.061684" lon="0.643634">
        <ele>807.02</ele>
        <time>2020-01-19T10:57:15.01Z</time>
      </trkpt>
      <trkpt lat="42.061659" lon="0.643772">
        <ele>807.00</ele>
        <time>2020-01-19T10:57:18.01Z</time>
      </trkpt>
      <trkpt lat="42.061645" lon="0.643906">
        <ele>802.00</ele>
        <time>2020-01-19T10:57:21.07Z</time>
      </trkpt>
      <trkpt lat="42.061614" lon="0.644056">
        <ele>800.00</ele>
        <time>2020-01-19T10:57:24.04Z</time>
      </trkpt>
      <trkpt lat="42.061554" lon="0.644152">
        <ele>799.67</ele>
        <time>2020-01-19T10:57:26.04Z</time>
      </trkpt>
      <trkpt lat="42.061451" lon="0.644251">
        <ele>798.00</ele>
        <time>2020-01-19T10:57:29.04Z</time>
      </trkpt>
      <trkpt lat="42.061350" lon="0.644346">
        <ele>797.20</ele>
        <time>2020-01-19T10:57:32.07Z</time>
      </trkpt>
      <trkpt lat="42.061262" lon="0.644514">
        <ele>793.89</ele>
        <time>2020-01-19T10:57:36.06Z</time>
      </trkpt>
      <trkpt lat="42.061219" lon="0.644647">
        <ele>792.00</ele>
        <time>2020-01-19T10:57:39.01Z</time>
      </trkpt>
      <trkpt lat="42.061184" lon="0.644866">
        <ele>789.00</ele>
        <time>2020-01-19T10:57:43.07Z</time>
      </trkpt>
      <trkpt lat="42.061164" lon="0.645037">
        <ele>787.00</ele>
        <time>2020-01-19T10:57:46.04Z</time>
      </trkpt>
      <trkpt lat="42.061152" lon="0.645180">
        <ele>784.56</ele>
        <time>2020-01-19T10:57:49.01Z</time>
      </trkpt>
      <trkpt lat="42.061153" lon="0.645316">
        <ele>784.00</ele>
        <time>2020-01-19T10:57:52.01Z</time>
      </trkpt>
      <trkpt lat="42.061154" lon="0.645444">
        <ele>780.00</ele>
        <time>2020-01-19T10:57:55.06Z</time>
      </trkpt>
      <trkpt lat="42.061172" lon="0.645592">
        <ele>775.98</ele>
        <time>2020-01-19T10:57:59.01Z</time>
      </trkpt>
      <trkpt lat="42.061167" lon="0.645744">
        <ele>774.00</ele>
        <time>2020-01-19T10:58:05.04Z</time>
      </trkpt>
      <trkpt lat="42.061077" lon="0.645844">
        <ele>773.00</ele>
        <time>2020-01-19T10:58:12.04Z</time>
      </trkpt>
      <trkpt lat="42.060989" lon="0.645911">
        <ele>773.00</ele>
        <time>2020-01-19T10:58:17.04Z</time>
      </trkpt>
      <trkpt lat="42.060894" lon="0.645959">
        <ele>772.21</ele>
        <time>2020-01-19T10:58:21.04Z</time>
      </trkpt>
      <trkpt lat="42.060805" lon="0.645978">
        <ele>772.00</ele>
        <time>2020-01-19T10:58:25.04Z</time>
      </trkpt>
      <trkpt lat="42.060738" lon="0.646103">
        <ele>771.48</ele>
        <time>2020-01-19T10:58:33.04Z</time>
      </trkpt>
      <trkpt lat="42.060675" lon="0.646241">
        <ele>770.00</ele>
        <time>2020-01-19T10:58:36.04Z</time>
      </trkpt>
      <trkpt lat="42.060608" lon="0.646328">
        <ele>769.00</ele>
        <time>2020-01-19T10:58:41.04Z</time>
      </trkpt>
      <trkpt lat="42.060500" lon="0.646400">
        <ele>769.00</ele>
        <time>2020-01-19T10:58:46.04Z</time>
      </trkpt>
      <trkpt lat="42.060401" lon="0.646400">
        <ele>769.00</ele>
        <time>2020-01-19T10:58:50.04Z</time>
      </trkpt>
      <trkpt lat="42.060306" lon="0.646371">
        <ele>769.00</ele>
        <time>2020-01-19T10:58:53.04Z</time>
      </trkpt>
      <trkpt lat="42.060199" lon="0.646365">
        <ele>768.09</ele>
        <time>2020-01-19T10:58:57.04Z</time>
      </trkpt>
      <trkpt lat="42.060117" lon="0.646447">
        <ele>768.00</ele>
        <time>2020-01-19T10:59:01.06Z</time>
      </trkpt>
      <trkpt lat="42.060043" lon="0.646533">
        <ele>765.00</ele>
        <time>2020-01-19T10:59:04.03Z</time>
      </trkpt>
      <trkpt lat="42.059973" lon="0.646613">
        <ele>765.00</ele>
        <time>2020-01-19T10:59:07.06Z</time>
      </trkpt>
      <trkpt lat="42.059900" lon="0.646684">
        <ele>765.00</ele>
        <time>2020-01-19T10:59:10.04Z</time>
      </trkpt>
      <trkpt lat="42.059792" lon="0.646747">
        <ele>762.00</ele>
        <time>2020-01-19T10:59:14.07Z</time>
      </trkpt>
      <trkpt lat="42.059676" lon="0.646746">
        <ele>757.00</ele>
        <time>2020-01-19T10:59:18.04Z</time>
      </trkpt>
      <trkpt lat="42.059597" lon="0.646685">
        <ele>755.00</ele>
        <time>2020-01-19T10:59:23.04Z</time>
      </trkpt>
      <trkpt lat="42.059509" lon="0.646639">
        <ele>757.00</ele>
        <time>2020-01-19T10:59:32.04Z</time>
      </trkpt>
      <trkpt lat="42.059412" lon="0.646602">
        <ele>757.00</ele>
        <time>2020-01-19T10:59:38.04Z</time>
      </trkpt>
      <trkpt lat="42.059315" lon="0.646569">
        <ele>757.00</ele>
        <time>2020-01-19T10:59:44.04Z</time>
      </trkpt>
      <trkpt lat="42.059205" lon="0.646484">
        <ele>756.87</ele>
        <time>2020-01-19T10:59:49.07Z</time>
      </trkpt>
      <trkpt lat="42.059132" lon="0.646396">
        <ele>756.00</ele>
        <time>2020-01-19T10:59:53.07Z</time>
      </trkpt>
      <trkpt lat="42.059037" lon="0.646346">
        <ele>756.00</ele>
        <time>2020-01-19T10:59:58.04Z</time>
      </trkpt>
      <trkpt lat="42.058908" lon="0.646358">
        <ele>757.00</ele>
        <time>2020-01-19T11:00:06.14Z</time>
      </trkpt>
      <trkpt lat="42.058823" lon="0.646422">
        <ele>757.00</ele>
        <time>2020-01-19T11:00:10.01Z</time>
      </trkpt>
      <trkpt lat="42.058752" lon="0.646498">
        <ele>757.00</ele>
        <time>2020-01-19T11:00:17.14Z</time>
      </trkpt>
      <trkpt lat="42.058669" lon="0.646594">
        <ele>757.00</ele>
        <time>2020-01-19T11:00:23.04Z</time>
      </trkpt>
      <trkpt lat="42.058572" lon="0.646726">
        <ele>759.00</ele>
        <time>2020-01-19T11:00:31.14Z</time>
      </trkpt>
      <trkpt lat="42.058498" lon="0.646841">
        <ele>761.00</ele>
        <time>2020-01-19T11:00:40.06Z</time>
      </trkpt>
      <trkpt lat="42.058416" lon="0.646890">
        <ele>762.00</ele>
        <time>2020-01-19T11:00:49.04Z</time>
      </trkpt>
      <trkpt lat="42.058320" lon="0.646914">
        <ele>762.00</ele>
        <time>2020-01-19T11:00:56.01Z</time>
      </trkpt>
      <trkpt lat="42.058237" lon="0.646992">
        <ele>761.10</ele>
        <time>2020-01-19T11:01:03.06Z</time>
      </trkpt>
      <trkpt lat="42.058157" lon="0.647070">
        <ele>762.00</ele>
        <time>2020-01-19T11:01:14.04Z</time>
      </trkpt>
      <trkpt lat="42.058084" lon="0.647167">
        <ele>762.00</ele>
        <time>2020-01-19T11:01:21.04Z</time>
      </trkpt>
      <trkpt lat="42.058007" lon="0.647237">
        <ele>762.00</ele>
        <time>2020-01-19T11:01:30.04Z</time>
      </trkpt>
      <trkpt lat="42.057943" lon="0.647339">
        <ele>762.00</ele>
        <time>2020-01-19T11:01:43.07Z</time>
      </trkpt>
      <trkpt lat="42.057899" lon="0.647458">
        <ele>764.00</ele>
        <time>2020-01-19T11:01:53.04Z</time>
      </trkpt>
      <trkpt lat="42.057826" lon="0.647596">
        <ele>764.00</ele>
        <time>2020-01-19T11:02:01.07Z</time>
      </trkpt>
      <trkpt lat="42.057780" lon="0.647719">
        <ele>764.00</ele>
        <time>2020-01-19T11:02:07.04Z</time>
      </trkpt>
      <trkpt lat="42.057734" lon="0.647833">
        <ele>764.00</ele>
        <time>2020-01-19T11:02:11.04Z</time>
      </trkpt>
      <trkpt lat="42.057704" lon="0.648000">
        <ele>764.00</ele>
        <time>2020-01-19T11:02:15.07Z</time>
      </trkpt>
      <trkpt lat="42.057695" lon="0.648141">
        <ele>762.00</ele>
        <time>2020-01-19T11:02:18.04Z</time>
      </trkpt>
      <trkpt lat="42.057672" lon="0.648399">
        <ele>762.00</ele>
        <time>2020-01-19T11:02:23.14Z</time>
      </trkpt>
      <trkpt lat="42.057603" lon="0.648623">
        <ele>762.00</ele>
        <time>2020-01-19T11:02:25.04Z</time>
      </trkpt>
      <trkpt lat="42.057562" lon="0.648802">
        <ele>760.00</ele>
        <time>2020-01-19T11:02:27.04Z</time>
      </trkpt>
      <trkpt lat="42.057571" lon="0.648924">
        <ele>760.00</ele>
        <time>2020-01-19T11:02:30.07Z</time>
      </trkpt>
      <trkpt lat="42.057583" lon="0.649052">
        <ele>761.00</ele>
        <time>2020-01-19T11:02:33.07Z</time>
      </trkpt>
      <trkpt lat="42.057570" lon="0.649200">
        <ele>761.00</ele>
        <time>2020-01-19T11:02:37.01Z</time>
      </trkpt>
      <trkpt lat="42.057540" lon="0.649316">
        <ele>761.00</ele>
        <time>2020-01-19T11:02:40.04Z</time>
      </trkpt>
      <trkpt lat="42.057494" lon="0.649431">
        <ele>760.45</ele>
        <time>2020-01-19T11:02:43.01Z</time>
      </trkpt>
      <trkpt lat="42.057431" lon="0.649562">
        <ele>759.00</ele>
        <time>2020-01-19T11:02:47.04Z</time>
      </trkpt>
      <trkpt lat="42.057363" lon="0.649667">
        <ele>759.00</ele>
        <time>2020-01-19T11:02:51.04Z</time>
      </trkpt>
      <trkpt lat="42.057295" lon="0.649747">
        <ele>758.00</ele>
        <time>2020-01-19T11:02:54.04Z</time>
      </trkpt>
      <trkpt lat="42.057218" lon="0.649839">
        <ele>758.00</ele>
        <time>2020-01-19T11:02:57.07Z</time>
      </trkpt>
      <trkpt lat="42.057093" lon="0.649893">
        <ele>758.00</ele>
        <time>2020-01-19T11:03:01.07Z</time>
      </trkpt>
      <trkpt lat="42.057003" lon="0.649907">
        <ele>757.02</ele>
        <time>2020-01-19T11:03:04.01Z</time>
      </trkpt>
      <trkpt lat="42.056889" lon="0.649913">
        <ele>755.00</ele>
        <time>2020-01-19T11:03:08.06Z</time>
      </trkpt>
      <trkpt lat="42.056795" lon="0.649923">
        <ele>755.00</ele>
        <time>2020-01-19T11:03:11.01Z</time>
      </trkpt>
      <trkpt lat="42.056643" lon="0.649941">
        <ele>757.39</ele>
        <time>2020-01-19T11:03:16.07Z</time>
      </trkpt>
      <trkpt lat="42.056523" lon="0.649962">
        <ele>758.00</ele>
        <time>2020-01-19T11:03:20.07Z</time>
      </trkpt>
      <trkpt lat="42.056393" lon="0.649970">
        <ele>759.00</ele>
        <time>2020-01-19T11:03:25.06Z</time>
      </trkpt>
      <trkpt lat="42.056282" lon="0.649935">
        <ele>758.00</ele>
        <time>2020-01-19T11:03:29.04Z</time>
      </trkpt>
      <trkpt lat="42.056187" lon="0.649901">
        <ele>758.00</ele>
        <time>2020-01-19T11:03:33.01Z</time>
      </trkpt>
      <trkpt lat="42.056097" lon="0.649874">
        <ele>757.96</ele>
        <time>2020-01-19T11:03:36.04Z</time>
      </trkpt>
      <trkpt lat="42.055989" lon="0.649867">
        <ele>757.00</ele>
        <time>2020-01-19T11:03:39.06Z</time>
      </trkpt>
      <trkpt lat="42.055888" lon="0.649870">
        <ele>757.00</ele>
        <time>2020-01-19T11:03:42.06Z</time>
      </trkpt>
      <trkpt lat="42.055783" lon="0.649895">
        <ele>757.00</ele>
        <time>2020-01-19T11:03:47.07Z</time>
      </trkpt>
      <trkpt lat="42.055674" lon="0.649907">
        <ele>756.00</ele>
        <time>2020-01-19T11:03:52.01Z</time>
      </trkpt>
      <trkpt lat="42.055577" lon="0.649924">
        <ele>756.00</ele>
        <time>2020-01-19T11:03:56.04Z</time>
      </trkpt>
      <trkpt lat="42.055466" lon="0.649944">
        <ele>757.00</ele>
        <time>2020-01-19T11:04:02.06Z</time>
      </trkpt>
      <trkpt lat="42.055398" lon="0.650040">
        <ele>754.00</ele>
        <time>2020-01-19T11:04:12.06Z</time>
      </trkpt>
      <trkpt lat="42.055336" lon="0.650141">
        <ele>757.00</ele>
        <time>2020-01-19T11:04:19.01Z</time>
      </trkpt>
      <trkpt lat="42.055262" lon="0.650224">
        <ele>759.00</ele>
        <time>2020-01-19T11:04:24.01Z</time>
      </trkpt>
      <trkpt lat="42.055171" lon="0.650306">
        <ele>758.00</ele>
        <time>2020-01-19T11:04:30.06Z</time>
      </trkpt>
      <trkpt lat="42.055117" lon="0.650406">
        <ele>762.00</ele>
        <time>2020-01-19T11:04:41.04Z</time>
      </trkpt>
      <trkpt lat="42.055116" lon="0.650543">
        <ele>765.00</ele>
        <time>2020-01-19T11:04:52.04Z</time>
      </trkpt>
      <trkpt lat="42.055133" lon="0.650669">
        <ele>768.00</ele>
        <time>2020-01-19T11:05:02.04Z</time>
      </trkpt>
      <trkpt lat="42.055117" lon="0.650797">
        <ele>767.00</ele>
        <time>2020-01-19T11:05:09.04Z</time>
      </trkpt>
      <trkpt lat="42.055094" lon="0.650939">
        <ele>767.00</ele>
        <time>2020-01-19T11:05:15.04Z</time>
      </trkpt>
      <trkpt lat="42.055032" lon="0.651066">
        <ele>765.00</ele>
        <time>2020-01-19T11:05:36.04Z</time>
      </trkpt>
      <trkpt lat="42.055038" lon="0.651203">
        <ele>767.00</ele>
        <time>2020-01-19T11:05:46.01Z</time>
      </trkpt>
      <trkpt lat="42.054994" lon="0.651350">
        <ele>767.00</ele>
        <time>2020-01-19T11:05:54.04Z</time>
      </trkpt>
      <trkpt lat="42.054943" lon="0.651464">
        <ele>771.00</ele>
        <time>2020-01-19T11:06:00.04Z</time>
      </trkpt>
      <trkpt lat="42.054924" lon="0.651592">
        <ele>770.00</ele>
        <time>2020-01-19T11:06:09.07Z</time>
      </trkpt>
      <trkpt lat="42.054918" lon="0.651724">
        <ele>770.00</ele>
        <time>2020-01-19T11:06:18.01Z</time>
      </trkpt>
      <trkpt lat="42.054868" lon="0.651834">
        <ele>769.00</ele>
        <time>2020-01-19T11:06:24.04Z</time>
      </trkpt>
      <trkpt lat="42.054792" lon="0.651911">
        <ele>770.00</ele>
        <time>2020-01-19T11:06:29.04Z</time>
      </trkpt>
      <trkpt lat="42.054701" lon="0.651951">
        <ele>770.00</ele>
        <time>2020-01-19T11:06:33.06Z</time>
      </trkpt>
      <trkpt lat="42.054599" lon="0.651969">
        <ele>770.00</ele>
        <time>2020-01-19T11:06:37.04Z</time>
      </trkpt>
      <trkpt lat="42.054490" lon="0.651983">
        <ele>770.00</ele>
        <time>2020-01-19T11:06:42.04Z</time>
      </trkpt>
      <trkpt lat="42.054413" lon="0.652055">
        <ele>770.00</ele>
        <time>2020-01-19T11:06:48.04Z</time>
      </trkpt>
      <trkpt lat="42.054370" lon="0.652170">
        <ele>771.00</ele>
        <time>2020-01-19T11:06:57.04Z</time>
      </trkpt>
      <trkpt lat="42.054357" lon="0.652306">
        <ele>774.00</ele>
        <time>2020-01-19T11:07:07.04Z</time>
      </trkpt>
      <trkpt lat="42.054381" lon="0.652430">
        <ele>775.00</ele>
        <time>2020-01-19T11:07:13.04Z</time>
      </trkpt>
      <trkpt lat="42.054385" lon="0.652554">
        <ele>776.08</ele>
        <time>2020-01-19T11:07:20.04Z</time>
      </trkpt>
      <trkpt lat="42.054368" lon="0.652683">
        <ele>776.75</ele>
        <time>2020-01-19T11:07:25.04Z</time>
      </trkpt>
      <trkpt lat="42.054375" lon="0.652826">
        <ele>776.00</ele>
        <time>2020-01-19T11:07:30.07Z</time>
      </trkpt>
      <trkpt lat="42.054324" lon="0.652943">
        <ele>775.00</ele>
        <time>2020-01-19T11:07:36.04Z</time>
      </trkpt>
      <trkpt lat="42.054254" lon="0.653019">
        <ele>775.00</ele>
        <time>2020-01-19T11:07:40.04Z</time>
      </trkpt>
      <trkpt lat="42.054166" lon="0.653094">
        <ele>777.00</ele>
        <time>2020-01-19T11:07:47.07Z</time>
      </trkpt>
      <trkpt lat="42.054080" lon="0.653177">
        <ele>779.00</ele>
        <time>2020-01-19T11:07:58.04Z</time>
      </trkpt>
      <trkpt lat="42.053993" lon="0.653255">
        <ele>779.21</ele>
        <time>2020-01-19T11:08:03.01Z</time>
      </trkpt>
      <trkpt lat="42.053904" lon="0.653328">
        <ele>780.00</ele>
        <time>2020-01-19T11:08:08.01Z</time>
      </trkpt>
      <trkpt lat="42.053820" lon="0.653398">
        <ele>780.00</ele>
        <time>2020-01-19T11:08:14.04Z</time>
      </trkpt>
      <trkpt lat="42.053740" lon="0.653469">
        <ele>780.00</ele>
        <time>2020-01-19T11:08:21.01Z</time>
      </trkpt>
      <trkpt lat="42.053668" lon="0.653549">
        <ele>780.00</ele>
        <time>2020-01-19T11:08:29.01Z</time>
      </trkpt>
      <trkpt lat="42.053603" lon="0.653636">
        <ele>779.00</ele>
        <time>2020-01-19T11:08:41.04Z</time>
      </trkpt>
      <trkpt lat="42.053547" lon="0.653734">
        <ele>779.00</ele>
        <time>2020-01-19T11:08:53.04Z</time>
      </trkpt>
      <trkpt lat="42.053479" lon="0.653822">
        <ele>779.00</ele>
        <time>2020-01-19T11:09:00.04Z</time>
      </trkpt>
      <trkpt lat="42.053399" lon="0.653913">
        <ele>779.00</ele>
        <time>2020-01-19T11:09:06.04Z</time>
      </trkpt>
      <trkpt lat="42.053323" lon="0.653979">
        <ele>779.00</ele>
        <time>2020-01-19T11:09:11.04Z</time>
      </trkpt>
      <trkpt lat="42.053232" lon="0.654024">
        <ele>779.00</ele>
        <time>2020-01-19T11:09:15.04Z</time>
      </trkpt>
      <trkpt lat="42.053144" lon="0.653988">
        <ele>782.00</ele>
        <time>2020-01-19T11:09:29.04Z</time>
      </trkpt>
      <trkpt lat="42.053068" lon="0.654054">
        <ele>782.00</ele>
        <time>2020-01-19T11:09:34.04Z</time>
      </trkpt>
      <trkpt lat="42.052985" lon="0.654148">
        <ele>783.00</ele>
        <time>2020-01-19T11:09:39.04Z</time>
      </trkpt>
      <trkpt lat="42.052896" lon="0.654210">
        <ele>783.00</ele>
        <time>2020-01-19T11:09:45.04Z</time>
      </trkpt>
      <trkpt lat="42.052824" lon="0.654311">
        <ele>784.00</ele>
        <time>2020-01-19T11:09:51.04Z</time>
      </trkpt>
      <trkpt lat="42.052748" lon="0.654417">
        <ele>783.00</ele>
        <time>2020-01-19T11:10:01.04Z</time>
      </trkpt>
      <trkpt lat="42.052698" lon="0.654522">
        <ele>784.00</ele>
        <time>2020-01-19T11:10:11.04Z</time>
      </trkpt>
      <trkpt lat="42.052636" lon="0.654630">
        <ele>785.00</ele>
        <time>2020-01-19T11:10:19.04Z</time>
      </trkpt>
      <trkpt lat="42.052569" lon="0.654744">
        <ele>785.00</ele>
        <time>2020-01-19T11:10:24.04Z</time>
      </trkpt>
      <trkpt lat="42.052530" lon="0.654871">
        <ele>785.00</ele>
        <time>2020-01-19T11:10:29.01Z</time>
      </trkpt>
      <trkpt lat="42.052472" lon="0.654994">
        <ele>790.00</ele>
        <time>2020-01-19T11:10:38.04Z</time>
      </trkpt>
      <trkpt lat="42.052432" lon="0.655104">
        <ele>790.60</ele>
        <time>2020-01-19T11:10:47.01Z</time>
      </trkpt>
      <trkpt lat="42.052361" lon="0.655188">
        <ele>793.00</ele>
        <time>2020-01-19T11:10:55.04Z</time>
      </trkpt>
      <trkpt lat="42.052271" lon="0.655313">
        <ele>793.00</ele>
        <time>2020-01-19T11:10:59.04Z</time>
      </trkpt>
      <trkpt lat="42.052189" lon="0.655386">
        <ele>794.00</ele>
        <time>2020-01-19T11:11:02.04Z</time>
      </trkpt>
      <trkpt lat="42.052078" lon="0.655408">
        <ele>796.00</ele>
        <time>2020-01-19T11:11:08.04Z</time>
      </trkpt>
      <trkpt lat="42.051997" lon="0.655355">
        <ele>794.00</ele>
        <time>2020-01-19T11:11:18.01Z</time>
      </trkpt>
      <trkpt lat="42.051911" lon="0.655299">
        <ele>792.00</ele>
        <time>2020-01-19T11:13:50.01Z</time>
      </trkpt>
      <trkpt lat="42.051847" lon="0.655210">
        <ele>796.00</ele>
        <time>2020-01-19T11:16:45.04Z</time>
      </trkpt>
      <trkpt lat="42.051918" lon="0.655290">
        <ele>794.00</ele>
        <time>2020-01-19T11:19:00.04Z</time>
      </trkpt>
      <trkpt lat="42.052000" lon="0.655406">
        <ele>796.00</ele>
        <time>2020-01-19T11:19:06.04Z</time>
      </trkpt>
      <trkpt lat="42.052105" lon="0.655430">
        <ele>794.00</ele>
        <time>2020-01-19T11:19:12.04Z</time>
      </trkpt>
      <trkpt lat="42.052183" lon="0.655494">
        <ele>793.00</ele>
        <time>2020-01-19T11:19:27.04Z</time>
      </trkpt>
      <trkpt lat="42.052183" lon="0.655629">
        <ele>790.00</ele>
        <time>2020-01-19T11:20:02.04Z</time>
      </trkpt>
      <trkpt lat="42.052216" lon="0.655746">
        <ele>792.00</ele>
        <time>2020-01-19T11:20:19.04Z</time>
      </trkpt>
      <trkpt lat="42.052302" lon="0.655696">
        <ele>797.00</ele>
        <time>2020-01-19T11:20:47.07Z</time>
      </trkpt>
      <trkpt lat="42.052329" lon="0.655814">
        <ele>792.00</ele>
        <time>2020-01-19T11:21:28.04Z</time>
      </trkpt>
      <trkpt lat="42.052379" lon="0.655946">
        <ele>789.00</ele>
        <time>2020-01-19T11:21:35.04Z</time>
      </trkpt>
      <trkpt lat="42.052422" lon="0.656059">
        <ele>788.00</ele>
        <time>2020-01-19T11:21:39.04Z</time>
      </trkpt>
      <trkpt lat="42.052527" lon="0.656263">
        <ele>788.00</ele>
        <time>2020-01-19T11:21:48.04Z</time>
      </trkpt>
      <trkpt lat="42.052554" lon="0.656406">
        <ele>785.00</ele>
        <time>2020-01-19T11:21:53.04Z</time>
      </trkpt>
      <trkpt lat="42.052581" lon="0.656545">
        <ele>784.00</ele>
        <time>2020-01-19T11:21:57.01Z</time>
      </trkpt>
      <trkpt lat="42.052625" lon="0.656651">
        <ele>783.00</ele>
        <time>2020-01-19T11:22:00.01Z</time>
      </trkpt>
      <trkpt lat="42.052681" lon="0.656770">
        <ele>783.00</ele>
        <time>2020-01-19T11:22:05.04Z</time>
      </trkpt>
      <trkpt lat="42.052745" lon="0.656931">
        <ele>783.00</ele>
        <time>2020-01-19T11:22:11.07Z</time>
      </trkpt>
      <trkpt lat="42.052811" lon="0.657047">
        <ele>782.75</ele>
        <time>2020-01-19T11:22:16.04Z</time>
      </trkpt>
      <trkpt lat="42.052863" lon="0.657173">
        <ele>778.39</ele>
        <time>2020-01-19T11:22:23.04Z</time>
      </trkpt>
      <trkpt lat="42.052970" lon="0.657237">
        <ele>777.00</ele>
        <time>2020-01-19T11:22:28.07Z</time>
      </trkpt>
      <trkpt lat="42.053075" lon="0.657257">
        <ele>773.52</ele>
        <time>2020-01-19T11:22:33.04Z</time>
      </trkpt>
      <trkpt lat="42.053157" lon="0.657312">
        <ele>770.00</ele>
        <time>2020-01-19T11:22:39.04Z</time>
      </trkpt>
      <trkpt lat="42.053256" lon="0.657283">
        <ele>766.00</ele>
        <time>2020-01-19T11:22:51.01Z</time>
      </trkpt>
      <trkpt lat="42.053358" lon="0.657236">
        <ele>766.00</ele>
        <time>2020-01-19T11:22:56.04Z</time>
      </trkpt>
      <trkpt lat="42.053442" lon="0.657139">
        <ele>766.00</ele>
        <time>2020-01-19T11:23:02.07Z</time>
      </trkpt>
      <trkpt lat="42.053523" lon="0.657081">
        <ele>761.00</ele>
        <time>2020-01-19T11:23:11.04Z</time>
      </trkpt>
      <trkpt lat="42.053586" lon="0.656987">
        <ele>758.00</ele>
        <time>2020-01-19T11:23:16.04Z</time>
      </trkpt>
      <trkpt lat="42.053712" lon="0.656901">
        <ele>755.00</ele>
        <time>2020-01-19T11:23:23.04Z</time>
      </trkpt>
      <trkpt lat="42.053808" lon="0.656865">
        <ele>750.00</ele>
        <time>2020-01-19T11:23:29.06Z</time>
      </trkpt>
      <trkpt lat="42.053892" lon="0.656804">
        <ele>746.00</ele>
        <time>2020-01-19T11:23:37.07Z</time>
      </trkpt>
      <trkpt lat="42.053988" lon="0.656754">
        <ele>744.00</ele>
        <time>2020-01-19T11:23:42.07Z</time>
      </trkpt>
      <trkpt lat="42.054082" lon="0.656726">
        <ele>741.68</ele>
        <time>2020-01-19T11:23:47.04Z</time>
      </trkpt>
      <trkpt lat="42.054170" lon="0.656661">
        <ele>739.00</ele>
        <time>2020-01-19T11:23:54.01Z</time>
      </trkpt>
      <trkpt lat="42.054221" lon="0.656557">
        <ele>732.00</ele>
        <time>2020-01-19T11:24:29.04Z</time>
      </trkpt>
      <trkpt lat="42.054309" lon="0.656481">
        <ele>731.36</ele>
        <time>2020-01-19T11:24:35.04Z</time>
      </trkpt>
      <trkpt lat="42.054394" lon="0.656412">
        <ele>728.21</ele>
        <time>2020-01-19T11:24:41.01Z</time>
      </trkpt>
      <trkpt lat="42.054468" lon="0.656336">
        <ele>725.91</ele>
        <time>2020-01-19T11:24:46.04Z</time>
      </trkpt>
      <trkpt lat="42.054574" lon="0.656269">
        <ele>723.00</ele>
        <time>2020-01-19T11:24:56.04Z</time>
      </trkpt>
      <trkpt lat="42.054664" lon="0.656239">
        <ele>719.00</ele>
        <time>2020-01-19T11:25:05.04Z</time>
      </trkpt>
      <trkpt lat="42.054734" lon="0.656138">
        <ele>719.00</ele>
        <time>2020-01-19T11:25:36.04Z</time>
      </trkpt>
      <trkpt lat="42.054822" lon="0.656079">
        <ele>719.00</ele>
        <time>2020-01-19T11:25:40.04Z</time>
      </trkpt>
      <trkpt lat="42.054918" lon="0.656016">
        <ele>713.00</ele>
        <time>2020-01-19T11:25:44.01Z</time>
      </trkpt>
      <trkpt lat="42.055032" lon="0.655961">
        <ele>710.00</ele>
        <time>2020-01-19T11:25:48.07Z</time>
      </trkpt>
      <trkpt lat="42.055135" lon="0.655944">
        <ele>708.00</ele>
        <time>2020-01-19T11:25:53.04Z</time>
      </trkpt>
      <trkpt lat="42.055214" lon="0.656015">
        <ele>700.00</ele>
        <time>2020-01-19T11:26:02.01Z</time>
      </trkpt>
      <trkpt lat="42.055290" lon="0.656086">
        <ele>698.64</ele>
        <time>2020-01-19T11:26:10.04Z</time>
      </trkpt>
      <trkpt lat="42.055297" lon="0.656214">
        <ele>690.00</ele>
        <time>2020-01-19T11:26:30.01Z</time>
      </trkpt>
      <trkpt lat="42.055393" lon="0.656236">
        <ele>688.00</ele>
        <time>2020-01-19T11:26:40.07Z</time>
      </trkpt>
      <trkpt lat="42.055488" lon="0.656157">
        <ele>687.00</ele>
        <time>2020-01-19T11:26:54.07Z</time>
      </trkpt>
      <trkpt lat="42.055576" lon="0.656116">
        <ele>687.00</ele>
        <time>2020-01-19T11:26:58.01Z</time>
      </trkpt>
      <trkpt lat="42.055652" lon="0.656207">
        <ele>684.71</ele>
        <time>2020-01-19T11:27:05.01Z</time>
      </trkpt>
      <trkpt lat="42.055745" lon="0.656298">
        <ele>681.00</ele>
        <time>2020-01-19T11:27:16.04Z</time>
      </trkpt>
      <trkpt lat="42.055780" lon="0.656425">
        <ele>674.93</ele>
        <time>2020-01-19T11:27:22.04Z</time>
      </trkpt>
      <trkpt lat="42.055834" lon="0.656524">
        <ele>667.36</ele>
        <time>2020-01-19T11:27:35.04Z</time>
      </trkpt>
      <trkpt lat="42.055924" lon="0.656578">
        <ele>663.00</ele>
        <time>2020-01-19T11:27:44.04Z</time>
      </trkpt>
      <trkpt lat="42.055972" lon="0.656460">
        <ele>661.81</ele>
        <time>2020-01-19T11:27:50.04Z</time>
      </trkpt>
      <trkpt lat="42.056063" lon="0.656428">
        <ele>659.30</ele>
        <time>2020-01-19T11:27:55.04Z</time>
      </trkpt>
      <trkpt lat="42.056152" lon="0.656454">
        <ele>653.00</ele>
        <time>2020-01-19T11:28:05.04Z</time>
      </trkpt>
      <trkpt lat="42.056147" lon="0.656580">
        <ele>648.00</ele>
        <time>2020-01-19T11:28:17.04Z</time>
      </trkpt>
      <trkpt lat="42.056118" lon="0.656697">
        <ele>646.00</ele>
        <time>2020-01-19T11:28:26.07Z</time>
      </trkpt>
      <trkpt lat="42.056125" lon="0.656836">
        <ele>645.00</ele>
        <time>2020-01-19T11:28:31.04Z</time>
      </trkpt>
      <trkpt lat="42.056164" lon="0.656952">
        <ele>645.00</ele>
        <time>2020-01-19T11:28:43.04Z</time>
      </trkpt>
      <trkpt lat="42.056206" lon="0.657074">
        <ele>645.00</ele>
        <time>2020-01-19T11:28:48.04Z</time>
      </trkpt>
      <trkpt lat="42.056181" lon="0.657223">
        <ele>646.00</ele>
        <time>2020-01-19T11:28:52.01Z</time>
      </trkpt>
      <trkpt lat="42.056181" lon="0.657382">
        <ele>646.00</ele>
        <time>2020-01-19T11:28:57.07Z</time>
      </trkpt>
      <trkpt lat="42.056170" lon="0.657519">
        <ele>645.00</ele>
        <time>2020-01-19T11:29:02.04Z</time>
      </trkpt>
      <trkpt lat="42.056165" lon="0.657641">
        <ele>640.00</ele>
        <time>2020-01-19T11:29:06.07Z</time>
      </trkpt>
      <trkpt lat="42.056209" lon="0.657796">
        <ele>640.00</ele>
        <time>2020-01-19T11:29:10.04Z</time>
      </trkpt>
      <trkpt lat="42.056266" lon="0.657914">
        <ele>640.00</ele>
        <time>2020-01-19T11:29:14.04Z</time>
      </trkpt>
      <trkpt lat="42.056315" lon="0.658036">
        <ele>640.00</ele>
        <time>2020-01-19T11:29:19.04Z</time>
      </trkpt>
      <trkpt lat="42.056377" lon="0.658190">
        <ele>640.00</ele>
        <time>2020-01-19T11:29:25.07Z</time>
      </trkpt>
      <trkpt lat="42.056407" lon="0.658311">
        <ele>640.00</ele>
        <time>2020-01-19T11:29:30.07Z</time>
      </trkpt>
      <trkpt lat="42.056476" lon="0.658412">
        <ele>640.00</ele>
        <time>2020-01-19T11:29:34.04Z</time>
      </trkpt>
      <trkpt lat="42.056549" lon="0.658494">
        <ele>638.00</ele>
        <time>2020-01-19T11:29:39.04Z</time>
      </trkpt>
      <trkpt lat="42.056563" lon="0.658628">
        <ele>638.00</ele>
        <time>2020-01-19T11:29:46.01Z</time>
      </trkpt>
      <trkpt lat="42.056529" lon="0.658753">
        <ele>635.00</ele>
        <time>2020-01-19T11:29:52.06Z</time>
      </trkpt>
      <trkpt lat="42.056543" lon="0.658874">
        <ele>635.00</ele>
        <time>2020-01-19T11:29:56.04Z</time>
      </trkpt>
      <trkpt lat="42.056545" lon="0.659012">
        <ele>635.00</ele>
        <time>2020-01-19T11:30:01.07Z</time>
      </trkpt>
      <trkpt lat="42.056499" lon="0.659179">
        <ele>633.00</ele>
        <time>2020-01-19T11:30:08.07Z</time>
      </trkpt>
      <trkpt lat="42.056442" lon="0.659341">
        <ele>633.00</ele>
        <time>2020-01-19T11:30:14.07Z</time>
      </trkpt>
      <trkpt lat="42.056415" lon="0.659460">
        <ele>631.00</ele>
        <time>2020-01-19T11:30:18.07Z</time>
      </trkpt>
      <trkpt lat="42.056442" lon="0.659576">
        <ele>631.00</ele>
        <time>2020-01-19T11:30:22.04Z</time>
      </trkpt>
      <trkpt lat="42.056483" lon="0.659710">
        <ele>630.08</ele>
        <time>2020-01-19T11:30:26.04Z</time>
      </trkpt>
      <trkpt lat="42.056532" lon="0.659833">
        <ele>627.00</ele>
        <time>2020-01-19T11:30:31.04Z</time>
      </trkpt>
      <trkpt lat="42.056596" lon="0.659948">
        <ele>627.00</ele>
        <time>2020-01-19T11:30:38.07Z</time>
      </trkpt>
      <trkpt lat="42.056645" lon="0.660060">
        <ele>627.70</ele>
        <time>2020-01-19T11:30:46.04Z</time>
      </trkpt>
      <trkpt lat="42.056725" lon="0.660153">
        <ele>629.00</ele>
        <time>2020-01-19T11:30:52.04Z</time>
      </trkpt>
      <trkpt lat="42.056821" lon="0.660252">
        <ele>623.04</ele>
        <time>2020-01-19T11:31:01.04Z</time>
      </trkpt>
      <trkpt lat="42.056908" lon="0.660211">
        <ele>622.59</ele>
        <time>2020-01-19T11:31:11.07Z</time>
      </trkpt>
      <trkpt lat="42.057017" lon="0.660231">
        <ele>626.00</ele>
        <time>2020-01-19T11:31:18.07Z</time>
      </trkpt>
      <trkpt lat="42.057093" lon="0.660307">
        <ele>626.00</ele>
        <time>2020-01-19T11:31:23.01Z</time>
      </trkpt>
      <trkpt lat="42.057155" lon="0.660395">
        <ele>626.00</ele>
        <time>2020-01-19T11:31:30.01Z</time>
      </trkpt>
      <trkpt lat="42.057245" lon="0.660532">
        <ele>627.00</ele>
        <time>2020-01-19T11:31:37.04Z</time>
      </trkpt>
      <trkpt lat="42.057320" lon="0.660610">
        <ele>627.00</ele>
        <time>2020-01-19T11:31:47.04Z</time>
      </trkpt>
      <trkpt lat="42.057371" lon="0.660715">
        <ele>627.00</ele>
        <time>2020-01-19T11:31:56.07Z</time>
      </trkpt>
      <trkpt lat="42.057458" lon="0.660790">
        <ele>627.00</ele>
        <time>2020-01-19T11:32:01.04Z</time>
      </trkpt>
      <trkpt lat="42.057544" lon="0.660848">
        <ele>626.00</ele>
        <time>2020-01-19T11:32:06.04Z</time>
      </trkpt>
      <trkpt lat="42.057818" lon="0.661092">
        <ele>626.00</ele>
        <time>2020-01-19T11:32:15.04Z</time>
      </trkpt>
      <trkpt lat="42.057904" lon="0.661207">
        <ele>626.00</ele>
        <time>2020-01-19T11:32:17.04Z</time>
      </trkpt>
      <trkpt lat="42.057997" lon="0.661365">
        <ele>626.00</ele>
        <time>2020-01-19T11:32:20.04Z</time>
      </trkpt>
      <trkpt lat="42.058026" lon="0.661496">
        <ele>626.00</ele>
        <time>2020-01-19T11:32:24.01Z</time>
      </trkpt>
      <trkpt lat="42.058059" lon="0.661666">
        <ele>626.00</ele>
        <time>2020-01-19T11:32:30.07Z</time>
      </trkpt>
      <trkpt lat="42.058100" lon="0.661858">
        <ele>626.00</ele>
        <time>2020-01-19T11:32:37.04Z</time>
      </trkpt>
      <trkpt lat="42.058163" lon="0.661953">
        <ele>627.00</ele>
        <time>2020-01-19T11:32:42.07Z</time>
      </trkpt>
      <trkpt lat="42.058266" lon="0.661949">
        <ele>627.00</ele>
        <time>2020-01-19T11:32:48.04Z</time>
      </trkpt>
      <trkpt lat="42.058382" lon="0.661908">
        <ele>627.00</ele>
        <time>2020-01-19T11:32:53.04Z</time>
      </trkpt>
      <trkpt lat="42.058494" lon="0.661933">
        <ele>626.00</ele>
        <time>2020-01-19T11:32:59.04Z</time>
      </trkpt>
      <trkpt lat="42.058591" lon="0.661989">
        <ele>624.00</ele>
        <time>2020-01-19T11:33:05.07Z</time>
      </trkpt>
      <trkpt lat="42.058657" lon="0.662076">
        <ele>624.00</ele>
        <time>2020-01-19T11:33:12.06Z</time>
      </trkpt>
      <trkpt lat="42.058744" lon="0.662115">
        <ele>619.00</ele>
        <time>2020-01-19T11:33:17.04Z</time>
      </trkpt>
      <trkpt lat="42.058838" lon="0.662175">
        <ele>617.00</ele>
        <time>2020-01-19T11:33:21.01Z</time>
      </trkpt>
      <trkpt lat="42.058933" lon="0.662228">
        <ele>613.00</ele>
        <time>2020-01-19T11:33:25.04Z</time>
      </trkpt>
      <trkpt lat="42.059019" lon="0.662265">
        <ele>610.00</ele>
        <time>2020-01-19T11:33:28.04Z</time>
      </trkpt>
      <trkpt lat="42.059103" lon="0.662354">
        <ele>608.00</ele>
        <time>2020-01-19T11:33:32.01Z</time>
      </trkpt>
      <trkpt lat="42.059188" lon="0.662453">
        <ele>603.00</ele>
        <time>2020-01-19T11:33:36.04Z</time>
      </trkpt>
      <trkpt lat="42.059228" lon="0.662592">
        <ele>601.00</ele>
        <time>2020-01-19T11:33:40.07Z</time>
      </trkpt>
      <trkpt lat="42.059283" lon="0.662731">
        <ele>598.75</ele>
        <time>2020-01-19T11:33:44.04Z</time>
      </trkpt>
      <trkpt lat="42.059329" lon="0.662854">
        <ele>596.00</ele>
        <time>2020-01-19T11:33:48.04Z</time>
      </trkpt>
      <trkpt lat="42.059378" lon="0.663005">
        <ele>593.00</ele>
        <time>2020-01-19T11:33:54.07Z</time>
      </trkpt>
      <trkpt lat="42.059450" lon="0.663104">
        <ele>591.00</ele>
        <time>2020-01-19T11:33:58.04Z</time>
      </trkpt>
      <trkpt lat="42.059524" lon="0.663216">
        <ele>590.00</ele>
        <time>2020-01-19T11:34:02.01Z</time>
      </trkpt>
      <trkpt lat="42.059610" lon="0.663276">
        <ele>586.00</ele>
        <time>2020-01-19T11:34:05.01Z</time>
      </trkpt>
      <trkpt lat="42.059717" lon="0.663362">
        <ele>586.00</ele>
        <time>2020-01-19T11:34:10.04Z</time>
      </trkpt>
      <trkpt lat="42.059763" lon="0.663472">
        <ele>587.26</ele>
        <time>2020-01-19T11:34:16.04Z</time>
      </trkpt>
      <trkpt lat="42.059837" lon="0.663560">
        <ele>588.00</ele>
        <time>2020-01-19T11:34:21.01Z</time>
      </trkpt>
      <trkpt lat="42.059944" lon="0.663640">
        <ele>587.00</ele>
        <time>2020-01-19T11:34:26.07Z</time>
      </trkpt>
      <trkpt lat="42.060017" lon="0.663754">
        <ele>586.85</ele>
        <time>2020-01-19T11:34:31.04Z</time>
      </trkpt>
      <trkpt lat="42.060015" lon="0.663896">
        <ele>586.00</ele>
        <time>2020-01-19T11:34:39.04Z</time>
      </trkpt>
      <trkpt lat="42.060075" lon="0.664025">
        <ele>585.00</ele>
        <time>2020-01-19T11:34:43.07Z</time>
      </trkpt>
      <trkpt lat="42.060206" lon="0.664124">
        <ele>585.00</ele>
        <time>2020-01-19T11:34:44.07Z</time>
      </trkpt>
      <trkpt lat="42.060314" lon="0.664236">
        <ele>585.00</ele>
        <time>2020-01-19T11:34:45.04Z</time>
      </trkpt>
      <trkpt lat="42.060426" lon="0.664376">
        <ele>585.00</ele>
        <time>2020-01-19T11:34:47.04Z</time>
      </trkpt>
      <trkpt lat="42.060520" lon="0.664506">
        <ele>585.00</ele>
        <time>2020-01-19T11:34:49.04Z</time>
      </trkpt>
      <trkpt lat="42.060573" lon="0.664654">
        <ele>585.28</ele>
        <time>2020-01-19T11:34:53.07Z</time>
      </trkpt>
      <trkpt lat="42.060615" lon="0.664778">
        <ele>588.00</ele>
        <time>2020-01-19T11:34:56.04Z</time>
      </trkpt>
      <trkpt lat="42.060609" lon="0.664914">
        <ele>589.00</ele>
        <time>2020-01-19T11:35:01.06Z</time>
      </trkpt>
      <trkpt lat="42.060603" lon="0.665036">
        <ele>589.00</ele>
        <time>2020-01-19T11:35:06.07Z</time>
      </trkpt>
      <trkpt lat="42.060661" lon="0.665186">
        <ele>590.00</ele>
        <time>2020-01-19T11:35:14.07Z</time>
      </trkpt>
      <trkpt lat="42.060700" lon="0.665298">
        <ele>591.00</ele>
        <time>2020-01-19T11:35:20.07Z</time>
      </trkpt>
      <trkpt lat="42.060790" lon="0.665380">
        <ele>591.00</ele>
        <time>2020-01-19T11:35:26.01Z</time>
      </trkpt>
      <trkpt lat="42.060951" lon="0.665479">
        <ele>590.00</ele>
        <time>2020-01-19T11:35:33.14Z</time>
      </trkpt>
      <trkpt lat="42.061023" lon="0.665598">
        <ele>590.00</ele>
        <time>2020-01-19T11:35:35.04Z</time>
      </trkpt>
      <trkpt lat="42.061075" lon="0.665708">
        <ele>590.00</ele>
        <time>2020-01-19T11:35:38.01Z</time>
      </trkpt>
      <trkpt lat="42.061110" lon="0.665832">
        <ele>587.00</ele>
        <time>2020-01-19T11:35:43.04Z</time>
      </trkpt>
      <trkpt lat="42.061200" lon="0.665854">
        <ele>586.00</ele>
        <time>2020-01-19T11:35:47.04Z</time>
      </trkpt>
      <trkpt lat="42.061279" lon="0.665946">
        <ele>588.00</ele>
        <time>2020-01-19T11:35:52.04Z</time>
      </trkpt>
      <trkpt lat="42.061255" lon="0.666069">
        <ele>589.00</ele>
        <time>2020-01-19T11:36:02.24Z</time>
      </trkpt>
      <trkpt lat="42.061344" lon="0.666167">
        <ele>589.00</ele>
        <time>2020-01-19T11:36:06.04Z</time>
      </trkpt>
      <trkpt lat="42.061437" lon="0.666235">
        <ele>589.00</ele>
        <time>2020-01-19T11:36:11.04Z</time>
      </trkpt>
      <trkpt lat="42.061489" lon="0.666353">
        <ele>587.00</ele>
        <time>2020-01-19T11:36:17.04Z</time>
      </trkpt>
      <trkpt lat="42.061548" lon="0.666447">
        <ele>587.00</ele>
        <time>2020-01-19T11:36:29.04Z</time>
      </trkpt>
      <trkpt lat="42.061586" lon="0.666559">
        <ele>587.00</ele>
        <time>2020-01-19T11:36:40.04Z</time>
      </trkpt>
      <trkpt lat="42.061612" lon="0.666677">
        <ele>587.00</ele>
        <time>2020-01-19T11:36:44.04Z</time>
      </trkpt>
      <trkpt lat="42.061590" lon="0.666938">
        <ele>585.00</ele>
        <time>2020-01-19T11:36:55.04Z</time>
      </trkpt>
      <trkpt lat="42.061617" lon="0.667096">
        <ele>564.00</ele>
        <time>2020-01-19T11:41:20.36Z</time>
      </trkpt>
      <trkpt lat="42.061713" lon="0.667265">
        <ele>564.00</ele>
        <time>2020-01-19T11:41:25.36Z</time>
      </trkpt>
      <trkpt lat="42.061780" lon="0.667445">
        <ele>564.00</ele>
        <time>2020-01-19T11:41:28.01Z</time>
      </trkpt>
      <trkpt lat="42.061905" lon="0.667534">
        <ele>564.00</ele>
        <time>2020-01-19T11:41:31.07Z</time>
      </trkpt>
      <trkpt lat="42.061972" lon="0.667823">
        <ele>564.00</ele>
        <time>2020-01-19T11:41:34.04Z</time>
      </trkpt>
      <trkpt lat="42.061972" lon="0.667644">
        <ele>565.00</ele>
        <time>2020-01-19T11:41:43.54Z</time>
      </trkpt>
      <trkpt lat="42.062024" lon="0.667813">
        <ele>565.00</ele>
        <time>2020-01-19T11:41:45.54Z</time>
      </trkpt>
      <trkpt lat="42.062061" lon="0.667654">
        <ele>565.00</ele>
        <time>2020-01-19T11:41:47.54Z</time>
      </trkpt>
      <trkpt lat="42.062098" lon="0.667923">
        <ele>564.00</ele>
        <time>2020-01-19T11:41:58.54Z</time>
      </trkpt>
      <trkpt lat="42.062224" lon="0.668156">
        <ele>565.00</ele>
        <time>2020-01-19T11:42:08.54Z</time>
      </trkpt>
      <trkpt lat="42.062517" lon="0.668734">
        <ele>565.00</ele>
        <time>2020-01-19T11:42:17.54Z</time>
      </trkpt>
      <trkpt lat="42.062790" lon="0.668977">
        <ele>565.00</ele>
        <time>2020-01-19T11:42:21.54Z</time>
      </trkpt>
      <trkpt lat="42.063145" lon="0.668684">
        <ele>565.00</ele>
        <time>2020-01-19T11:42:26.54Z</time>
      </trkpt>
      <trkpt lat="42.063350" lon="0.669027">
        <ele>565.00</ele>
        <time>2020-01-19T11:42:29.54Z</time>
      </trkpt>
      <trkpt lat="42.063425" lon="0.669170">
        <ele>565.00</ele>
        <time>2020-01-19T11:42:32.54Z</time>
      </trkpt>
      <trkpt lat="42.063829" lon="0.668743">
        <ele>565.00</ele>
        <time>2020-01-19T11:42:38.54Z</time>
      </trkpt>
      <trkpt lat="42.063869" lon="0.668931">
        <ele>565.00</ele>
        <time>2020-01-19T11:42:41.54Z</time>
      </trkpt>
      <trkpt lat="42.063832" lon="0.669145">
        <ele>565.00</ele>
        <time>2020-01-19T11:43:06.54Z</time>
      </trkpt>
      <trkpt lat="42.063813" lon="0.669321">
        <ele>565.00</ele>
        <time>2020-01-19T11:43:14.54Z</time>
      </trkpt>
      <trkpt lat="42.063807" lon="0.669446">
        <ele>566.00</ele>
        <time>2020-01-19T11:43:20.54Z</time>
      </trkpt>
      <trkpt lat="42.063817" lon="0.669664">
        <ele>568.00</ele>
        <time>2020-01-19T11:43:31.54Z</time>
      </trkpt>
      <trkpt lat="42.063935" lon="0.669844">
        <ele>577.00</ele>
        <time>2020-01-19T11:44:05.94Z</time>
      </trkpt>
      <trkpt lat="42.064000" lon="0.669949">
        <ele>578.00</ele>
        <time>2020-01-19T11:44:20.03Z</time>
      </trkpt>
      <trkpt lat="42.063981" lon="0.670024">
        <ele>580.00</ele>
        <time>2020-01-19T11:44:29.06Z</time>
      </trkpt>
      <trkpt lat="42.064146" lon="0.670091">
        <ele>582.00</ele>
        <time>2020-01-19T11:44:41.04Z</time>
      </trkpt>
      <trkpt lat="42.064386" lon="0.670263">
        <ele>585.00</ele>
        <time>2020-01-19T11:45:05.04Z</time>
      </trkpt>
      <trkpt lat="42.064541" lon="0.670506">
        <ele>586.00</ele>
        <time>2020-01-19T11:45:09.04Z</time>
      </trkpt>
      <trkpt lat="42.064992" lon="0.670659">
        <ele>581.00</ele>
        <time>2020-01-19T11:49:51.93Z</time>
      </trkpt>
      <trkpt lat="42.065110" lon="0.670643">
        <ele>581.00</ele>
        <time>2020-01-19T11:49:59.04Z</time>
      </trkpt>
      <trkpt lat="42.065280" lon="0.670636">
        <ele>581.00</ele>
        <time>2020-01-19T11:50:03.04Z</time>
      </trkpt>
      <trkpt lat="42.065376" lon="0.670681">
        <ele>581.00</ele>
        <time>2020-01-19T11:50:07.04Z</time>
      </trkpt>
      <trkpt lat="42.065482" lon="0.670692">
        <ele>581.00</ele>
        <time>2020-01-19T11:50:13.04Z</time>
      </trkpt>
      <trkpt lat="42.065584" lon="0.670714">
        <ele>582.00</ele>
        <time>2020-01-19T11:50:20.04Z</time>
      </trkpt>
      <trkpt lat="42.065679" lon="0.670763">
        <ele>582.78</ele>
        <time>2020-01-19T11:50:27.04Z</time>
      </trkpt>
      <trkpt lat="42.065772" lon="0.670739">
        <ele>584.09</ele>
        <time>2020-01-19T11:50:35.04Z</time>
      </trkpt>
      <trkpt lat="42.065864" lon="0.670717">
        <ele>586.50</ele>
        <time>2020-01-19T11:50:46.04Z</time>
      </trkpt>
      <trkpt lat="42.065929" lon="0.670818">
        <ele>592.00</ele>
        <time>2020-01-19T11:50:59.04Z</time>
      </trkpt>
      <trkpt lat="42.066141" lon="0.670878">
        <ele>637.60</ele>
        <time>2020-01-19T11:57:42.97Z</time>
      </trkpt>
      <trkpt lat="42.066327" lon="0.670954">
        <ele>637.62</ele>
        <time>2020-01-19T11:57:43.27Z</time>
      </trkpt>
      <trkpt lat="42.066267" lon="0.670911">
        <ele>637.64</ele>
        <time>2020-01-19T11:57:43.68Z</time>
      </trkpt>
      <trkpt lat="42.066338" lon="0.670910">
        <ele>637.67</ele>
        <time>2020-01-19T11:57:44.04Z</time>
      </trkpt>
      <trkpt lat="42.066263" lon="0.670886">
        <ele>637.70</ele>
        <time>2020-01-19T11:57:44.49Z</time>
      </trkpt>
      <trkpt lat="42.066368" lon="0.670856">
        <ele>637.74</ele>
        <time>2020-01-19T11:57:45.04Z</time>
      </trkpt>
      <trkpt lat="42.066262" lon="0.670805">
        <ele>637.78</ele>
        <time>2020-01-19T11:57:45.71Z</time>
      </trkpt>
      <trkpt lat="42.066356" lon="0.670814">
        <ele>638.00</ele>
        <time>2020-01-19T11:57:49.01Z</time>
      </trkpt>
      <trkpt lat="42.066454" lon="0.670735">
        <ele>647.00</ele>
        <time>2020-01-19T11:58:18.07Z</time>
      </trkpt>
      <trkpt lat="42.066545" lon="0.670749">
        <ele>637.00</ele>
        <time>2020-01-19T11:58:26.04Z</time>
      </trkpt>
      <trkpt lat="42.066637" lon="0.670784">
        <ele>633.40</ele>
        <time>2020-01-19T11:58:33.06Z</time>
      </trkpt>
      <trkpt lat="42.066690" lon="0.670896">
        <ele>633.00</ele>
        <time>2020-01-19T11:58:44.01Z</time>
      </trkpt>
      <trkpt lat="42.066734" lon="0.671015">
        <ele>627.00</ele>
        <time>2020-01-19T11:58:54.01Z</time>
      </trkpt>
      <trkpt lat="42.066803" lon="0.671105">
        <ele>625.48</ele>
        <time>2020-01-19T11:59:02.04Z</time>
      </trkpt>
      <trkpt lat="42.066878" lon="0.671183">
        <ele>624.00</ele>
        <time>2020-01-19T11:59:13.01Z</time>
      </trkpt>
      <trkpt lat="42.066964" lon="0.671252">
        <ele>616.00</ele>
        <time>2020-01-19T11:59:24.07Z</time>
      </trkpt>
      <trkpt lat="42.067017" lon="0.671364">
        <ele>610.34</ele>
        <time>2020-01-19T11:59:48.07Z</time>
      </trkpt>
      <trkpt lat="42.067032" lon="0.671493">
        <ele>611.00</ele>
        <time>2020-01-19T11:59:59.01Z</time>
      </trkpt>
      <trkpt lat="42.067088" lon="0.671596">
        <ele>608.00</ele>
        <time>2020-01-19T12:00:09.06Z</time>
      </trkpt>
      <trkpt lat="42.067192" lon="0.671604">
        <ele>602.00</ele>
        <time>2020-01-19T12:00:26.04Z</time>
      </trkpt>
      <trkpt lat="42.067234" lon="0.671726">
        <ele>602.00</ele>
        <time>2020-01-19T12:00:36.04Z</time>
      </trkpt>
      <trkpt lat="42.067200" lon="0.671879">
        <ele>597.00</ele>
        <time>2020-01-19T12:00:44.04Z</time>
      </trkpt>
      <trkpt lat="42.067162" lon="0.672049">
        <ele>594.00</ele>
        <time>2020-01-19T12:00:57.10Z</time>
      </trkpt>
      <trkpt lat="42.067230" lon="0.672148">
        <ele>593.00</ele>
        <time>2020-01-19T12:01:03.04Z</time>
      </trkpt>
      <trkpt lat="42.067327" lon="0.672157">
        <ele>593.00</ele>
        <time>2020-01-19T12:01:13.04Z</time>
      </trkpt>
      <trkpt lat="42.067386" lon="0.672056">
        <ele>583.00</ele>
        <time>2020-01-19T12:01:36.04Z</time>
      </trkpt>
      <trkpt lat="42.067415" lon="0.672171">
        <ele>583.00</ele>
        <time>2020-01-19T12:01:50.04Z</time>
      </trkpt>
      <trkpt lat="42.067467" lon="0.672270">
        <ele>579.00</ele>
        <time>2020-01-19T12:02:00.01Z</time>
      </trkpt>
      <trkpt lat="42.067522" lon="0.672384">
        <ele>578.00</ele>
        <time>2020-01-19T12:02:11.04Z</time>
      </trkpt>
      <trkpt lat="42.067567" lon="0.672493">
        <ele>570.22</ele>
        <time>2020-01-19T12:02:25.07Z</time>
      </trkpt>
      <trkpt lat="42.067639" lon="0.672569">
        <ele>569.00</ele>
        <time>2020-01-19T12:02:37.04Z</time>
      </trkpt>
      <trkpt lat="42.067733" lon="0.672546">
        <ele>564.00</ele>
        <time>2020-01-19T12:02:48.04Z</time>
      </trkpt>
      <trkpt lat="42.067795" lon="0.672634">
        <ele>563.00</ele>
        <time>2020-01-19T12:02:58.01Z</time>
      </trkpt>
      <trkpt lat="42.067844" lon="0.672748">
        <ele>559.00</ele>
        <time>2020-01-19T12:03:09.04Z</time>
      </trkpt>
      <trkpt lat="42.067898" lon="0.672851">
        <ele>555.48</ele>
        <time>2020-01-19T12:03:16.07Z</time>
      </trkpt>
      <trkpt lat="42.067937" lon="0.672960">
        <ele>552.00</ele>
        <time>2020-01-19T12:03:26.01Z</time>
      </trkpt>
      <trkpt lat="42.067990" lon="0.673079">
        <ele>552.00</ele>
        <time>2020-01-19T12:03:35.04Z</time>
      </trkpt>
      <trkpt lat="42.068026" lon="0.673192">
        <ele>545.00</ele>
        <time>2020-01-19T12:03:49.04Z</time>
      </trkpt>
      <trkpt lat="42.068035" lon="0.673322">
        <ele>540.00</ele>
        <time>2020-01-19T12:04:00.07Z</time>
      </trkpt>
      <trkpt lat="42.068107" lon="0.673405">
        <ele>535.83</ele>
        <time>2020-01-19T12:04:10.04Z</time>
      </trkpt>
      <trkpt lat="42.068119" lon="0.673527">
        <ele>532.00</ele>
        <time>2020-01-19T12:04:23.04Z</time>
      </trkpt>
      <trkpt lat="42.068171" lon="0.673647">
        <ele>528.00</ele>
        <time>2020-01-19T12:04:57.06Z</time>
      </trkpt>
      <trkpt lat="42.068164" lon="0.673772">
        <ele>528.00</ele>
        <time>2020-01-19T12:05:02.04Z</time>
      </trkpt>
      <trkpt lat="42.068147" lon="0.673916">
        <ele>527.00</ele>
        <time>2020-01-19T12:05:13.04Z</time>
      </trkpt>
      <trkpt lat="42.068120" lon="0.674065">
        <ele>527.00</ele>
        <time>2020-01-19T12:05:22.04Z</time>
      </trkpt>
      <trkpt lat="42.068045" lon="0.674137">
        <ele>527.00</ele>
        <time>2020-01-19T12:05:44.04Z</time>
      </trkpt>
      <trkpt lat="42.067952" lon="0.674138">
        <ele>530.00</ele>
        <time>2020-01-19T12:06:13.07Z</time>
      </trkpt>
      <trkpt lat="42.067908" lon="0.674255">
        <ele>533.00</ele>
        <time>2020-01-19T12:06:25.06Z</time>
      </trkpt>
      <trkpt lat="42.067883" lon="0.674378">
        <ele>532.00</ele>
        <time>2020-01-19T12:06:36.01Z</time>
      </trkpt>
      <trkpt lat="42.067876" lon="0.674515">
        <ele>536.00</ele>
        <time>2020-01-19T12:06:43.07Z</time>
      </trkpt>
      <trkpt lat="42.067875" lon="0.674641">
        <ele>536.00</ele>
        <time>2020-01-19T12:06:51.07Z</time>
      </trkpt>
      <trkpt lat="42.067873" lon="0.674764">
        <ele>536.00</ele>
        <time>2020-01-19T12:07:03.04Z</time>
      </trkpt>
      <trkpt lat="42.067916" lon="0.674871">
        <ele>538.00</ele>
        <time>2020-01-19T12:07:11.07Z</time>
      </trkpt>
      <trkpt lat="42.067928" lon="0.675029">
        <ele>540.00</ele>
        <time>2020-01-19T12:07:21.07Z</time>
      </trkpt>
      <trkpt lat="42.067998" lon="0.675170">
        <ele>541.00</ele>
        <time>2020-01-19T12:07:31.04Z</time>
      </trkpt>
      <trkpt lat="42.068024" lon="0.675287">
        <ele>541.00</ele>
        <time>2020-01-19T12:07:36.04Z</time>
      </trkpt>
      <trkpt lat="42.068038" lon="0.675416">
        <ele>546.00</ele>
        <time>2020-01-19T12:07:47.07Z</time>
      </trkpt>
      <trkpt lat="42.068100" lon="0.675517">
        <ele>548.00</ele>
        <time>2020-01-19T12:08:02.07Z</time>
      </trkpt>
      <trkpt lat="42.068179" lon="0.675631">
        <ele>547.00</ele>
        <time>2020-01-19T12:08:09.07Z</time>
      </trkpt>
      <trkpt lat="42.068267" lon="0.675731">
        <ele>548.00</ele>
        <time>2020-01-19T12:08:20.07Z</time>
      </trkpt>
      <trkpt lat="42.068347" lon="0.675838">
        <ele>551.00</ele>
        <time>2020-01-19T12:08:31.04Z</time>
      </trkpt>
      <trkpt lat="42.068354" lon="0.675970">
        <ele>555.00</ele>
        <time>2020-01-19T12:08:48.07Z</time>
      </trkpt>
      <trkpt lat="42.068306" lon="0.676076">
        <ele>560.00</ele>
        <time>2020-01-19T12:09:18.04Z</time>
      </trkpt>
      <trkpt lat="42.068320" lon="0.676199">
        <ele>566.00</ele>
        <time>2020-01-19T12:09:34.04Z</time>
      </trkpt>
      <trkpt lat="42.068337" lon="0.676343">
        <ele>567.00</ele>
        <time>2020-01-19T12:09:46.04Z</time>
      </trkpt>
      <trkpt lat="42.068408" lon="0.676425">
        <ele>567.00</ele>
        <time>2020-01-19T12:10:05.04Z</time>
      </trkpt>
      <trkpt lat="42.068417" lon="0.676553">
        <ele>573.00</ele>
        <time>2020-01-19T12:10:46.04Z</time>
      </trkpt>
      <trkpt lat="42.068476" lon="0.676670">
        <ele>574.00</ele>
        <time>2020-01-19T12:10:55.04Z</time>
      </trkpt>
      <trkpt lat="42.068482" lon="0.676802">
        <ele>576.00</ele>
        <time>2020-01-19T12:11:06.04Z</time>
      </trkpt>
      <trkpt lat="42.068550" lon="0.676894">
        <ele>576.37</ele>
        <time>2020-01-19T12:11:16.04Z</time>
      </trkpt>
      <trkpt lat="42.068635" lon="0.676990">
        <ele>579.00</ele>
        <time>2020-01-19T12:11:36.04Z</time>
      </trkpt>
      <trkpt lat="42.068678" lon="0.677104">
        <ele>583.00</ele>
        <time>2020-01-19T12:11:45.04Z</time>
      </trkpt>
      <trkpt lat="42.068720" lon="0.677216">
        <ele>587.00</ele>
        <time>2020-01-19T12:11:57.04Z</time>
      </trkpt>
      <trkpt lat="42.068762" lon="0.677331">
        <ele>589.00</ele>
        <time>2020-01-19T12:12:09.04Z</time>
      </trkpt>
      <trkpt lat="42.068812" lon="0.677432">
        <ele>590.00</ele>
        <time>2020-01-19T12:12:21.04Z</time>
      </trkpt>
      <trkpt lat="42.068834" lon="0.677557">
        <ele>594.00</ele>
        <time>2020-01-19T12:12:29.04Z</time>
      </trkpt>
      <trkpt lat="42.068912" lon="0.677834">
        <ele>597.00</ele>
        <time>2020-01-19T12:12:54.04Z</time>
      </trkpt>
      <trkpt lat="42.068958" lon="0.677950">
        <ele>599.00</ele>
        <time>2020-01-19T12:13:15.04Z</time>
      </trkpt>
      <trkpt lat="42.069045" lon="0.677998">
        <ele>598.86</ele>
        <time>2020-01-19T12:13:25.04Z</time>
      </trkpt>
      <trkpt lat="42.069099" lon="0.678110">
        <ele>598.00</ele>
        <time>2020-01-19T12:13:33.04Z</time>
      </trkpt>
      <trkpt lat="42.069198" lon="0.678167">
        <ele>596.00</ele>
        <time>2020-01-19T12:13:40.04Z</time>
      </trkpt>
      <trkpt lat="42.069280" lon="0.678240">
        <ele>594.00</ele>
        <time>2020-01-19T12:13:48.04Z</time>
      </trkpt>
      <trkpt lat="42.069387" lon="0.678285">
        <ele>595.00</ele>
        <time>2020-01-19T12:13:59.04Z</time>
      </trkpt>
      <trkpt lat="42.069511" lon="0.678354">
        <ele>595.00</ele>
        <time>2020-01-19T12:14:13.04Z</time>
      </trkpt>
      <trkpt lat="42.069603" lon="0.678421">
        <ele>595.00</ele>
        <time>2020-01-19T12:14:19.04Z</time>
      </trkpt>
      <trkpt lat="42.069673" lon="0.678533">
        <ele>595.15</ele>
        <time>2020-01-19T12:14:27.04Z</time>
      </trkpt>
      <trkpt lat="42.069790" lon="0.678559">
        <ele>598.00</ele>
        <time>2020-01-19T12:14:45.04Z</time>
      </trkpt>
      <trkpt lat="42.069879" lon="0.678524">
        <ele>597.00</ele>
        <time>2020-01-19T12:14:49.04Z</time>
      </trkpt>
      <trkpt lat="42.069968" lon="0.678496">
        <ele>597.00</ele>
        <time>2020-01-19T12:14:53.04Z</time>
      </trkpt>
      <trkpt lat="42.070624" lon="0.678936">
        <ele>599.00</ele>
        <time>2020-01-19T12:15:59.04Z</time>
      </trkpt>
      <trkpt lat="42.070914" lon="0.679242">
        <ele>608.00</ele>
        <time>2020-01-19T12:16:40.04Z</time>
      </trkpt>
      <trkpt lat="42.070804" lon="0.679201">
        <ele>616.00</ele>
        <time>2020-01-19T12:17:32.04Z</time>
      </trkpt>
      <trkpt lat="42.070728" lon="0.679294">
        <ele>616.00</ele>
        <time>2020-01-19T12:17:50.04Z</time>
      </trkpt>
      <trkpt lat="42.070636" lon="0.679340">
        <ele>616.00</ele>
        <time>2020-01-19T12:18:21.04Z</time>
      </trkpt>
      <trkpt lat="42.070540" lon="0.679394">
        <ele>617.00</ele>
        <time>2020-01-19T12:18:30.04Z</time>
      </trkpt>
      <trkpt lat="42.070458" lon="0.679470">
        <ele>621.00</ele>
        <time>2020-01-19T12:18:40.04Z</time>
      </trkpt>
      <trkpt lat="42.070366" lon="0.679468">
        <ele>624.18</ele>
        <time>2020-01-19T12:18:53.04Z</time>
      </trkpt>
      <trkpt lat="42.070249" lon="0.679452">
        <ele>626.00</ele>
        <time>2020-01-19T12:19:01.47Z</time>
      </trkpt>
      <trkpt lat="42.070180" lon="0.679356">
        <ele>631.00</ele>
        <time>2020-01-19T12:19:20.04Z</time>
      </trkpt>
      <trkpt lat="42.070088" lon="0.679371">
        <ele>634.00</ele>
        <time>2020-01-19T12:19:30.04Z</time>
      </trkpt>
      <trkpt lat="42.069999" lon="0.679407">
        <ele>632.00</ele>
        <time>2020-01-19T12:19:41.04Z</time>
      </trkpt>
      <trkpt lat="42.069910" lon="0.679448">
        <ele>634.00</ele>
        <time>2020-01-19T12:19:50.04Z</time>
      </trkpt>
      <trkpt lat="42.069806" lon="0.679446">
        <ele>639.00</ele>
        <time>2020-01-19T12:20:01.04Z</time>
      </trkpt>
      <trkpt lat="42.069717" lon="0.679473">
        <ele>640.00</ele>
        <time>2020-01-19T12:20:12.04Z</time>
      </trkpt>
      <trkpt lat="42.069629" lon="0.679435">
        <ele>641.00</ele>
        <time>2020-01-19T12:21:07.06Z</time>
      </trkpt>
      <trkpt lat="42.069533" lon="0.679432">
        <ele>641.00</ele>
        <time>2020-01-19T12:21:16.04Z</time>
      </trkpt>
      <trkpt lat="42.069437" lon="0.679337">
        <ele>643.00</ele>
        <time>2020-01-19T12:21:24.04Z</time>
      </trkpt>
      <trkpt lat="42.069353" lon="0.679262">
        <ele>643.00</ele>
        <time>2020-01-19T12:21:29.04Z</time>
      </trkpt>
      <trkpt lat="42.069255" lon="0.679255">
        <ele>643.00</ele>
        <time>2020-01-19T12:21:34.04Z</time>
      </trkpt>
      <trkpt lat="42.069131" lon="0.679169">
        <ele>644.00</ele>
        <time>2020-01-19T12:21:42.07Z</time>
      </trkpt>
      <trkpt lat="42.069030" lon="0.679108">
        <ele>644.00</ele>
        <time>2020-01-19T12:21:48.04Z</time>
      </trkpt>
      <trkpt lat="42.068947" lon="0.679052">
        <ele>644.00</ele>
        <time>2020-01-19T12:21:54.04Z</time>
      </trkpt>
      <trkpt lat="42.068862" lon="0.678995">
        <ele>643.00</ele>
        <time>2020-01-19T12:22:01.01Z</time>
      </trkpt>
      <trkpt lat="42.068786" lon="0.678906">
        <ele>643.00</ele>
        <time>2020-01-19T12:22:12.04Z</time>
      </trkpt>
      <trkpt lat="42.068707" lon="0.678826">
        <ele>643.00</ele>
        <time>2020-01-19T12:22:18.96Z</time>
      </trkpt>
      <trkpt lat="42.068642" lon="0.678733">
        <ele>644.00</ele>
        <time>2020-01-19T12:22:24.04Z</time>
      </trkpt>
      <trkpt lat="42.068575" lon="0.678626">
        <ele>644.00</ele>
        <time>2020-01-19T12:22:31.06Z</time>
      </trkpt>
      <trkpt lat="42.068522" lon="0.678506">
        <ele>644.00</ele>
        <time>2020-01-19T12:22:36.01Z</time>
      </trkpt>
      <trkpt lat="42.068475" lon="0.678369">
        <ele>642.00</ele>
        <time>2020-01-19T12:22:41.04Z</time>
      </trkpt>
      <trkpt lat="42.068397" lon="0.678287">
        <ele>642.00</ele>
        <time>2020-01-19T12:22:45.04Z</time>
      </trkpt>
      <trkpt lat="42.068325" lon="0.678187">
        <ele>642.77</ele>
        <time>2020-01-19T12:22:51.04Z</time>
      </trkpt>
      <trkpt lat="42.068282" lon="0.678080">
        <ele>642.00</ele>
        <time>2020-01-19T12:22:56.04Z</time>
      </trkpt>
      <trkpt lat="42.068208" lon="0.677987">
        <ele>642.00</ele>
        <time>2020-01-19T12:23:03.04Z</time>
      </trkpt>
      <trkpt lat="42.068148" lon="0.677888">
        <ele>646.00</ele>
        <time>2020-01-19T12:23:12.04Z</time>
      </trkpt>
      <trkpt lat="42.068069" lon="0.677965">
        <ele>650.00</ele>
        <time>2020-01-19T12:23:32.04Z</time>
      </trkpt>
      <trkpt lat="42.067979" lon="0.678001">
        <ele>655.00</ele>
        <time>2020-01-19T12:23:41.04Z</time>
      </trkpt>
      <trkpt lat="42.067936" lon="0.678110">
        <ele>656.00</ele>
        <time>2020-01-19T12:23:51.04Z</time>
      </trkpt>
      <trkpt lat="42.067843" lon="0.678137">
        <ele>658.00</ele>
        <time>2020-01-19T12:24:01.04Z</time>
      </trkpt>
      <trkpt lat="42.067755" lon="0.678166">
        <ele>658.00</ele>
        <time>2020-01-19T12:24:09.04Z</time>
      </trkpt>
      <trkpt lat="42.067655" lon="0.678214">
        <ele>658.20</ele>
        <time>2020-01-19T12:24:19.04Z</time>
      </trkpt>
      <trkpt lat="42.067555" lon="0.678224">
        <ele>660.00</ele>
        <time>2020-01-19T12:24:24.04Z</time>
      </trkpt>
      <trkpt lat="42.067458" lon="0.678216">
        <ele>661.00</ele>
        <time>2020-01-19T12:24:34.04Z</time>
      </trkpt>
      <trkpt lat="42.067363" lon="0.678264">
        <ele>665.71</ele>
        <time>2020-01-19T12:24:44.04Z</time>
      </trkpt>
      <trkpt lat="42.067272" lon="0.678261">
        <ele>668.00</ele>
        <time>2020-01-19T12:24:52.04Z</time>
      </trkpt>
      <trkpt lat="42.067175" lon="0.678267">
        <ele>669.00</ele>
        <time>2020-01-19T12:24:59.04Z</time>
      </trkpt>
      <trkpt lat="42.067084" lon="0.678268">
        <ele>671.00</ele>
        <time>2020-01-19T12:25:09.04Z</time>
      </trkpt>
      <trkpt lat="42.066989" lon="0.678260">
        <ele>672.87</ele>
        <time>2020-01-19T12:25:18.04Z</time>
      </trkpt>
      <trkpt lat="42.066899" lon="0.678274">
        <ele>674.00</ele>
        <time>2020-01-19T12:25:29.04Z</time>
      </trkpt>
      <trkpt lat="42.066795" lon="0.678256">
        <ele>677.00</ele>
        <time>2020-01-19T12:25:39.04Z</time>
      </trkpt>
      <trkpt lat="42.066694" lon="0.678298">
        <ele>679.00</ele>
        <time>2020-01-19T12:26:00.04Z</time>
      </trkpt>
      <trkpt lat="42.066604" lon="0.678283">
        <ele>683.00</ele>
        <time>2020-01-19T12:26:08.04Z</time>
      </trkpt>
      <trkpt lat="42.066519" lon="0.678326">
        <ele>683.00</ele>
        <time>2020-01-19T12:26:17.04Z</time>
      </trkpt>
      <trkpt lat="42.066430" lon="0.678368">
        <ele>685.95</ele>
        <time>2020-01-19T12:26:28.04Z</time>
      </trkpt>
      <trkpt lat="42.066349" lon="0.678439">
        <ele>687.00</ele>
        <time>2020-01-19T12:26:40.04Z</time>
      </trkpt>
      <trkpt lat="42.066261" lon="0.678472">
        <ele>688.00</ele>
        <time>2020-01-19T12:26:46.04Z</time>
      </trkpt>
      <trkpt lat="42.066185" lon="0.678542">
        <ele>688.00</ele>
        <time>2020-01-19T12:26:54.04Z</time>
      </trkpt>
      <trkpt lat="42.066107" lon="0.678604">
        <ele>690.00</ele>
        <time>2020-01-19T12:27:05.04Z</time>
      </trkpt>
      <trkpt lat="42.066029" lon="0.678686">
        <ele>692.00</ele>
        <time>2020-01-19T12:27:19.07Z</time>
      </trkpt>
      <trkpt lat="42.065931" lon="0.678726">
        <ele>693.00</ele>
        <time>2020-01-19T12:27:28.04Z</time>
      </trkpt>
      <trkpt lat="42.065836" lon="0.678683">
        <ele>695.00</ele>
        <time>2020-01-19T12:27:37.04Z</time>
      </trkpt>
      <trkpt lat="42.065747" lon="0.678648">
        <ele>696.00</ele>
        <time>2020-01-19T12:27:51.04Z</time>
      </trkpt>
      <trkpt lat="42.065654" lon="0.678639">
        <ele>697.00</ele>
        <time>2020-01-19T12:27:58.04Z</time>
      </trkpt>
      <trkpt lat="42.065553" lon="0.678627">
        <ele>697.00</ele>
        <time>2020-01-19T12:28:09.04Z</time>
      </trkpt>
      <trkpt lat="42.065391" lon="0.678622">
        <ele>697.44</ele>
        <time>2020-01-19T12:28:18.04Z</time>
      </trkpt>
      <trkpt lat="42.065295" lon="0.678620">
        <ele>701.00</ele>
        <time>2020-01-19T12:28:31.07Z</time>
      </trkpt>
      <trkpt lat="42.065208" lon="0.678657">
        <ele>702.00</ele>
        <time>2020-01-19T12:28:41.04Z</time>
      </trkpt>
      <trkpt lat="42.065137" lon="0.678748">
        <ele>704.00</ele>
        <time>2020-01-19T12:28:52.04Z</time>
      </trkpt>
      <trkpt lat="42.065035" lon="0.678796">
        <ele>707.00</ele>
        <time>2020-01-19T12:29:04.04Z</time>
      </trkpt>
      <trkpt lat="42.064932" lon="0.678844">
        <ele>710.00</ele>
        <time>2020-01-19T12:29:15.04Z</time>
      </trkpt>
      <trkpt lat="42.064845" lon="0.678888">
        <ele>711.00</ele>
        <time>2020-01-19T12:29:25.04Z</time>
      </trkpt>
      <trkpt lat="42.064743" lon="0.678928">
        <ele>712.00</ele>
        <time>2020-01-19T12:29:39.04Z</time>
      </trkpt>
      <trkpt lat="42.064594" lon="0.678866">
        <ele>712.00</ele>
        <time>2020-01-19T12:29:46.04Z</time>
      </trkpt>
      <trkpt lat="42.064498" lon="0.678816">
        <ele>712.00</ele>
        <time>2020-01-19T12:29:50.04Z</time>
      </trkpt>
      <trkpt lat="42.064409" lon="0.678739">
        <ele>713.00</ele>
        <time>2020-01-19T12:29:55.04Z</time>
      </trkpt>
      <trkpt lat="42.064324" lon="0.678661">
        <ele>713.00</ele>
        <time>2020-01-19T12:29:59.04Z</time>
      </trkpt>
      <trkpt lat="42.064343" lon="0.678502">
        <ele>712.00</ele>
        <time>2020-01-19T12:30:07.04Z</time>
      </trkpt>
      <trkpt lat="42.064372" lon="0.678316">
        <ele>712.00</ele>
        <time>2020-01-19T12:30:18.10Z</time>
      </trkpt>
      <trkpt lat="42.064364" lon="0.678181">
        <ele>712.00</ele>
        <time>2020-01-19T12:30:26.04Z</time>
      </trkpt>
      <trkpt lat="42.064369" lon="0.678046">
        <ele>714.00</ele>
        <time>2020-01-19T12:30:31.04Z</time>
      </trkpt>
      <trkpt lat="42.064354" lon="0.677924">
        <ele>714.00</ele>
        <time>2020-01-19T12:30:37.04Z</time>
      </trkpt>
      <trkpt lat="42.064305" lon="0.677784">
        <ele>713.00</ele>
        <time>2020-01-19T12:30:47.04Z</time>
      </trkpt>
      <trkpt lat="42.064236" lon="0.677688">
        <ele>713.00</ele>
        <time>2020-01-19T12:30:56.04Z</time>
      </trkpt>
      <trkpt lat="42.064141" lon="0.677650">
        <ele>715.00</ele>
        <time>2020-01-19T12:31:03.04Z</time>
      </trkpt>
      <trkpt lat="42.064041" lon="0.677617">
        <ele>715.00</ele>
        <time>2020-01-19T12:31:10.04Z</time>
      </trkpt>
      <trkpt lat="42.063962" lon="0.677548">
        <ele>716.00</ele>
        <time>2020-01-19T12:31:16.04Z</time>
      </trkpt>
      <trkpt lat="42.063884" lon="0.677477">
        <ele>715.39</ele>
        <time>2020-01-19T12:31:23.04Z</time>
      </trkpt>
      <trkpt lat="42.063802" lon="0.677426">
        <ele>716.00</ele>
        <time>2020-01-19T12:31:29.04Z</time>
      </trkpt>
      <trkpt lat="42.063727" lon="0.677354">
        <ele>716.99</ele>
        <time>2020-01-19T12:31:35.04Z</time>
      </trkpt>
      <trkpt lat="42.063624" lon="0.677286">
        <ele>717.00</ele>
        <time>2020-01-19T12:31:42.04Z</time>
      </trkpt>
      <trkpt lat="42.063509" lon="0.677273">
        <ele>719.00</ele>
        <time>2020-01-19T12:31:46.04Z</time>
      </trkpt>
      <trkpt lat="42.063421" lon="0.677241">
        <ele>718.63</ele>
        <time>2020-01-19T12:31:51.04Z</time>
      </trkpt>
      <trkpt lat="42.063328" lon="0.677266">
        <ele>718.00</ele>
        <time>2020-01-19T12:31:57.04Z</time>
      </trkpt>
      <trkpt lat="42.063162" lon="0.677239">
        <ele>719.00</ele>
        <time>2020-01-19T12:32:06.04Z</time>
      </trkpt>
      <trkpt lat="42.063071" lon="0.677215">
        <ele>719.00</ele>
        <time>2020-01-19T12:32:13.04Z</time>
      </trkpt>
      <trkpt lat="42.062976" lon="0.677270">
        <ele>719.00</ele>
        <time>2020-01-19T12:32:25.07Z</time>
      </trkpt>
      <trkpt lat="42.062906" lon="0.677349">
        <ele>719.56</ele>
        <time>2020-01-19T12:32:34.04Z</time>
      </trkpt>
      <trkpt lat="42.062832" lon="0.677458">
        <ele>720.00</ele>
        <time>2020-01-19T12:32:46.07Z</time>
      </trkpt>
      <trkpt lat="42.062758" lon="0.677557">
        <ele>724.00</ele>
        <time>2020-01-19T12:32:53.04Z</time>
      </trkpt>
      <trkpt lat="42.062689" lon="0.677711">
        <ele>725.00</ele>
        <time>2020-01-19T12:33:02.07Z</time>
      </trkpt>
      <trkpt lat="42.062589" lon="0.677766">
        <ele>726.00</ele>
        <time>2020-01-19T12:33:08.07Z</time>
      </trkpt>
      <trkpt lat="42.062499" lon="0.677719">
        <ele>726.00</ele>
        <time>2020-01-19T12:33:14.04Z</time>
      </trkpt>
      <trkpt lat="42.062415" lon="0.677788">
        <ele>732.00</ele>
        <time>2020-01-19T12:33:37.04Z</time>
      </trkpt>
      <trkpt lat="42.062400" lon="0.677908">
        <ele>738.00</ele>
        <time>2020-01-19T12:33:58.01Z</time>
      </trkpt>
      <trkpt lat="42.062352" lon="0.678028">
        <ele>740.00</ele>
        <time>2020-01-19T12:34:17.07Z</time>
      </trkpt>
      <trkpt lat="42.062298" lon="0.678143">
        <ele>741.00</ele>
        <time>2020-01-19T12:34:33.04Z</time>
      </trkpt>
      <trkpt lat="42.062213" lon="0.678193">
        <ele>743.00</ele>
        <time>2020-01-19T12:34:42.04Z</time>
      </trkpt>
      <trkpt lat="42.062114" lon="0.678178">
        <ele>745.00</ele>
        <time>2020-01-19T12:34:51.04Z</time>
      </trkpt>
      <trkpt lat="42.062024" lon="0.678157">
        <ele>745.00</ele>
        <time>2020-01-19T12:34:56.04Z</time>
      </trkpt>
      <trkpt lat="42.061970" lon="0.678057">
        <ele>747.00</ele>
        <time>2020-01-19T12:35:06.04Z</time>
      </trkpt>
      <trkpt lat="42.061904" lon="0.677963">
        <ele>747.00</ele>
        <time>2020-01-19T12:35:13.04Z</time>
      </trkpt>
      <trkpt lat="42.061809" lon="0.677934">
        <ele>747.00</ele>
        <time>2020-01-19T12:35:20.07Z</time>
      </trkpt>
      <trkpt lat="42.061696" lon="0.677916">
        <ele>749.00</ele>
        <time>2020-01-19T12:35:30.07Z</time>
      </trkpt>
      <trkpt lat="42.061604" lon="0.677908">
        <ele>750.00</ele>
        <time>2020-01-19T12:35:41.07Z</time>
      </trkpt>
      <trkpt lat="42.061498" lon="0.677948">
        <ele>753.00</ele>
        <time>2020-01-19T12:35:50.04Z</time>
      </trkpt>
      <trkpt lat="42.061419" lon="0.678031">
        <ele>753.00</ele>
        <time>2020-01-19T12:36:01.07Z</time>
      </trkpt>
      <trkpt lat="42.061327" lon="0.678074">
        <ele>756.00</ele>
        <time>2020-01-19T12:36:14.04Z</time>
      </trkpt>
      <trkpt lat="42.061217" lon="0.678095">
        <ele>757.00</ele>
        <time>2020-01-19T12:36:24.07Z</time>
      </trkpt>
      <trkpt lat="42.061119" lon="0.678102">
        <ele>757.00</ele>
        <time>2020-01-19T12:36:33.04Z</time>
      </trkpt>
      <trkpt lat="42.061027" lon="0.678115">
        <ele>760.00</ele>
        <time>2020-01-19T12:36:39.04Z</time>
      </trkpt>
      <trkpt lat="42.060920" lon="0.678144">
        <ele>762.00</ele>
        <time>2020-01-19T12:36:44.04Z</time>
      </trkpt>
      <trkpt lat="42.060820" lon="0.678148">
        <ele>763.00</ele>
        <time>2020-01-19T12:36:52.04Z</time>
      </trkpt>
      <trkpt lat="42.060712" lon="0.678217">
        <ele>762.00</ele>
        <time>2020-01-19T12:36:58.04Z</time>
      </trkpt>
      <trkpt lat="42.060621" lon="0.678183">
        <ele>761.00</ele>
        <time>2020-01-19T12:37:07.07Z</time>
      </trkpt>
      <trkpt lat="42.060533" lon="0.678108">
        <ele>761.73</ele>
        <time>2020-01-19T12:37:17.07Z</time>
      </trkpt>
      <trkpt lat="42.060431" lon="0.678163">
        <ele>763.00</ele>
        <time>2020-01-19T12:37:41.04Z</time>
      </trkpt>
      <trkpt lat="42.060334" lon="0.678207">
        <ele>763.00</ele>
        <time>2020-01-19T12:37:47.04Z</time>
      </trkpt>
      <trkpt lat="42.060233" lon="0.678220">
        <ele>767.00</ele>
        <time>2020-01-19T12:38:46.04Z</time>
      </trkpt>
      <trkpt lat="42.060141" lon="0.678223">
        <ele>767.00</ele>
        <time>2020-01-19T12:39:02.04Z</time>
      </trkpt>
      <trkpt lat="42.060107" lon="0.678341">
        <ele>766.00</ele>
        <time>2020-01-19T12:40:50.04Z</time>
      </trkpt>
      <trkpt lat="42.060147" lon="0.678214">
        <ele>766.00</ele>
        <time>2020-01-19T12:41:16.04Z</time>
      </trkpt>
      <trkpt lat="42.060223" lon="0.678150">
        <ele>767.00</ele>
        <time>2020-01-19T12:42:05.04Z</time>
      </trkpt>
      <trkpt lat="42.060138" lon="0.678274">
        <ele>767.00</ele>
        <time>2020-01-19T12:43:33.04Z</time>
      </trkpt>
      <trkpt lat="42.060056" lon="0.678375">
        <ele>767.49</ele>
        <time>2020-01-19T12:43:46.07Z</time>
      </trkpt>
      <trkpt lat="42.059974" lon="0.678428">
        <ele>769.00</ele>
        <time>2020-01-19T12:43:54.04Z</time>
      </trkpt>
      <trkpt lat="42.059884" lon="0.678474">
        <ele>774.00</ele>
        <time>2020-01-19T12:44:05.04Z</time>
      </trkpt>
      <trkpt lat="42.059814" lon="0.678550">
        <ele>778.00</ele>
        <time>2020-01-19T12:44:22.01Z</time>
      </trkpt>
      <trkpt lat="42.059719" lon="0.678630">
        <ele>779.00</ele>
        <time>2020-01-19T12:44:35.04Z</time>
      </trkpt>
      <trkpt lat="42.059628" lon="0.678690">
        <ele>781.00</ele>
        <time>2020-01-19T12:44:41.06Z</time>
      </trkpt>
      <trkpt lat="42.059538" lon="0.678705">
        <ele>785.00</ele>
        <time>2020-01-19T12:45:09.07Z</time>
      </trkpt>
      <trkpt lat="42.059547" lon="0.678831">
        <ele>786.41</ele>
        <time>2020-01-19T12:45:24.04Z</time>
      </trkpt>
      <trkpt lat="42.059522" lon="0.678947">
        <ele>789.15</ele>
        <time>2020-01-19T12:45:35.07Z</time>
      </trkpt>
      <trkpt lat="42.059445" lon="0.679026">
        <ele>790.11</ele>
        <time>2020-01-19T12:45:41.04Z</time>
      </trkpt>
      <trkpt lat="42.059387" lon="0.679153">
        <ele>793.00</ele>
        <time>2020-01-19T12:45:52.04Z</time>
      </trkpt>
      <trkpt lat="42.059298" lon="0.679215">
        <ele>795.00</ele>
        <time>2020-01-19T12:46:01.04Z</time>
      </trkpt>
      <trkpt lat="42.059193" lon="0.679300">
        <ele>797.00</ele>
        <time>2020-01-19T12:46:17.10Z</time>
      </trkpt>
      <trkpt lat="42.059118" lon="0.679429">
        <ele>800.80</ele>
        <time>2020-01-19T12:46:30.04Z</time>
      </trkpt>
      <trkpt lat="42.059052" lon="0.679530">
        <ele>803.00</ele>
        <time>2020-01-19T12:46:44.04Z</time>
      </trkpt>
      <trkpt lat="42.059005" lon="0.679644">
        <ele>805.00</ele>
        <time>2020-01-19T12:47:03.04Z</time>
      </trkpt>
      <trkpt lat="42.058916" lon="0.679714">
        <ele>807.00</ele>
        <time>2020-01-19T12:47:08.04Z</time>
      </trkpt>
      <trkpt lat="42.058834" lon="0.679772">
        <ele>808.00</ele>
        <time>2020-01-19T12:47:17.04Z</time>
      </trkpt>
      <trkpt lat="42.058742" lon="0.679796">
        <ele>808.00</ele>
        <time>2020-01-19T12:47:24.04Z</time>
      </trkpt>
      <trkpt lat="42.058656" lon="0.679860">
        <ele>811.29</ele>
        <time>2020-01-19T12:47:36.04Z</time>
      </trkpt>
      <trkpt lat="42.058571" lon="0.679810">
        <ele>814.00</ele>
        <time>2020-01-19T12:47:47.01Z</time>
      </trkpt>
      <trkpt lat="42.058469" lon="0.679802">
        <ele>816.00</ele>
        <time>2020-01-19T12:48:00.04Z</time>
      </trkpt>
      <trkpt lat="42.058397" lon="0.679903">
        <ele>817.00</ele>
        <time>2020-01-19T12:48:07.07Z</time>
      </trkpt>
      <trkpt lat="42.058299" lon="0.679945">
        <ele>821.00</ele>
        <time>2020-01-19T12:48:21.04Z</time>
      </trkpt>
      <trkpt lat="42.058221" lon="0.680010">
        <ele>824.00</ele>
        <time>2020-01-19T12:48:38.04Z</time>
      </trkpt>
      <trkpt lat="42.058109" lon="0.680068">
        <ele>825.00</ele>
        <time>2020-01-19T12:48:42.04Z</time>
      </trkpt>
      <trkpt lat="42.058040" lon="0.680169">
        <ele>828.00</ele>
        <time>2020-01-19T12:48:54.03Z</time>
      </trkpt>
      <trkpt lat="42.057961" lon="0.680090">
        <ele>830.00</ele>
        <time>2020-01-19T12:49:04.04Z</time>
      </trkpt>
      <trkpt lat="42.057872" lon="0.680131">
        <ele>830.00</ele>
        <time>2020-01-19T12:49:12.04Z</time>
      </trkpt>
      <trkpt lat="42.057788" lon="0.680064">
        <ele>834.00</ele>
        <time>2020-01-19T12:49:25.03Z</time>
      </trkpt>
      <trkpt lat="42.057715" lon="0.679988">
        <ele>840.00</ele>
        <time>2020-01-19T12:50:03.07Z</time>
      </trkpt>
      <trkpt lat="42.057625" lon="0.679972">
        <ele>840.00</ele>
        <time>2020-01-19T12:50:24.04Z</time>
      </trkpt>
      <trkpt lat="42.057529" lon="0.679954">
        <ele>842.00</ele>
        <time>2020-01-19T12:50:36.04Z</time>
      </trkpt>
      <trkpt lat="42.057434" lon="0.679959">
        <ele>844.00</ele>
        <time>2020-01-19T12:50:45.04Z</time>
      </trkpt>
      <trkpt lat="42.057346" lon="0.679994">
        <ele>845.18</ele>
        <time>2020-01-19T12:50:57.04Z</time>
      </trkpt>
      <trkpt lat="42.057251" lon="0.679949">
        <ele>847.00</ele>
        <time>2020-01-19T12:51:09.04Z</time>
      </trkpt>
      <trkpt lat="42.057159" lon="0.679962">
        <ele>846.00</ele>
        <time>2020-01-19T12:51:16.01Z</time>
      </trkpt>
      <trkpt lat="42.057068" lon="0.679992">
        <ele>847.00</ele>
        <time>2020-01-19T12:51:25.04Z</time>
      </trkpt>
      <trkpt lat="42.056977" lon="0.679952">
        <ele>847.00</ele>
        <time>2020-01-19T12:51:35.04Z</time>
      </trkpt>
      <trkpt lat="42.056903" lon="0.679881">
        <ele>849.00</ele>
        <time>2020-01-19T12:51:47.01Z</time>
      </trkpt>
      <trkpt lat="42.056815" lon="0.679825">
        <ele>849.00</ele>
        <time>2020-01-19T12:51:58.04Z</time>
      </trkpt>
      <trkpt lat="42.056720" lon="0.679819">
        <ele>853.00</ele>
        <time>2020-01-19T12:52:20.04Z</time>
      </trkpt>
      <trkpt lat="42.056628" lon="0.679839">
        <ele>854.00</ele>
        <time>2020-01-19T12:52:42.04Z</time>
      </trkpt>
      <trkpt lat="42.056543" lon="0.679893">
        <ele>856.08</ele>
        <time>2020-01-19T12:52:52.04Z</time>
      </trkpt>
      <trkpt lat="42.056478" lon="0.679989">
        <ele>858.00</ele>
        <time>2020-01-19T12:53:04.04Z</time>
      </trkpt>
      <trkpt lat="42.056399" lon="0.680079">
        <ele>858.16</ele>
        <time>2020-01-19T12:53:16.04Z</time>
      </trkpt>
      <trkpt lat="42.056309" lon="0.680118">
        <ele>864.00</ele>
        <time>2020-01-19T12:53:41.03Z</time>
      </trkpt>
      <trkpt lat="42.056215" lon="0.680145">
        <ele>865.00</ele>
        <time>2020-01-19T12:54:12.06Z</time>
      </trkpt>
      <trkpt lat="42.056138" lon="0.680218">
        <ele>868.00</ele>
        <time>2020-01-19T12:54:33.04Z</time>
      </trkpt>
      <trkpt lat="42.056155" lon="0.680354">
        <ele>872.00</ele>
        <time>2020-01-19T12:54:47.95Z</time>
      </trkpt>
      <trkpt lat="42.056136" lon="0.680487">
        <ele>874.00</ele>
        <time>2020-01-19T12:55:03.04Z</time>
      </trkpt>
      <trkpt lat="42.056094" lon="0.680597">
        <ele>877.00</ele>
        <time>2020-01-19T12:55:14.04Z</time>
      </trkpt>
      <trkpt lat="42.056046" lon="0.680700">
        <ele>882.00</ele>
        <time>2020-01-19T12:55:28.04Z</time>
      </trkpt>
      <trkpt lat="42.056016" lon="0.680840">
        <ele>883.00</ele>
        <time>2020-01-19T12:55:40.04Z</time>
      </trkpt>
      <trkpt lat="42.056012" lon="0.680971">
        <ele>884.00</ele>
        <time>2020-01-19T12:55:50.06Z</time>
      </trkpt>
      <trkpt lat="42.055980" lon="0.681084">
        <ele>887.00</ele>
        <time>2020-01-19T12:56:03.04Z</time>
      </trkpt>
      <trkpt lat="42.055933" lon="0.681202">
        <ele>889.00</ele>
        <time>2020-01-19T12:56:16.04Z</time>
      </trkpt>
      <trkpt lat="42.055915" lon="0.681329">
        <ele>890.00</ele>
        <time>2020-01-19T12:56:29.07Z</time>
      </trkpt>
      <trkpt lat="42.055891" lon="0.681450">
        <ele>892.00</ele>
        <time>2020-01-19T12:56:40.04Z</time>
      </trkpt>
      <trkpt lat="42.055860" lon="0.681586">
        <ele>896.00</ele>
        <time>2020-01-19T12:56:54.04Z</time>
      </trkpt>
      <trkpt lat="42.055907" lon="0.681702">
        <ele>898.00</ele>
        <time>2020-01-19T12:57:08.07Z</time>
      </trkpt>
      <trkpt lat="42.055886" lon="0.681832">
        <ele>902.00</ele>
        <time>2020-01-19T12:57:19.04Z</time>
      </trkpt>
      <trkpt lat="42.055844" lon="0.681939">
        <ele>903.00</ele>
        <time>2020-01-19T12:57:28.07Z</time>
      </trkpt>
      <trkpt lat="42.055834" lon="0.682062">
        <ele>904.00</ele>
        <time>2020-01-19T12:57:41.01Z</time>
      </trkpt>
      <trkpt lat="42.055824" lon="0.682184">
        <ele>906.08</ele>
        <time>2020-01-19T12:57:52.04Z</time>
      </trkpt>
      <trkpt lat="42.055844" lon="0.682306">
        <ele>908.06</ele>
        <time>2020-01-19T12:58:01.04Z</time>
      </trkpt>
      <trkpt lat="42.055818" lon="0.682423">
        <ele>906.00</ele>
        <time>2020-01-19T12:58:32.04Z</time>
      </trkpt>
      <trkpt lat="42.055709" lon="0.682484">
        <ele>907.00</ele>
        <time>2020-01-19T12:58:44.04Z</time>
      </trkpt>
      <trkpt lat="42.055591" lon="0.682522">
        <ele>905.00</ele>
        <time>2020-01-19T12:58:53.04Z</time>
      </trkpt>
      <trkpt lat="42.055492" lon="0.682592">
        <ele>904.00</ele>
        <time>2020-01-19T12:59:04.04Z</time>
      </trkpt>
      <trkpt lat="42.055457" lon="0.682728">
        <ele>903.00</ele>
        <time>2020-01-19T12:59:10.04Z</time>
      </trkpt>
      <trkpt lat="42.055381" lon="0.682801">
        <ele>903.00</ele>
        <time>2020-01-19T12:59:20.07Z</time>
      </trkpt>
      <trkpt lat="42.055329" lon="0.682920">
        <ele>901.80</ele>
        <time>2020-01-19T12:59:29.07Z</time>
      </trkpt>
      <trkpt lat="42.055315" lon="0.683050">
        <ele>900.00</ele>
        <time>2020-01-19T12:59:37.07Z</time>
      </trkpt>
      <trkpt lat="42.055275" lon="0.683165">
        <ele>900.00</ele>
        <time>2020-01-19T12:59:45.04Z</time>
      </trkpt>
      <trkpt lat="42.055211" lon="0.683274">
        <ele>900.00</ele>
        <time>2020-01-19T12:59:51.04Z</time>
      </trkpt>
      <trkpt lat="42.055141" lon="0.683380">
        <ele>898.00</ele>
        <time>2020-01-19T12:59:57.07Z</time>
      </trkpt>
      <trkpt lat="42.055099" lon="0.683508">
        <ele>898.00</ele>
        <time>2020-01-19T13:00:03.04Z</time>
      </trkpt>
      <trkpt lat="42.055047" lon="0.683646">
        <ele>899.00</ele>
        <time>2020-01-19T13:00:10.04Z</time>
      </trkpt>
      <trkpt lat="42.054989" lon="0.683745">
        <ele>899.00</ele>
        <time>2020-01-19T13:00:15.07Z</time>
      </trkpt>
      <trkpt lat="42.054947" lon="0.683861">
        <ele>899.00</ele>
        <time>2020-01-19T13:00:21.07Z</time>
      </trkpt>
      <trkpt lat="42.054934" lon="0.683992">
        <ele>899.00</ele>
        <time>2020-01-19T13:00:28.04Z</time>
      </trkpt>
      <trkpt lat="42.054901" lon="0.684113">
        <ele>900.00</ele>
        <time>2020-01-19T13:00:35.04Z</time>
      </trkpt>
      <trkpt lat="42.054817" lon="0.684220">
        <ele>900.00</ele>
        <time>2020-01-19T13:00:41.04Z</time>
      </trkpt>
      <trkpt lat="42.054738" lon="0.684310">
        <ele>900.00</ele>
        <time>2020-01-19T13:00:46.06Z</time>
      </trkpt>
      <trkpt lat="42.054675" lon="0.684405">
        <ele>900.00</ele>
        <time>2020-01-19T13:00:52.01Z</time>
      </trkpt>
      <trkpt lat="42.054621" lon="0.684547">
        <ele>900.00</ele>
        <time>2020-01-19T13:01:02.27Z</time>
      </trkpt>
      <trkpt lat="42.054522" lon="0.684651">
        <ele>901.00</ele>
        <time>2020-01-19T13:01:08.04Z</time>
      </trkpt>
      <trkpt lat="42.054450" lon="0.684741">
        <ele>901.00</ele>
        <time>2020-01-19T13:01:13.04Z</time>
      </trkpt>
      <trkpt lat="42.054403" lon="0.684868">
        <ele>901.00</ele>
        <time>2020-01-19T13:01:20.04Z</time>
      </trkpt>
      <trkpt lat="42.054320" lon="0.684948">
        <ele>901.00</ele>
        <time>2020-01-19T13:01:27.06Z</time>
      </trkpt>
      <trkpt lat="42.054244" lon="0.685043">
        <ele>900.00</ele>
        <time>2020-01-19T13:01:34.07Z</time>
      </trkpt>
      <trkpt lat="42.054161" lon="0.685098">
        <ele>901.00</ele>
        <time>2020-01-19T13:01:41.07Z</time>
      </trkpt>
      <trkpt lat="42.054076" lon="0.685146">
        <ele>901.00</ele>
        <time>2020-01-19T13:01:50.04Z</time>
      </trkpt>
      <trkpt lat="42.053987" lon="0.685205">
        <ele>903.00</ele>
        <time>2020-01-19T13:02:01.01Z</time>
      </trkpt>
      <trkpt lat="42.053898" lon="0.685244">
        <ele>905.00</ele>
        <time>2020-01-19T13:02:10.04Z</time>
      </trkpt>
      <trkpt lat="42.053775" lon="0.685266">
        <ele>905.00</ele>
        <time>2020-01-19T13:02:17.94Z</time>
      </trkpt>
      <trkpt lat="42.053641" lon="0.685282">
        <ele>908.00</ele>
        <time>2020-01-19T13:02:24.98Z</time>
      </trkpt>
      <trkpt lat="42.053548" lon="0.685289">
        <ele>908.00</ele>
        <time>2020-01-19T13:02:31.04Z</time>
      </trkpt>
      <trkpt lat="42.053455" lon="0.685301">
        <ele>908.00</ele>
        <time>2020-01-19T13:02:39.04Z</time>
      </trkpt>
      <trkpt lat="42.053369" lon="0.685348">
        <ele>908.00</ele>
        <time>2020-01-19T13:02:46.04Z</time>
      </trkpt>
      <trkpt lat="42.053253" lon="0.685391">
        <ele>909.00</ele>
        <time>2020-01-19T13:02:55.04Z</time>
      </trkpt>
      <trkpt lat="42.053164" lon="0.685443">
        <ele>913.00</ele>
        <time>2020-01-19T13:03:09.06Z</time>
      </trkpt>
      <trkpt lat="42.053076" lon="0.685518">
        <ele>914.00</ele>
        <time>2020-01-19T13:03:19.04Z</time>
      </trkpt>
      <trkpt lat="42.052978" lon="0.685577">
        <ele>915.00</ele>
        <time>2020-01-19T13:03:27.06Z</time>
      </trkpt>
      <trkpt lat="42.052873" lon="0.685606">
        <ele>917.00</ele>
        <time>2020-01-19T13:03:36.07Z</time>
      </trkpt>
      <trkpt lat="42.052775" lon="0.685658">
        <ele>917.00</ele>
        <time>2020-01-19T13:03:44.04Z</time>
      </trkpt>
      <trkpt lat="42.052693" lon="0.685726">
        <ele>917.00</ele>
        <time>2020-01-19T13:03:51.04Z</time>
      </trkpt>
      <trkpt lat="42.052609" lon="0.685775">
        <ele>919.00</ele>
        <time>2020-01-19T13:03:58.03Z</time>
      </trkpt>
      <trkpt lat="42.052520" lon="0.685806">
        <ele>919.00</ele>
        <time>2020-01-19T13:04:06.04Z</time>
      </trkpt>
      <trkpt lat="42.052425" lon="0.685837">
        <ele>919.00</ele>
        <time>2020-01-19T13:04:13.01Z</time>
      </trkpt>
      <trkpt lat="42.052292" lon="0.685834">
        <ele>919.00</ele>
        <time>2020-01-19T13:04:26.10Z</time>
      </trkpt>
      <trkpt lat="42.052202" lon="0.685839">
        <ele>919.00</ele>
        <time>2020-01-19T13:04:31.03Z</time>
      </trkpt>
      <trkpt lat="42.052098" lon="0.685819">
        <ele>920.00</ele>
        <time>2020-01-19T13:04:43.07Z</time>
      </trkpt>
      <trkpt lat="42.052008" lon="0.685805">
        <ele>920.00</ele>
        <time>2020-01-19T13:04:52.07Z</time>
      </trkpt>
      <trkpt lat="42.051903" lon="0.685809">
        <ele>922.00</ele>
        <time>2020-01-19T13:05:01.04Z</time>
      </trkpt>
      <trkpt lat="42.051785" lon="0.685842">
        <ele>924.00</ele>
        <time>2020-01-19T13:05:09.04Z</time>
      </trkpt>
      <trkpt lat="42.051699" lon="0.685891">
        <ele>926.00</ele>
        <time>2020-01-19T13:05:17.01Z</time>
      </trkpt>
      <trkpt lat="42.051608" lon="0.685952">
        <ele>926.00</ele>
        <time>2020-01-19T13:05:24.04Z</time>
      </trkpt>
      <trkpt lat="42.051546" lon="0.686041">
        <ele>927.00</ele>
        <time>2020-01-19T13:05:32.01Z</time>
      </trkpt>
      <trkpt lat="42.051456" lon="0.686064">
        <ele>928.00</ele>
        <time>2020-01-19T13:05:41.04Z</time>
      </trkpt>
      <trkpt lat="42.051365" lon="0.686110">
        <ele>928.00</ele>
        <time>2020-01-19T13:06:21.04Z</time>
      </trkpt>
      <trkpt lat="42.051276" lon="0.686214">
        <ele>929.00</ele>
        <time>2020-01-19T13:06:31.07Z</time>
      </trkpt>
      <trkpt lat="42.051193" lon="0.686293">
        <ele>928.00</ele>
        <time>2020-01-19T13:06:40.04Z</time>
      </trkpt>
      <trkpt lat="42.051116" lon="0.686373">
        <ele>929.00</ele>
        <time>2020-01-19T13:06:50.04Z</time>
      </trkpt>
      <trkpt lat="42.051054" lon="0.686466">
        <ele>931.00</ele>
        <time>2020-01-19T13:06:58.01Z</time>
      </trkpt>
      <trkpt lat="42.050968" lon="0.686509">
        <ele>930.00</ele>
        <time>2020-01-19T13:07:04.04Z</time>
      </trkpt>
      <trkpt lat="42.050898" lon="0.686612">
        <ele>930.00</ele>
        <time>2020-01-19T13:07:11.04Z</time>
      </trkpt>
      <trkpt lat="42.050831" lon="0.686706">
        <ele>929.00</ele>
        <time>2020-01-19T13:07:18.04Z</time>
      </trkpt>
      <trkpt lat="42.050756" lon="0.686775">
        <ele>929.00</ele>
        <time>2020-01-19T13:07:26.01Z</time>
      </trkpt>
      <trkpt lat="42.050650" lon="0.686854">
        <ele>929.00</ele>
        <time>2020-01-19T13:07:34.07Z</time>
      </trkpt>
      <trkpt lat="42.050548" lon="0.686920">
        <ele>929.00</ele>
        <time>2020-01-19T13:07:44.04Z</time>
      </trkpt>
      <trkpt lat="42.050472" lon="0.687015">
        <ele>935.00</ele>
        <time>2020-01-19T13:07:53.03Z</time>
      </trkpt>
      <trkpt lat="42.050393" lon="0.687088">
        <ele>938.00</ele>
        <time>2020-01-19T13:08:03.07Z</time>
      </trkpt>
      <trkpt lat="42.050321" lon="0.687191">
        <ele>938.00</ele>
        <time>2020-01-19T13:08:08.04Z</time>
      </trkpt>
      <trkpt lat="42.050259" lon="0.687299">
        <ele>938.00</ele>
        <time>2020-01-19T13:08:15.01Z</time>
      </trkpt>
      <trkpt lat="42.050187" lon="0.687396">
        <ele>940.00</ele>
        <time>2020-01-19T13:08:24.04Z</time>
      </trkpt>
      <trkpt lat="42.050109" lon="0.687475">
        <ele>940.00</ele>
        <time>2020-01-19T13:08:30.04Z</time>
      </trkpt>
      <trkpt lat="42.050002" lon="0.687511">
        <ele>943.00</ele>
        <time>2020-01-19T13:09:00.07Z</time>
      </trkpt>
      <trkpt lat="42.049932" lon="0.687606">
        <ele>943.94</ele>
        <time>2020-01-19T13:09:12.04Z</time>
      </trkpt>
      <trkpt lat="42.049850" lon="0.687669">
        <ele>946.00</ele>
        <time>2020-01-19T13:09:19.07Z</time>
      </trkpt>
      <trkpt lat="42.049774" lon="0.687751">
        <ele>946.00</ele>
        <time>2020-01-19T13:09:28.04Z</time>
      </trkpt>
      <trkpt lat="42.049682" lon="0.687841">
        <ele>946.00</ele>
        <time>2020-01-19T13:09:38.06Z</time>
      </trkpt>
      <trkpt lat="42.049620" lon="0.687932">
        <ele>945.00</ele>
        <time>2020-01-19T13:09:49.07Z</time>
      </trkpt>
      <trkpt lat="42.049562" lon="0.688053">
        <ele>946.00</ele>
        <time>2020-01-19T13:10:00.01Z</time>
      </trkpt>
      <trkpt lat="42.049515" lon="0.688169">
        <ele>947.00</ele>
        <time>2020-01-19T13:10:07.01Z</time>
      </trkpt>
      <trkpt lat="42.049426" lon="0.688213">
        <ele>947.19</ele>
        <time>2020-01-19T13:10:14.04Z</time>
      </trkpt>
      <trkpt lat="42.049339" lon="0.688259">
        <ele>948.00</ele>
        <time>2020-01-19T13:10:24.04Z</time>
      </trkpt>
      <trkpt lat="42.049246" lon="0.688271">
        <ele>949.00</ele>
        <time>2020-01-19T13:10:32.04Z</time>
      </trkpt>
      <trkpt lat="42.049171" lon="0.688362">
        <ele>952.00</ele>
        <time>2020-01-19T13:10:47.04Z</time>
      </trkpt>
      <trkpt lat="42.049095" lon="0.688475">
        <ele>951.00</ele>
        <time>2020-01-19T13:10:55.07Z</time>
      </trkpt>
      <trkpt lat="42.049020" lon="0.688569">
        <ele>952.00</ele>
        <time>2020-01-19T13:11:01.04Z</time>
      </trkpt>
      <trkpt lat="42.048946" lon="0.688653">
        <ele>952.00</ele>
        <time>2020-01-19T13:11:09.06Z</time>
      </trkpt>
      <trkpt lat="42.048864" lon="0.688710">
        <ele>952.57</ele>
        <time>2020-01-19T13:11:17.01Z</time>
      </trkpt>
      <trkpt lat="42.048784" lon="0.688766">
        <ele>954.00</ele>
        <time>2020-01-19T13:11:25.01Z</time>
      </trkpt>
      <trkpt lat="42.048711" lon="0.688872">
        <ele>954.00</ele>
        <time>2020-01-19T13:11:32.04Z</time>
      </trkpt>
      <trkpt lat="42.048644" lon="0.688954">
        <ele>955.00</ele>
        <time>2020-01-19T13:11:39.06Z</time>
      </trkpt>
      <trkpt lat="42.048579" lon="0.689065">
        <ele>953.00</ele>
        <time>2020-01-19T13:11:46.06Z</time>
      </trkpt>
      <trkpt lat="42.048522" lon="0.689173">
        <ele>953.00</ele>
        <time>2020-01-19T13:11:54.07Z</time>
      </trkpt>
      <trkpt lat="42.048484" lon="0.689307">
        <ele>947.00</ele>
        <time>2020-01-19T13:12:01.04Z</time>
      </trkpt>
      <trkpt lat="42.048454" lon="0.689426">
        <ele>945.96</ele>
        <time>2020-01-19T13:12:07.04Z</time>
      </trkpt>
      <trkpt lat="42.048408" lon="0.689534">
        <ele>944.94</ele>
        <time>2020-01-19T13:12:14.01Z</time>
      </trkpt>
      <trkpt lat="42.048322" lon="0.689616">
        <ele>943.71</ele>
        <time>2020-01-19T13:12:21.04Z</time>
      </trkpt>
      <trkpt lat="42.048278" lon="0.689735">
        <ele>942.00</ele>
        <time>2020-01-19T13:12:30.04Z</time>
      </trkpt>
      <trkpt lat="42.048198" lon="0.689855">
        <ele>942.00</ele>
        <time>2020-01-19T13:12:38.04Z</time>
      </trkpt>
      <trkpt lat="42.048149" lon="0.689976">
        <ele>944.00</ele>
        <time>2020-01-19T13:12:43.04Z</time>
      </trkpt>
      <trkpt lat="42.048078" lon="0.690086">
        <ele>944.00</ele>
        <time>2020-01-19T13:12:47.04Z</time>
      </trkpt>
      <trkpt lat="42.047981" lon="0.690173">
        <ele>944.00</ele>
        <time>2020-01-19T13:12:52.01Z</time>
      </trkpt>
      <trkpt lat="42.047926" lon="0.690282">
        <ele>944.00</ele>
        <time>2020-01-19T13:12:56.07Z</time>
      </trkpt>
      <trkpt lat="42.047838" lon="0.690413">
        <ele>943.35</ele>
        <time>2020-01-19T13:13:01.07Z</time>
      </trkpt>
      <trkpt lat="42.047800" lon="0.690525">
        <ele>942.00</ele>
        <time>2020-01-19T13:13:07.06Z</time>
      </trkpt>
      <trkpt lat="42.047796" lon="0.690653">
        <ele>942.00</ele>
        <time>2020-01-19T13:13:12.01Z</time>
      </trkpt>
      <trkpt lat="42.047777" lon="0.690804">
        <ele>940.00</ele>
        <time>2020-01-19T13:13:17.01Z</time>
      </trkpt>
      <trkpt lat="42.047772" lon="0.690965">
        <ele>940.00</ele>
        <time>2020-01-19T13:13:22.07Z</time>
      </trkpt>
      <trkpt lat="42.047740" lon="0.691082">
        <ele>940.00</ele>
        <time>2020-01-19T13:13:27.04Z</time>
      </trkpt>
      <trkpt lat="42.047686" lon="0.691189">
        <ele>940.00</ele>
        <time>2020-01-19T13:13:31.06Z</time>
      </trkpt>
      <trkpt lat="42.047612" lon="0.691292">
        <ele>939.00</ele>
        <time>2020-01-19T13:13:37.04Z</time>
      </trkpt>
      <trkpt lat="42.047509" lon="0.691344">
        <ele>938.00</ele>
        <time>2020-01-19T13:13:47.01Z</time>
      </trkpt>
      <trkpt lat="42.047411" lon="0.691371">
        <ele>938.00</ele>
        <time>2020-01-19T13:13:56.04Z</time>
      </trkpt>
      <trkpt lat="42.047314" lon="0.691370">
        <ele>939.00</ele>
        <time>2020-01-19T13:14:05.01Z</time>
      </trkpt>
      <trkpt lat="42.047213" lon="0.691478">
        <ele>940.00</ele>
        <time>2020-01-19T13:14:16.07Z</time>
      </trkpt>
      <trkpt lat="42.047121" lon="0.691525">
        <ele>941.00</ele>
        <time>2020-01-19T13:14:25.04Z</time>
      </trkpt>
      <trkpt lat="42.047038" lon="0.691453">
        <ele>942.00</ele>
        <time>2020-01-19T13:14:36.99Z</time>
      </trkpt>
      <trkpt lat="42.046969" lon="0.691374">
        <ele>946.00</ele>
        <time>2020-01-19T13:14:51.04Z</time>
      </trkpt>
      <trkpt lat="42.046836" lon="0.691396">
        <ele>947.00</ele>
        <time>2020-01-19T13:15:07.04Z</time>
      </trkpt>
      <trkpt lat="42.046741" lon="0.691408">
        <ele>947.18</ele>
        <time>2020-01-19T13:15:16.04Z</time>
      </trkpt>
      <trkpt lat="42.046633" lon="0.691360">
        <ele>951.05</ele>
        <time>2020-01-19T13:15:27.04Z</time>
      </trkpt>
      <trkpt lat="42.046539" lon="0.691356">
        <ele>953.00</ele>
        <time>2020-01-19T13:15:37.04Z</time>
      </trkpt>
      <trkpt lat="42.046456" lon="0.691445">
        <ele>954.00</ele>
        <time>2020-01-19T13:15:48.04Z</time>
      </trkpt>
      <trkpt lat="42.046406" lon="0.691567">
        <ele>955.00</ele>
        <time>2020-01-19T13:15:58.04Z</time>
      </trkpt>
      <trkpt lat="42.046341" lon="0.691653">
        <ele>956.00</ele>
        <time>2020-01-19T13:16:05.04Z</time>
      </trkpt>
      <trkpt lat="42.046252" lon="0.691697">
        <ele>956.00</ele>
        <time>2020-01-19T13:16:13.01Z</time>
      </trkpt>
      <trkpt lat="42.046175" lon="0.691761">
        <ele>958.20</ele>
        <time>2020-01-19T13:16:24.04Z</time>
      </trkpt>
      <trkpt lat="42.046092" lon="0.691816">
        <ele>961.00</ele>
        <time>2020-01-19T13:16:37.04Z</time>
      </trkpt>
      <trkpt lat="42.046002" lon="0.691835">
        <ele>961.31</ele>
        <time>2020-01-19T13:16:45.04Z</time>
      </trkpt>
      <trkpt lat="42.045899" lon="0.691832">
        <ele>962.00</ele>
        <time>2020-01-19T13:16:51.07Z</time>
      </trkpt>
      <trkpt lat="42.045801" lon="0.691876">
        <ele>960.00</ele>
        <time>2020-01-19T13:16:57.01Z</time>
      </trkpt>
      <trkpt lat="42.045733" lon="0.691963">
        <ele>960.00</ele>
        <time>2020-01-19T13:17:02.01Z</time>
      </trkpt>
      <trkpt lat="42.045676" lon="0.692059">
        <ele>959.00</ele>
        <time>2020-01-19T13:17:12.04Z</time>
      </trkpt>
      <trkpt lat="42.045652" lon="0.692189">
        <ele>959.00</ele>
        <time>2020-01-19T13:17:22.07Z</time>
      </trkpt>
      <trkpt lat="42.045583" lon="0.692320">
        <ele>961.00</ele>
        <time>2020-01-19T13:17:30.07Z</time>
      </trkpt>
      <trkpt lat="42.045502" lon="0.692376">
        <ele>962.00</ele>
        <time>2020-01-19T13:17:35.04Z</time>
      </trkpt>
      <trkpt lat="42.045396" lon="0.692471">
        <ele>965.00</ele>
        <time>2020-01-19T13:17:47.04Z</time>
      </trkpt>
      <trkpt lat="42.045316" lon="0.692541">
        <ele>968.02</ele>
        <time>2020-01-19T13:18:01.14Z</time>
      </trkpt>
      <trkpt lat="42.045231" lon="0.692613">
        <ele>969.00</ele>
        <time>2020-01-19T13:18:07.01Z</time>
      </trkpt>
      <trkpt lat="42.045159" lon="0.692695">
        <ele>974.00</ele>
        <time>2020-01-19T13:18:17.06Z</time>
      </trkpt>
      <trkpt lat="42.045067" lon="0.692737">
        <ele>976.53</ele>
        <time>2020-01-19T13:18:29.04Z</time>
      </trkpt>
      <trkpt lat="42.045007" lon="0.692836">
        <ele>981.00</ele>
        <time>2020-01-19T13:18:43.04Z</time>
      </trkpt>
      <trkpt lat="42.044954" lon="0.692954">
        <ele>984.80</ele>
        <time>2020-01-19T13:18:55.10Z</time>
      </trkpt>
      <trkpt lat="42.044860" lon="0.692973">
        <ele>985.00</ele>
        <time>2020-01-19T13:19:03.04Z</time>
      </trkpt>
      <trkpt lat="42.044767" lon="0.693032">
        <ele>987.00</ele>
        <time>2020-01-19T13:19:14.04Z</time>
      </trkpt>
      <trkpt lat="42.044682" lon="0.693092">
        <ele>987.00</ele>
        <time>2020-01-19T13:19:27.04Z</time>
      </trkpt>
      <trkpt lat="42.044592" lon="0.693158">
        <ele>991.00</ele>
        <time>2020-01-19T13:19:40.04Z</time>
      </trkpt>
      <trkpt lat="42.044484" lon="0.693134">
        <ele>991.00</ele>
        <time>2020-01-19T13:19:46.07Z</time>
      </trkpt>
      <trkpt lat="42.044482" lon="0.693270">
        <ele>997.00</ele>
        <time>2020-01-19T13:20:01.04Z</time>
      </trkpt>
      <trkpt lat="42.044489" lon="0.693392">
        <ele>998.00</ele>
        <time>2020-01-19T13:20:09.04Z</time>
      </trkpt>
      <trkpt lat="42.044431" lon="0.693505">
        <ele>999.00</ele>
        <time>2020-01-19T13:20:23.07Z</time>
      </trkpt>
      <trkpt lat="42.044340" lon="0.693527">
        <ele>999.00</ele>
        <time>2020-01-19T13:20:34.01Z</time>
      </trkpt>
      <trkpt lat="42.044236" lon="0.693513">
        <ele>1001.67</ele>
        <time>2020-01-19T13:20:45.04Z</time>
      </trkpt>
      <trkpt lat="42.044150" lon="0.693477">
        <ele>1003.00</ele>
        <time>2020-01-19T13:20:53.01Z</time>
      </trkpt>
      <trkpt lat="42.044058" lon="0.693486">
        <ele>1004.31</ele>
        <time>2020-01-19T13:21:00.04Z</time>
      </trkpt>
      <trkpt lat="42.043964" lon="0.693506">
        <ele>1003.00</ele>
        <time>2020-01-19T13:21:08.07Z</time>
      </trkpt>
      <trkpt lat="42.043877" lon="0.693556">
        <ele>1003.00</ele>
        <time>2020-01-19T13:21:17.04Z</time>
      </trkpt>
      <trkpt lat="42.043767" lon="0.693594">
        <ele>1006.00</ele>
        <time>2020-01-19T13:21:27.04Z</time>
      </trkpt>
      <trkpt lat="42.043681" lon="0.693646">
        <ele>1007.00</ele>
        <time>2020-01-19T13:21:34.04Z</time>
      </trkpt>
      <trkpt lat="42.043591" lon="0.693644">
        <ele>1007.00</ele>
        <time>2020-01-19T13:21:41.04Z</time>
      </trkpt>
      <trkpt lat="42.043567" lon="0.693764">
        <ele>1007.00</ele>
        <time>2020-01-19T13:21:53.04Z</time>
      </trkpt>
      <trkpt lat="42.043493" lon="0.693854">
        <ele>1012.00</ele>
        <time>2020-01-19T13:22:10.04Z</time>
      </trkpt>
      <trkpt lat="42.043398" lon="0.693943">
        <ele>1014.00</ele>
        <time>2020-01-19T13:22:21.04Z</time>
      </trkpt>
      <trkpt lat="42.043292" lon="0.693934">
        <ele>1017.21</ele>
        <time>2020-01-19T13:22:29.17Z</time>
      </trkpt>
      <trkpt lat="42.043296" lon="0.693799">
        <ele>1018.00</ele>
        <time>2020-01-19T13:22:37.99Z</time>
      </trkpt>
      <trkpt lat="42.043300" lon="0.693924">
        <ele>1019.00</ele>
        <time>2020-01-19T13:23:19.04Z</time>
      </trkpt>
      <trkpt lat="42.043262" lon="0.694057">
        <ele>1022.00</ele>
        <time>2020-01-19T13:23:29.04Z</time>
      </trkpt>
      <trkpt lat="42.043227" lon="0.694186">
        <ele>1022.00</ele>
        <time>2020-01-19T13:23:39.04Z</time>
      </trkpt>
      <trkpt lat="42.043128" lon="0.694254">
        <ele>1022.00</ele>
        <time>2020-01-19T13:23:46.04Z</time>
      </trkpt>
      <trkpt lat="42.043026" lon="0.694284">
        <ele>1021.00</ele>
        <time>2020-01-19T13:23:52.27Z</time>
      </trkpt>
      <trkpt lat="42.042931" lon="0.694360">
        <ele>1021.00</ele>
        <time>2020-01-19T13:23:56.04Z</time>
      </trkpt>
      <trkpt lat="42.042844" lon="0.694410">
        <ele>1024.00</ele>
        <time>2020-01-19T13:24:02.07Z</time>
      </trkpt>
      <trkpt lat="42.042756" lon="0.694493">
        <ele>1024.00</ele>
        <time>2020-01-19T13:24:11.07Z</time>
      </trkpt>
      <trkpt lat="42.042674" lon="0.694567">
        <ele>1020.00</ele>
        <time>2020-01-19T13:24:23.04Z</time>
      </trkpt>
      <trkpt lat="42.042600" lon="0.694661">
        <ele>1018.00</ele>
        <time>2020-01-19T13:24:32.04Z</time>
      </trkpt>
      <trkpt lat="42.042514" lon="0.694737">
        <ele>1016.00</ele>
        <time>2020-01-19T13:24:36.04Z</time>
      </trkpt>
      <trkpt lat="42.042457" lon="0.694835">
        <ele>1015.00</ele>
        <time>2020-01-19T13:24:40.04Z</time>
      </trkpt>
      <trkpt lat="42.042406" lon="0.694934">
        <ele>1015.00</ele>
        <time>2020-01-19T13:24:43.04Z</time>
      </trkpt>
      <trkpt lat="42.042373" lon="0.695053">
        <ele>1014.00</ele>
        <time>2020-01-19T13:24:47.07Z</time>
      </trkpt>
      <trkpt lat="42.042343" lon="0.695190">
        <ele>1014.00</ele>
        <time>2020-01-19T13:24:52.04Z</time>
      </trkpt>
      <trkpt lat="42.042292" lon="0.695383">
        <ele>1013.00</ele>
        <time>2020-01-19T13:24:58.04Z</time>
      </trkpt>
      <trkpt lat="42.042246" lon="0.695621">
        <ele>1011.00</ele>
        <time>2020-01-19T13:25:08.10Z</time>
      </trkpt>
      <trkpt lat="42.042207" lon="0.695778">
        <ele>1011.00</ele>
        <time>2020-01-19T13:25:12.04Z</time>
      </trkpt>
      <trkpt lat="42.042180" lon="0.695894">
        <ele>1010.00</ele>
        <time>2020-01-19T13:25:15.04Z</time>
      </trkpt>
      <trkpt lat="42.042139" lon="0.696029">
        <ele>1009.93</ele>
        <time>2020-01-19T13:25:19.04Z</time>
      </trkpt>
      <trkpt lat="42.042047" lon="0.696174">
        <ele>1009.00</ele>
        <time>2020-01-19T13:25:25.04Z</time>
      </trkpt>
      <trkpt lat="42.042009" lon="0.696314">
        <ele>1009.00</ele>
        <time>2020-01-19T13:25:32.01Z</time>
      </trkpt>
      <trkpt lat="42.041986" lon="0.696437">
        <ele>1009.00</ele>
        <time>2020-01-19T13:25:38.01Z</time>
      </trkpt>
      <trkpt lat="42.041941" lon="0.696546">
        <ele>1010.00</ele>
        <time>2020-01-19T13:25:46.04Z</time>
      </trkpt>
      <trkpt lat="42.041909" lon="0.696661">
        <ele>1012.00</ele>
        <time>2020-01-19T13:25:53.01Z</time>
      </trkpt>
      <trkpt lat="42.041871" lon="0.696775">
        <ele>1012.52</ele>
        <time>2020-01-19T13:25:59.04Z</time>
      </trkpt>
      <trkpt lat="42.041842" lon="0.696900">
        <ele>1013.00</ele>
        <time>2020-01-19T13:26:08.04Z</time>
      </trkpt>
      <trkpt lat="42.041789" lon="0.697001">
        <ele>1015.00</ele>
        <time>2020-01-19T13:26:16.07Z</time>
      </trkpt>
      <trkpt lat="42.041717" lon="0.697091">
        <ele>1016.00</ele>
        <time>2020-01-19T13:26:23.01Z</time>
      </trkpt>
      <trkpt lat="42.041675" lon="0.697200">
        <ele>1015.94</ele>
        <time>2020-01-19T13:26:30.04Z</time>
      </trkpt>
      <trkpt lat="42.041775" lon="0.697185">
        <ele>1014.00</ele>
        <time>2020-01-19T13:26:44.01Z</time>
      </trkpt>
      <trkpt lat="42.041918" lon="0.697292">
        <ele>1012.43</ele>
        <time>2020-01-19T13:26:50.07Z</time>
      </trkpt>
      <trkpt lat="42.041983" lon="0.697396">
        <ele>1009.00</ele>
        <time>2020-01-19T13:26:54.07Z</time>
      </trkpt>
      <trkpt lat="42.042037" lon="0.697495">
        <ele>1008.81</ele>
        <time>2020-01-19T13:27:01.01Z</time>
      </trkpt>
      <trkpt lat="42.042101" lon="0.697588">
        <ele>1007.00</ele>
        <time>2020-01-19T13:27:07.10Z</time>
      </trkpt>
      <trkpt lat="42.042190" lon="0.697614">
        <ele>1007.00</ele>
        <time>2020-01-19T13:27:10.07Z</time>
      </trkpt>
      <trkpt lat="42.042278" lon="0.697687">
        <ele>1007.00</ele>
        <time>2020-01-19T13:27:17.04Z</time>
      </trkpt>
      <trkpt lat="42.042361" lon="0.697765">
        <ele>1007.00</ele>
        <time>2020-01-19T13:27:22.07Z</time>
      </trkpt>
      <trkpt lat="42.042434" lon="0.697841">
        <ele>1007.00</ele>
        <time>2020-01-19T13:27:26.04Z</time>
      </trkpt>
      <trkpt lat="42.042522" lon="0.697899">
        <ele>1007.00</ele>
        <time>2020-01-19T13:27:31.07Z</time>
      </trkpt>
      <trkpt lat="42.042574" lon="0.698011">
        <ele>1001.00</ele>
        <time>2020-01-19T13:27:41.04Z</time>
      </trkpt>
      <trkpt lat="42.042720" lon="0.697976">
        <ele>996.00</ele>
        <time>2020-01-19T13:27:58.04Z</time>
      </trkpt>
      <trkpt lat="42.042769" lon="0.698081">
        <ele>996.00</ele>
        <time>2020-01-19T13:28:07.07Z</time>
      </trkpt>
      <trkpt lat="42.042781" lon="0.698225">
        <ele>992.00</ele>
        <time>2020-01-19T13:28:15.07Z</time>
      </trkpt>
      <trkpt lat="42.042716" lon="0.698318">
        <ele>986.96</ele>
        <time>2020-01-19T13:28:21.04Z</time>
      </trkpt>
      <trkpt lat="42.042763" lon="0.698453">
        <ele>986.00</ele>
        <time>2020-01-19T13:28:36.04Z</time>
      </trkpt>
      <trkpt lat="42.042747" lon="0.698594">
        <ele>986.00</ele>
        <time>2020-01-19T13:28:40.04Z</time>
      </trkpt>
      <trkpt lat="42.042716" lon="0.698721">
        <ele>985.66</ele>
        <time>2020-01-19T13:28:44.01Z</time>
      </trkpt>
      <trkpt lat="42.042692" lon="0.698845">
        <ele>985.00</ele>
        <time>2020-01-19T13:28:50.01Z</time>
      </trkpt>
      <trkpt lat="42.042610" lon="0.698908">
        <ele>985.00</ele>
        <time>2020-01-19T13:28:58.10Z</time>
      </trkpt>
      <trkpt lat="42.042546" lon="0.698818">
        <ele>983.00</ele>
        <time>2020-01-19T13:29:10.04Z</time>
      </trkpt>
      <trkpt lat="42.042511" lon="0.698704">
        <ele>982.00</ele>
        <time>2020-01-19T13:29:22.04Z</time>
      </trkpt>
      <trkpt lat="42.042522" lon="0.698571">
        <ele>978.00</ele>
        <time>2020-01-19T13:29:41.04Z</time>
      </trkpt>
      <trkpt lat="42.042386" lon="0.698579">
        <ele>976.00</ele>
        <time>2020-01-19T13:29:53.99Z</time>
      </trkpt>
      <trkpt lat="42.042263" lon="0.698638">
        <ele>981.00</ele>
        <time>2020-01-19T13:30:18.07Z</time>
      </trkpt>
      <trkpt lat="42.042201" lon="0.698744">
        <ele>983.00</ele>
        <time>2020-01-19T13:30:27.01Z</time>
      </trkpt>
      <trkpt lat="42.042113" lon="0.698814">
        <ele>985.00</ele>
        <time>2020-01-19T13:30:34.07Z</time>
      </trkpt>
      <trkpt lat="42.042061" lon="0.698931">
        <ele>986.00</ele>
        <time>2020-01-19T13:30:41.04Z</time>
      </trkpt>
      <trkpt lat="42.041984" lon="0.698863">
        <ele>987.00</ele>
        <time>2020-01-19T13:30:52.01Z</time>
      </trkpt>
      <trkpt lat="42.041923" lon="0.698956">
        <ele>992.00</ele>
        <time>2020-01-19T13:31:08.06Z</time>
      </trkpt>
      <trkpt lat="42.041863" lon="0.699061">
        <ele>993.00</ele>
        <time>2020-01-19T13:31:16.04Z</time>
      </trkpt>
      <trkpt lat="42.041804" lon="0.699155">
        <ele>996.00</ele>
        <time>2020-01-19T13:31:25.07Z</time>
      </trkpt>
      <trkpt lat="42.041721" lon="0.699264">
        <ele>999.00</ele>
        <time>2020-01-19T13:31:34.04Z</time>
      </trkpt>
      <trkpt lat="42.041674" lon="0.699390">
        <ele>998.00</ele>
        <time>2020-01-19T13:31:45.07Z</time>
      </trkpt>
      <trkpt lat="42.041618" lon="0.699491">
        <ele>999.00</ele>
        <time>2020-01-19T13:31:56.01Z</time>
      </trkpt>
      <trkpt lat="42.041542" lon="0.699578">
        <ele>999.00</ele>
        <time>2020-01-19T13:32:01.11Z</time>
      </trkpt>
      <trkpt lat="42.041546" lon="0.699703">
        <ele>1002.00</ele>
        <time>2020-01-19T13:32:09.04Z</time>
      </trkpt>
      <trkpt lat="42.041513" lon="0.699827">
        <ele>1004.00</ele>
        <time>2020-01-19T13:32:18.04Z</time>
      </trkpt>
      <trkpt lat="42.041421" lon="0.699826">
        <ele>1004.40</ele>
        <time>2020-01-19T13:32:27.04Z</time>
      </trkpt>
      <trkpt lat="42.041332" lon="0.699860">
        <ele>1006.00</ele>
        <time>2020-01-19T13:32:40.04Z</time>
      </trkpt>
      <trkpt lat="42.041257" lon="0.699938">
        <ele>1009.74</ele>
        <time>2020-01-19T13:32:50.04Z</time>
      </trkpt>
      <trkpt lat="42.041167" lon="0.699926">
        <ele>1014.00</ele>
        <time>2020-01-19T13:33:02.04Z</time>
      </trkpt>
      <trkpt lat="42.040955" lon="0.700035">
        <ele>1016.00</ele>
        <time>2020-01-19T13:33:20.04Z</time>
      </trkpt>
      <trkpt lat="42.040857" lon="0.700004">
        <ele>1018.00</ele>
        <time>2020-01-19T13:33:31.04Z</time>
      </trkpt>
      <trkpt lat="42.040763" lon="0.700004">
        <ele>1021.00</ele>
        <time>2020-01-19T13:33:58.04Z</time>
      </trkpt>
      <trkpt lat="42.040852" lon="0.700025">
        <ele>1021.00</ele>
        <time>2020-01-19T13:35:09.04Z</time>
      </trkpt>
      <trkpt lat="42.040768" lon="0.700080">
        <ele>1023.00</ele>
        <time>2020-01-19T13:35:31.04Z</time>
      </trkpt>
      <trkpt lat="42.040708" lon="0.699990">
        <ele>1026.00</ele>
        <time>2020-01-19T13:35:43.04Z</time>
      </trkpt>
      <trkpt lat="42.040631" lon="0.699901">
        <ele>1027.00</ele>
        <time>2020-01-19T13:35:52.04Z</time>
      </trkpt>
      <trkpt lat="42.040550" lon="0.699753">
        <ele>1026.00</ele>
        <time>2020-01-19T13:36:04.04Z</time>
      </trkpt>
      <trkpt lat="42.040442" lon="0.699714">
        <ele>1028.00</ele>
        <time>2020-01-19T13:36:12.04Z</time>
      </trkpt>
      <trkpt lat="42.040497" lon="0.699612">
        <ele>1028.00</ele>
        <time>2020-01-19T13:36:18.04Z</time>
      </trkpt>
      <trkpt lat="42.040451" lon="0.699481">
        <ele>1027.00</ele>
        <time>2020-01-19T13:36:24.04Z</time>
      </trkpt>
      <trkpt lat="42.040399" lon="0.699364">
        <ele>1026.00</ele>
        <time>2020-01-19T13:36:30.04Z</time>
      </trkpt>
      <trkpt lat="42.040232" lon="0.698885">
        <ele>1035.00</ele>
        <time>2020-01-19T13:37:19Z</time>
      </trkpt>
      <trkpt lat="42.040278" lon="0.698781">
        <ele>1035.69</ele>
        <time>2020-01-19T13:37:24.01Z</time>
      </trkpt>
      <trkpt lat="42.040157" lon="0.698738">
        <ele>1038.00</ele>
        <time>2020-01-19T13:37:39.04Z</time>
      </trkpt>
      <trkpt lat="42.040030" lon="0.698661">
        <ele>1038.00</ele>
        <time>2020-01-19T13:37:45.98Z</time>
      </trkpt>
      <trkpt lat="42.039938" lon="0.698626">
        <ele>1040.00</ele>
        <time>2020-01-19T13:37:50.06Z</time>
      </trkpt>
      <trkpt lat="42.039832" lon="0.698630">
        <ele>1041.00</ele>
        <time>2020-01-19T13:37:59.06Z</time>
      </trkpt>
      <trkpt lat="42.039716" lon="0.698571">
        <ele>1041.00</ele>
        <time>2020-01-19T13:38:07.04Z</time>
      </trkpt>
      <trkpt lat="42.039625" lon="0.698523">
        <ele>1041.00</ele>
        <time>2020-01-19T13:38:16.04Z</time>
      </trkpt>
      <trkpt lat="42.039555" lon="0.698437">
        <ele>1044.34</ele>
        <time>2020-01-19T13:38:26.04Z</time>
      </trkpt>
      <trkpt lat="42.039528" lon="0.698320">
        <ele>1045.00</ele>
        <time>2020-01-19T13:38:33.04Z</time>
      </trkpt>
      <trkpt lat="42.039470" lon="0.698176">
        <ele>1045.00</ele>
        <time>2020-01-19T13:38:47.04Z</time>
      </trkpt>
      <trkpt lat="42.039410" lon="0.698080">
        <ele>1046.00</ele>
        <time>2020-01-19T13:38:58.04Z</time>
      </trkpt>
      <trkpt lat="42.039298" lon="0.698015">
        <ele>1050.00</ele>
        <time>2020-01-19T13:39:11.04Z</time>
      </trkpt>
      <trkpt lat="42.039200" lon="0.697884">
        <ele>1050.00</ele>
        <time>2020-01-19T13:39:20.06Z</time>
      </trkpt>
      <trkpt lat="42.039091" lon="0.697881">
        <ele>1056.00</ele>
        <time>2020-01-19T13:39:29.06Z</time>
      </trkpt>
      <trkpt lat="42.039016" lon="0.697789">
        <ele>1055.00</ele>
        <time>2020-01-19T13:39:37.04Z</time>
      </trkpt>
      <trkpt lat="42.038933" lon="0.697732">
        <ele>1055.00</ele>
        <time>2020-01-19T13:39:43.07Z</time>
      </trkpt>
      <trkpt lat="42.038879" lon="0.697632">
        <ele>1055.00</ele>
        <time>2020-01-19T13:39:49.06Z</time>
      </trkpt>
      <trkpt lat="42.038803" lon="0.697520">
        <ele>1056.00</ele>
        <time>2020-01-19T13:39:57.07Z</time>
      </trkpt>
      <trkpt lat="42.038761" lon="0.697407">
        <ele>1057.79</ele>
        <time>2020-01-19T13:40:05.01Z</time>
      </trkpt>
      <trkpt lat="42.038680" lon="0.697348">
        <ele>1057.00</ele>
        <time>2020-01-19T13:40:11.04Z</time>
      </trkpt>
      <trkpt lat="42.038652" lon="0.697229">
        <ele>1059.00</ele>
        <time>2020-01-19T13:40:19.04Z</time>
      </trkpt>
      <trkpt lat="42.038620" lon="0.697097">
        <ele>1059.00</ele>
        <time>2020-01-19T13:40:27.04Z</time>
      </trkpt>
      <trkpt lat="42.038585" lon="0.696981">
        <ele>1060.00</ele>
        <time>2020-01-19T13:40:33.04Z</time>
      </trkpt>
      <trkpt lat="42.038552" lon="0.696860">
        <ele>1060.00</ele>
        <time>2020-01-19T13:40:40.37Z</time>
      </trkpt>
      <trkpt lat="42.038539" lon="0.696736">
        <ele>1060.00</ele>
        <time>2020-01-19T13:40:46.04Z</time>
      </trkpt>
      <trkpt lat="42.038511" lon="0.696610">
        <ele>1062.00</ele>
        <time>2020-01-19T13:40:53.04Z</time>
      </trkpt>
      <trkpt lat="42.038451" lon="0.696510">
        <ele>1066.00</ele>
        <time>2020-01-19T13:40:59.04Z</time>
      </trkpt>
      <trkpt lat="42.038387" lon="0.696371">
        <ele>1069.00</ele>
        <time>2020-01-19T13:41:06.04Z</time>
      </trkpt>
      <trkpt lat="42.038348" lon="0.696251">
        <ele>1069.13</ele>
        <time>2020-01-19T13:41:13.01Z</time>
      </trkpt>
      <trkpt lat="42.038291" lon="0.696133">
        <ele>1071.00</ele>
        <time>2020-01-19T13:41:19.04Z</time>
      </trkpt>
      <trkpt lat="42.038197" lon="0.696083">
        <ele>1072.58</ele>
        <time>2020-01-19T13:41:27.01Z</time>
      </trkpt>
      <trkpt lat="42.038163" lon="0.695955">
        <ele>1074.00</ele>
        <time>2020-01-19T13:41:47.04Z</time>
      </trkpt>
      <trkpt lat="42.038136" lon="0.695838">
        <ele>1072.00</ele>
        <time>2020-01-19T13:41:56.07Z</time>
      </trkpt>
      <trkpt lat="42.038071" lon="0.695725">
        <ele>1072.00</ele>
        <time>2020-01-19T13:42:28.04Z</time>
      </trkpt>
      <trkpt lat="42.038004" lon="0.695632">
        <ele>1066.00</ele>
        <time>2020-01-19T13:43:57.04Z</time>
      </trkpt>
      <trkpt lat="42.037953" lon="0.695447">
        <ele>1064.00</ele>
        <time>2020-01-19T13:44:10.01Z</time>
      </trkpt>
      <trkpt lat="42.037926" lon="0.695331">
        <ele>1064.00</ele>
        <time>2020-01-19T13:44:16.07Z</time>
      </trkpt>
      <trkpt lat="42.037891" lon="0.695203">
        <ele>1053.63</ele>
        <time>2020-01-19T13:44:22.04Z</time>
      </trkpt>
      <trkpt lat="42.037860" lon="0.695049">
        <ele>1051.54</ele>
        <time>2020-01-19T13:44:28.14Z</time>
      </trkpt>
      <trkpt lat="42.037840" lon="0.694906">
        <ele>1049.00</ele>
        <time>2020-01-19T13:44:32.04Z</time>
      </trkpt>
      <trkpt lat="42.037833" lon="0.694748">
        <ele>1047.00</ele>
        <time>2020-01-19T13:44:36.04Z</time>
      </trkpt>
      <trkpt lat="42.037824" lon="0.694625">
        <ele>1047.00</ele>
        <time>2020-01-19T13:44:39.04Z</time>
      </trkpt>
      <trkpt lat="42.037797" lon="0.694498">
        <ele>1044.00</ele>
        <time>2020-01-19T13:44:43.04Z</time>
      </trkpt>
      <trkpt lat="42.037791" lon="0.694373">
        <ele>1040.00</ele>
        <time>2020-01-19T13:44:47.04Z</time>
      </trkpt>
      <trkpt lat="42.037837" lon="0.694234">
        <ele>1040.00</ele>
        <time>2020-01-19T13:44:51.04Z</time>
      </trkpt>
      <trkpt lat="42.037869" lon="0.694095">
        <ele>1037.00</ele>
        <time>2020-01-19T13:44:55.04Z</time>
      </trkpt>
      <trkpt lat="42.037882" lon="0.693972">
        <ele>1034.33</ele>
        <time>2020-01-19T13:45:00.04Z</time>
      </trkpt>
      <trkpt lat="42.037906" lon="0.693841">
        <ele>1031.00</ele>
        <time>2020-01-19T13:45:05.04Z</time>
      </trkpt>
      <trkpt lat="42.037922" lon="0.693641">
        <ele>1029.00</ele>
        <time>2020-01-19T13:45:11.07Z</time>
      </trkpt>
      <trkpt lat="42.037951" lon="0.693454">
        <ele>1026.00</ele>
        <time>2020-01-19T13:45:18.04Z</time>
      </trkpt>
      <trkpt lat="42.037913" lon="0.693337">
        <ele>1024.00</ele>
        <time>2020-01-19T13:45:25.04Z</time>
      </trkpt>
      <trkpt lat="42.037796" lon="0.693336">
        <ele>1021.00</ele>
        <time>2020-01-19T13:45:51.04Z</time>
      </trkpt>
      <trkpt lat="42.037696" lon="0.693338">
        <ele>1020.79</ele>
        <time>2020-01-19T13:45:54.04Z</time>
      </trkpt>
      <trkpt lat="42.037591" lon="0.693368">
        <ele>1020.00</ele>
        <time>2020-01-19T13:45:58.04Z</time>
      </trkpt>
      <trkpt lat="42.037500" lon="0.693378">
        <ele>1020.00</ele>
        <time>2020-01-19T13:46:02.04Z</time>
      </trkpt>
      <trkpt lat="42.037405" lon="0.693352">
        <ele>1016.00</ele>
        <time>2020-01-19T13:46:07.04Z</time>
      </trkpt>
      <trkpt lat="42.037306" lon="0.693341">
        <ele>1016.00</ele>
        <time>2020-01-19T13:46:11.04Z</time>
      </trkpt>
      <trkpt lat="42.037197" lon="0.693315">
        <ele>1016.00</ele>
        <time>2020-01-19T13:46:17.04Z</time>
      </trkpt>
      <trkpt lat="42.037115" lon="0.693218">
        <ele>1011.04</ele>
        <time>2020-01-19T13:46:22.04Z</time>
      </trkpt>
      <trkpt lat="42.037033" lon="0.693134">
        <ele>1010.00</ele>
        <time>2020-01-19T13:46:28.04Z</time>
      </trkpt>
      <trkpt lat="42.036965" lon="0.693033">
        <ele>1009.00</ele>
        <time>2020-01-19T13:46:38.04Z</time>
      </trkpt>
      <trkpt lat="42.036907" lon="0.692935">
        <ele>1007.00</ele>
        <time>2020-01-19T13:46:44.04Z</time>
      </trkpt>
      <trkpt lat="42.036830" lon="0.692850">
        <ele>1007.00</ele>
        <time>2020-01-19T13:46:50.04Z</time>
      </trkpt>
      <trkpt lat="42.036742" lon="0.692798">
        <ele>1002.00</ele>
        <time>2020-01-19T13:46:55.04Z</time>
      </trkpt>
      <trkpt lat="42.036651" lon="0.692730">
        <ele>997.62</ele>
        <time>2020-01-19T13:47:00.04Z</time>
      </trkpt>
      <trkpt lat="42.036570" lon="0.692675">
        <ele>996.00</ele>
        <time>2020-01-19T13:47:03.04Z</time>
      </trkpt>
      <trkpt lat="42.036470" lon="0.692667">
        <ele>993.56</ele>
        <time>2020-01-19T13:47:07.04Z</time>
      </trkpt>
      <trkpt lat="42.036377" lon="0.692684">
        <ele>992.00</ele>
        <time>2020-01-19T13:47:17.04Z</time>
      </trkpt>
      <trkpt lat="42.036385" lon="0.692815">
        <ele>993.00</ele>
        <time>2020-01-19T13:47:52.04Z</time>
      </trkpt>
      <trkpt lat="42.036308" lon="0.692941">
        <ele>991.00</ele>
        <time>2020-01-19T13:47:59.04Z</time>
      </trkpt>
      <trkpt lat="42.036221" lon="0.693033">
        <ele>991.00</ele>
        <time>2020-01-19T13:48:04.04Z</time>
      </trkpt>
      <trkpt lat="42.036143" lon="0.693094">
        <ele>986.00</ele>
        <time>2020-01-19T13:48:07.04Z</time>
      </trkpt>
      <trkpt lat="42.036067" lon="0.693187">
        <ele>985.48</ele>
        <time>2020-01-19T13:48:11.04Z</time>
      </trkpt>
      <trkpt lat="42.036012" lon="0.693286">
        <ele>981.00</ele>
        <time>2020-01-19T13:48:16.04Z</time>
      </trkpt>
      <trkpt lat="42.035948" lon="0.693409">
        <ele>981.00</ele>
        <time>2020-01-19T13:48:21.04Z</time>
      </trkpt>
      <trkpt lat="42.035894" lon="0.693524">
        <ele>980.21</ele>
        <time>2020-01-19T13:48:25.04Z</time>
      </trkpt>
      <trkpt lat="42.035840" lon="0.693628">
        <ele>978.00</ele>
        <time>2020-01-19T13:48:29.04Z</time>
      </trkpt>
      <trkpt lat="42.035752" lon="0.693785">
        <ele>977.00</ele>
        <time>2020-01-19T13:48:36.04Z</time>
      </trkpt>
      <trkpt lat="42.035693" lon="0.693894">
        <ele>977.00</ele>
        <time>2020-01-19T13:48:40.04Z</time>
      </trkpt>
      <trkpt lat="42.035608" lon="0.694033">
        <ele>974.00</ele>
        <time>2020-01-19T13:48:45.04Z</time>
      </trkpt>
      <trkpt lat="42.035537" lon="0.694122">
        <ele>972.00</ele>
        <time>2020-01-19T13:48:49.04Z</time>
      </trkpt>
      <trkpt lat="42.035478" lon="0.694234">
        <ele>970.00</ele>
        <time>2020-01-19T13:48:53.04Z</time>
      </trkpt>
      <trkpt lat="42.035350" lon="0.694513">
        <ele>968.74</ele>
        <time>2020-01-19T13:49:04.04Z</time>
      </trkpt>
      <trkpt lat="42.035146" lon="0.694999">
        <ele>967.00</ele>
        <time>2020-01-19T13:49:35.04Z</time>
      </trkpt>
      <trkpt lat="42.034383" lon="0.696386">
        <ele>948.00</ele>
        <time>2020-01-19T13:50:49.04Z</time>
      </trkpt>
      <trkpt lat="42.034064" lon="0.696823">
        <ele>947.00</ele>
        <time>2020-01-19T13:50:57.04Z</time>
      </trkpt>
      <trkpt lat="42.033658" lon="0.697291">
        <ele>922.26</ele>
        <time>2020-01-19T13:52:05.75Z</time>
      </trkpt>
      <trkpt lat="42.033211" lon="0.697548">
        <ele>902.00</ele>
        <time>2020-01-19T13:53:02.04Z</time>
      </trkpt>
      <trkpt lat="42.033279" lon="0.697238">
        <ele>901.00</ele>
        <time>2020-01-19T13:53:05.04Z</time>
      </trkpt>
      <trkpt lat="42.033352" lon="0.697083">
        <ele>901.00</ele>
        <time>2020-01-19T13:53:09.04Z</time>
      </trkpt>
      <trkpt lat="42.033378" lon="0.696949">
        <ele>900.00</ele>
        <time>2020-01-19T13:53:12.04Z</time>
      </trkpt>
      <trkpt lat="42.033389" lon="0.696576">
        <ele>900.00</ele>
        <time>2020-01-19T13:53:16.04Z</time>
      </trkpt>
      <trkpt lat="42.033431" lon="0.696189">
        <ele>900.00</ele>
        <time>2020-01-19T13:53:19.04Z</time>
      </trkpt>
      <trkpt lat="42.033598" lon="0.695386">
        <ele>900.00</ele>
        <time>2020-01-19T13:53:23.04Z</time>
      </trkpt>
      <trkpt lat="42.033752" lon="0.694432">
        <ele>876.00</ele>
        <time>2020-01-19T13:54:10.08Z</time>
      </trkpt>
      <trkpt lat="42.033736" lon="0.694222">
        <ele>876.00</ele>
        <time>2020-01-19T13:54:16.04Z</time>
      </trkpt>
      <trkpt lat="42.033779" lon="0.694107">
        <ele>869.00</ele>
        <time>2020-01-19T13:54:20.04Z</time>
      </trkpt>
      <trkpt lat="42.033823" lon="0.693950">
        <ele>868.02</ele>
        <time>2020-01-19T13:54:26.04Z</time>
      </trkpt>
      <trkpt lat="42.033843" lon="0.693805">
        <ele>867.00</ele>
        <time>2020-01-19T13:54:32.07Z</time>
      </trkpt>
      <trkpt lat="42.033840" lon="0.693677">
        <ele>866.24</ele>
        <time>2020-01-19T13:54:37.04Z</time>
      </trkpt>
      <trkpt lat="42.033837" lon="0.693542">
        <ele>865.00</ele>
        <time>2020-01-19T13:54:41.04Z</time>
      </trkpt>
      <trkpt lat="42.033751" lon="0.693714">
        <ele>860.00</ele>
        <time>2020-01-19T13:54:57.06Z</time>
      </trkpt>
      <trkpt lat="42.033673" lon="0.693828">
        <ele>860.00</ele>
        <time>2020-01-19T13:55:02.03Z</time>
      </trkpt>
      <trkpt lat="42.033612" lon="0.693722">
        <ele>858.00</ele>
        <time>2020-01-19T13:55:13.07Z</time>
      </trkpt>
      <trkpt lat="42.033564" lon="0.693576">
        <ele>853.00</ele>
        <time>2020-01-19T13:55:21.04Z</time>
      </trkpt>
      <trkpt lat="42.033575" lon="0.693423">
        <ele>849.00</ele>
        <time>2020-01-19T13:55:27.07Z</time>
      </trkpt>
      <trkpt lat="42.033585" lon="0.693295">
        <ele>846.00</ele>
        <time>2020-01-19T13:55:33.04Z</time>
      </trkpt>
      <trkpt lat="42.033513" lon="0.693219">
        <ele>843.00</ele>
        <time>2020-01-19T13:55:44.07Z</time>
      </trkpt>
      <trkpt lat="42.033415" lon="0.693187">
        <ele>840.00</ele>
        <time>2020-01-19T13:55:51.04Z</time>
      </trkpt>
      <trkpt lat="42.033361" lon="0.693302">
        <ele>837.00</ele>
        <time>2020-01-19T13:55:56.04Z</time>
      </trkpt>
      <trkpt lat="42.033338" lon="0.693421">
        <ele>837.00</ele>
        <time>2020-01-19T13:55:59.06Z</time>
      </trkpt>
      <trkpt lat="42.033305" lon="0.693558">
        <ele>835.00</ele>
        <time>2020-01-19T13:56:07.07Z</time>
      </trkpt>
      <trkpt lat="42.033251" lon="0.693663">
        <ele>835.00</ele>
        <time>2020-01-19T13:56:25.04Z</time>
      </trkpt>
      <trkpt lat="42.033176" lon="0.693775">
        <ele>833.00</ele>
        <time>2020-01-19T13:56:38.04Z</time>
      </trkpt>
      <trkpt lat="42.033080" lon="0.693874">
        <ele>829.00</ele>
        <time>2020-01-19T13:56:51.06Z</time>
      </trkpt>
      <trkpt lat="42.032983" lon="0.693916">
        <ele>828.00</ele>
        <time>2020-01-19T13:56:56.03Z</time>
      </trkpt>
      <trkpt lat="42.032891" lon="0.693970">
        <ele>826.00</ele>
        <time>2020-01-19T13:57:08.07Z</time>
      </trkpt>
      <trkpt lat="42.032780" lon="0.693984">
        <ele>822.00</ele>
        <time>2020-01-19T13:57:20.07Z</time>
      </trkpt>
      <trkpt lat="42.032738" lon="0.694162">
        <ele>817.00</ele>
        <time>2020-01-19T13:57:27.04Z</time>
      </trkpt>
      <trkpt lat="42.032697" lon="0.694274">
        <ele>814.27</ele>
        <time>2020-01-19T13:57:31.04Z</time>
      </trkpt>
      <trkpt lat="42.032601" lon="0.694259">
        <ele>812.00</ele>
        <time>2020-01-19T13:57:36.04Z</time>
      </trkpt>
      <trkpt lat="42.032538" lon="0.694140">
        <ele>812.00</ele>
        <time>2020-01-19T13:57:40.07Z</time>
      </trkpt>
      <trkpt lat="42.032505" lon="0.694010">
        <ele>810.26</ele>
        <time>2020-01-19T13:57:44.04Z</time>
      </trkpt>
      <trkpt lat="42.032537" lon="0.693893">
        <ele>807.00</ele>
        <time>2020-01-19T13:57:49.04Z</time>
      </trkpt>
      <trkpt lat="42.032562" lon="0.693772">
        <ele>807.00</ele>
        <time>2020-01-19T13:57:53.04Z</time>
      </trkpt>
      <trkpt lat="42.032551" lon="0.693642">
        <ele>805.00</ele>
        <time>2020-01-19T13:57:58.01Z</time>
      </trkpt>
      <trkpt lat="42.032583" lon="0.693522">
        <ele>803.00</ele>
        <time>2020-01-19T13:58:02.04Z</time>
      </trkpt>
      <trkpt lat="42.032614" lon="0.693397">
        <ele>803.00</ele>
        <time>2020-01-19T13:58:09.04Z</time>
      </trkpt>
      <trkpt lat="42.032607" lon="0.693276">
        <ele>800.00</ele>
        <time>2020-01-19T13:58:17.04Z</time>
      </trkpt>
      <trkpt lat="42.032531" lon="0.693371">
        <ele>794.69</ele>
        <time>2020-01-19T13:58:34.04Z</time>
      </trkpt>
      <trkpt lat="42.032442" lon="0.693354">
        <ele>788.00</ele>
        <time>2020-01-19T13:58:41.06Z</time>
      </trkpt>
      <trkpt lat="42.032362" lon="0.693294">
        <ele>786.89</ele>
        <time>2020-01-19T13:58:48.04Z</time>
      </trkpt>
      <trkpt lat="42.032295" lon="0.693196">
        <ele>786.00</ele>
        <time>2020-01-19T13:58:54.01Z</time>
      </trkpt>
      <trkpt lat="42.032213" lon="0.693113">
        <ele>778.00</ele>
        <time>2020-01-19T13:59:03.01Z</time>
      </trkpt>
      <trkpt lat="42.032124" lon="0.693072">
        <ele>778.00</ele>
        <time>2020-01-19T13:59:08.04Z</time>
      </trkpt>
      <trkpt lat="42.032032" lon="0.693054">
        <ele>776.16</ele>
        <time>2020-01-19T13:59:12.07Z</time>
      </trkpt>
      <trkpt lat="42.031936" lon="0.693020">
        <ele>774.00</ele>
        <time>2020-01-19T13:59:17.04Z</time>
      </trkpt>
      <trkpt lat="42.031836" lon="0.692994">
        <ele>774.00</ele>
        <time>2020-01-19T13:59:21.04Z</time>
      </trkpt>
      <trkpt lat="42.031697" lon="0.692980">
        <ele>770.00</ele>
        <time>2020-01-19T13:59:30.07Z</time>
      </trkpt>
      <trkpt lat="42.031601" lon="0.692968">
        <ele>767.00</ele>
        <time>2020-01-19T13:59:34.07Z</time>
      </trkpt>
      <trkpt lat="42.031537" lon="0.693078">
        <ele>764.00</ele>
        <time>2020-01-19T13:59:39.04Z</time>
      </trkpt>
      <trkpt lat="42.031483" lon="0.693194">
        <ele>762.00</ele>
        <time>2020-01-19T13:59:44.04Z</time>
      </trkpt>
      <trkpt lat="42.031432" lon="0.693299">
        <ele>760.76</ele>
        <time>2020-01-19T13:59:50.04Z</time>
      </trkpt>
      <trkpt lat="42.031351" lon="0.693214">
        <ele>759.00</ele>
        <time>2020-01-19T13:59:56.04Z</time>
      </trkpt>
      <trkpt lat="42.031273" lon="0.693282">
        <ele>759.00</ele>
        <time>2020-01-19T14:00:04.04Z</time>
      </trkpt>
      <trkpt lat="42.031192" lon="0.693217">
        <ele>757.00</ele>
        <time>2020-01-19T14:00:10.04Z</time>
      </trkpt>
      <trkpt lat="42.031132" lon="0.693102">
        <ele>755.00</ele>
        <time>2020-01-19T14:00:15.04Z</time>
      </trkpt>
      <trkpt lat="42.031083" lon="0.692995">
        <ele>752.00</ele>
        <time>2020-01-19T14:00:20.04Z</time>
      </trkpt>
      <trkpt lat="42.031013" lon="0.692891">
        <ele>752.00</ele>
        <time>2020-01-19T14:00:25.01Z</time>
      </trkpt>
      <trkpt lat="42.030962" lon="0.692771">
        <ele>747.60</ele>
        <time>2020-01-19T14:00:31.07Z</time>
      </trkpt>
      <trkpt lat="42.030942" lon="0.692643">
        <ele>743.00</ele>
        <time>2020-01-19T14:00:46.07Z</time>
      </trkpt>
      <trkpt lat="42.030896" lon="0.692494">
        <ele>741.00</ele>
        <time>2020-01-19T14:00:51.07Z</time>
      </trkpt>
      <trkpt lat="42.030877" lon="0.692332">
        <ele>739.00</ele>
        <time>2020-01-19T14:00:58.07Z</time>
      </trkpt>
      <trkpt lat="42.030863" lon="0.692186">
        <ele>735.66</ele>
        <time>2020-01-19T14:01:03.04Z</time>
      </trkpt>
      <trkpt lat="42.030859" lon="0.692048">
        <ele>734.00</ele>
        <time>2020-01-19T14:01:08.04Z</time>
      </trkpt>
      <trkpt lat="42.030847" lon="0.691915">
        <ele>733.00</ele>
        <time>2020-01-19T14:01:12.07Z</time>
      </trkpt>
      <trkpt lat="42.030861" lon="0.691749">
        <ele>732.60</ele>
        <time>2020-01-19T14:01:17.07Z</time>
      </trkpt>
      <trkpt lat="42.030927" lon="0.691581">
        <ele>726.92</ele>
        <time>2020-01-19T14:01:24.04Z</time>
      </trkpt>
      <trkpt lat="42.031007" lon="0.691435">
        <ele>726.00</ele>
        <time>2020-01-19T14:01:31.17Z</time>
      </trkpt>
      <trkpt lat="42.031078" lon="0.691344">
        <ele>728.00</ele>
        <time>2020-01-19T14:01:34.04Z</time>
      </trkpt>
      <trkpt lat="42.031136" lon="0.691232">
        <ele>728.00</ele>
        <time>2020-01-19T14:01:37.04Z</time>
      </trkpt>
      <trkpt lat="42.031194" lon="0.691134">
        <ele>728.00</ele>
        <time>2020-01-19T14:01:40.04Z</time>
      </trkpt>
      <trkpt lat="42.031189" lon="0.690966">
        <ele>728.00</ele>
        <time>2020-01-19T14:01:46.07Z</time>
      </trkpt>
      <trkpt lat="42.031164" lon="0.690850">
        <ele>728.00</ele>
        <time>2020-01-19T14:01:52.07Z</time>
      </trkpt>
      <trkpt lat="42.031147" lon="0.690731">
        <ele>728.00</ele>
        <time>2020-01-19T14:01:57.04Z</time>
      </trkpt>
      <trkpt lat="42.031136" lon="0.690602">
        <ele>717.50</ele>
        <time>2020-01-19T14:02:14.04Z</time>
      </trkpt>
      <trkpt lat="42.031048" lon="0.690560">
        <ele>714.00</ele>
        <time>2020-01-19T14:02:21.07Z</time>
      </trkpt>
      <trkpt lat="42.030973" lon="0.690490">
        <ele>710.22</ele>
        <time>2020-01-19T14:02:29.07Z</time>
      </trkpt>
      <trkpt lat="42.031022" lon="0.690386">
        <ele>708.00</ele>
        <time>2020-01-19T14:02:44.04Z</time>
      </trkpt>
      <trkpt lat="42.031082" lon="0.690263">
        <ele>708.00</ele>
        <time>2020-01-19T14:02:54.06Z</time>
      </trkpt>
      <trkpt lat="42.031115" lon="0.690145">
        <ele>708.00</ele>
        <time>2020-01-19T14:02:59.04Z</time>
      </trkpt>
      <trkpt lat="42.031191" lon="0.690045">
        <ele>706.00</ele>
        <time>2020-01-19T14:03:05.06Z</time>
      </trkpt>
      <trkpt lat="42.031246" lon="0.689938">
        <ele>706.00</ele>
        <time>2020-01-19T14:03:11.04Z</time>
      </trkpt>
      <trkpt lat="42.031262" lon="0.689798">
        <ele>704.00</ele>
        <time>2020-01-19T14:03:18.04Z</time>
      </trkpt>
      <trkpt lat="42.031319" lon="0.689688">
        <ele>702.34</ele>
        <time>2020-01-19T14:03:25.06Z</time>
      </trkpt>
      <trkpt lat="42.031374" lon="0.689582">
        <ele>701.00</ele>
        <time>2020-01-19T14:03:30.01Z</time>
      </trkpt>
      <trkpt lat="42.031410" lon="0.689410">
        <ele>698.81</ele>
        <time>2020-01-19T14:03:36.07Z</time>
      </trkpt>
      <trkpt lat="42.031453" lon="0.689302">
        <ele>698.00</ele>
        <time>2020-01-19T14:03:40.01Z</time>
      </trkpt>
      <trkpt lat="42.031484" lon="0.689118">
        <ele>696.00</ele>
        <time>2020-01-19T14:03:45.07Z</time>
      </trkpt>
      <trkpt lat="42.031497" lon="0.688994">
        <ele>694.56</ele>
        <time>2020-01-19T14:03:48.04Z</time>
      </trkpt>
      <trkpt lat="42.031505" lon="0.688842">
        <ele>691.00</ele>
        <time>2020-01-19T14:03:52.04Z</time>
      </trkpt>
      <trkpt lat="42.031572" lon="0.688665">
        <ele>691.00</ele>
        <time>2020-01-19T14:03:58.07Z</time>
      </trkpt>
      <trkpt lat="42.031634" lon="0.688491">
        <ele>690.00</ele>
        <time>2020-01-19T14:04:03.04Z</time>
      </trkpt>
      <trkpt lat="42.031592" lon="0.688336">
        <ele>688.61</ele>
        <time>2020-01-19T14:04:07.07Z</time>
      </trkpt>
      <trkpt lat="42.031535" lon="0.688236">
        <ele>687.00</ele>
        <time>2020-01-19T14:04:11.04Z</time>
      </trkpt>
      <trkpt lat="42.031444" lon="0.688123">
        <ele>685.00</ele>
        <time>2020-01-19T14:04:17.07Z</time>
      </trkpt>
      <trkpt lat="42.031351" lon="0.688060">
        <ele>682.00</ele>
        <time>2020-01-19T14:04:21.04Z</time>
      </trkpt>
      <trkpt lat="42.031283" lon="0.687929">
        <ele>680.46</ele>
        <time>2020-01-19T14:04:28.07Z</time>
      </trkpt>
      <trkpt lat="42.031242" lon="0.687820">
        <ele>680.00</ele>
        <time>2020-01-19T14:04:32.04Z</time>
      </trkpt>
      <trkpt lat="42.031187" lon="0.687711">
        <ele>679.92</ele>
        <time>2020-01-19T14:04:36.04Z</time>
      </trkpt>
      <trkpt lat="42.031153" lon="0.687590">
        <ele>676.00</ele>
        <time>2020-01-19T14:04:41.04Z</time>
      </trkpt>
      <trkpt lat="42.031103" lon="0.687483">
        <ele>675.87</ele>
        <time>2020-01-19T14:04:46.01Z</time>
      </trkpt>
      <trkpt lat="42.031053" lon="0.687356">
        <ele>675.00</ele>
        <time>2020-01-19T14:04:54.07Z</time>
      </trkpt>
      <trkpt lat="42.030961" lon="0.687265">
        <ele>673.57</ele>
        <time>2020-01-19T14:05:07.03Z</time>
      </trkpt>
      <trkpt lat="42.030886" lon="0.687189">
        <ele>673.00</ele>
        <time>2020-01-19T14:05:29.04Z</time>
      </trkpt>
      <trkpt lat="42.030869" lon="0.687117">
        <ele>675.00</ele>
        <time>2020-01-19T14:06:05.04Z</time>
      </trkpt>
    </trkseg>
  </trk>
</gpx>
